<?xml version="1.0" encoding="UTF-8" standalone="no" ?>
<gpx xmlns="http://www.topografix.com/GPX/1/1" xmlns:xsi="http://www.w3.org/2001/XMLSchema-instance" xsi:schemaLocation="http://www.topografix.com/GPX/1/1 http://www.topografix.com/GPX/1/1/gpx.xsd" version="1.1" creator="VisuGPX - https://www.visugpx.com">
  <metadata>
    <name>Randonnée - BPM - AUVERS SUR OISE</name>
    <desc><![CDATA[Auvers sur oise]]></desc>
  </metadata>
  <trk>
    <name><![CDATA[Randonnée - BPM - AUVERS SUR OISE_1]]></name>
    <trkseg>
      <trkpt lat="49.07139" lon="2.17272">
        <ele>55.1</ele>
        <time>2017-10-15T07:52:23Z</time>
      </trkpt>
      <trkpt lat="49.07136" lon="2.17266">
        <ele>49.9</ele>
        <time>2017-10-15T07:52:34Z</time>
      </trkpt>
      <trkpt lat="49.0713" lon="2.1727">
        <ele>39.9</ele>
        <time>2017-10-15T07:53:55Z</time>
      </trkpt>
      <trkpt lat="49.07129" lon="2.17273">
        <ele>39.9</ele>
        <time>2017-10-15T07:54:02Z</time>
      </trkpt>
      <trkpt lat="49.07132" lon="2.17268">
        <ele>40.5</ele>
        <time>2017-10-15T07:54:13Z</time>
      </trkpt>
      <trkpt lat="49.07133" lon="2.17256">
        <ele>40.8</ele>
        <time>2017-10-15T07:54:36Z</time>
      </trkpt>
      <trkpt lat="49.07134" lon="2.17256">
        <ele>40.9</ele>
        <time>2017-10-15T07:54:43Z</time>
      </trkpt>
      <trkpt lat="49.07136" lon="2.17245">
        <ele>41.8</ele>
        <time>2017-10-15T07:54:56Z</time>
      </trkpt>
      <trkpt lat="49.07137" lon="2.17235">
        <ele>42.5</ele>
        <time>2017-10-15T07:55:02Z</time>
      </trkpt>
      <trkpt lat="49.07139" lon="2.17224">
        <ele>43.2</ele>
        <time>2017-10-15T07:55:09Z</time>
      </trkpt>
      <trkpt lat="49.07141" lon="2.17215">
        <ele>43.9</ele>
        <time>2017-10-15T07:55:16Z</time>
      </trkpt>
      <trkpt lat="49.07143" lon="2.17204">
        <ele>44.6</ele>
        <time>2017-10-15T07:55:23Z</time>
      </trkpt>
      <trkpt lat="49.07144" lon="2.17193">
        <ele>45.3</ele>
        <time>2017-10-15T07:55:30Z</time>
      </trkpt>
      <trkpt lat="49.07148" lon="2.17183">
        <ele>46.1</ele>
        <time>2017-10-15T07:55:37Z</time>
      </trkpt>
      <trkpt lat="49.0715" lon="2.17173">
        <ele>47</ele>
        <time>2017-10-15T07:55:44Z</time>
      </trkpt>
      <trkpt lat="49.07155" lon="2.17164">
        <ele>47.7</ele>
        <time>2017-10-15T07:55:50Z</time>
      </trkpt>
      <trkpt lat="49.07159" lon="2.17156">
        <ele>48.6</ele>
        <time>2017-10-15T07:55:56Z</time>
      </trkpt>
      <trkpt lat="49.07164" lon="2.17146">
        <ele>49.3</ele>
        <time>2017-10-15T07:56:03Z</time>
      </trkpt>
      <trkpt lat="49.07168" lon="2.17137">
        <ele>49.5</ele>
        <time>2017-10-15T07:56:09Z</time>
      </trkpt>
      <trkpt lat="49.07173" lon="2.17128">
        <ele>48.9</ele>
        <time>2017-10-15T07:56:14Z</time>
      </trkpt>
      <trkpt lat="49.0718" lon="2.1712">
        <ele>48.4</ele>
        <time>2017-10-15T07:56:19Z</time>
      </trkpt>
      <trkpt lat="49.07186" lon="2.17113">
        <ele>47.2</ele>
        <time>2017-10-15T07:56:24Z</time>
      </trkpt>
      <trkpt lat="49.07192" lon="2.17106">
        <ele>46.8</ele>
        <time>2017-10-15T07:56:30Z</time>
      </trkpt>
      <trkpt lat="49.07198" lon="2.17098">
        <ele>46.1</ele>
        <time>2017-10-15T07:56:36Z</time>
      </trkpt>
      <trkpt lat="49.07204" lon="2.17091">
        <ele>46.8</ele>
        <time>2017-10-15T07:56:43Z</time>
      </trkpt>
      <trkpt lat="49.07211" lon="2.17083">
        <ele>47.5</ele>
        <time>2017-10-15T07:56:49Z</time>
      </trkpt>
      <trkpt lat="49.07216" lon="2.17076">
        <ele>48</ele>
        <time>2017-10-15T07:56:56Z</time>
      </trkpt>
      <trkpt lat="49.07223" lon="2.17071">
        <ele>46.6</ele>
        <time>2017-10-15T07:57:03Z</time>
      </trkpt>
      <trkpt lat="49.07229" lon="2.17064">
        <ele>46.1</ele>
        <time>2017-10-15T07:57:10Z</time>
      </trkpt>
      <trkpt lat="49.07234" lon="2.17061">
        <ele>46</ele>
        <time>2017-10-15T07:57:17Z</time>
      </trkpt>
      <trkpt lat="49.07241" lon="2.17059">
        <ele>46.2</ele>
        <time>2017-10-15T07:57:24Z</time>
      </trkpt>
      <trkpt lat="49.07247" lon="2.17052">
        <ele>45.8</ele>
        <time>2017-10-15T07:57:31Z</time>
      </trkpt>
      <trkpt lat="49.07254" lon="2.17044">
        <ele>44.4</ele>
        <time>2017-10-15T07:57:38Z</time>
      </trkpt>
      <trkpt lat="49.07261" lon="2.1704">
        <ele>43</ele>
        <time>2017-10-15T07:57:44Z</time>
      </trkpt>
      <trkpt lat="49.07268" lon="2.17035">
        <ele>42.9</ele>
        <time>2017-10-15T07:57:51Z</time>
      </trkpt>
      <trkpt lat="49.07275" lon="2.17032">
        <ele>42.5</ele>
        <time>2017-10-15T07:57:57Z</time>
      </trkpt>
      <trkpt lat="49.07284" lon="2.17028">
        <ele>42.1</ele>
        <time>2017-10-15T07:58:03Z</time>
      </trkpt>
      <trkpt lat="49.07291" lon="2.17026">
        <ele>41.5</ele>
        <time>2017-10-15T07:58:08Z</time>
      </trkpt>
      <trkpt lat="49.07298" lon="2.17023">
        <ele>40.8</ele>
        <time>2017-10-15T07:58:14Z</time>
      </trkpt>
      <trkpt lat="49.07306" lon="2.17018">
        <ele>41.2</ele>
        <time>2017-10-15T07:58:20Z</time>
      </trkpt>
      <trkpt lat="49.07314" lon="2.17017">
        <ele>43.1</ele>
        <time>2017-10-15T07:58:25Z</time>
      </trkpt>
      <trkpt lat="49.07322" lon="2.17014">
        <ele>40.9</ele>
        <time>2017-10-15T07:58:31Z</time>
      </trkpt>
      <trkpt lat="49.07329" lon="2.17011">
        <ele>41.4</ele>
        <time>2017-10-15T07:58:37Z</time>
      </trkpt>
      <trkpt lat="49.07337" lon="2.17009">
        <ele>41.8</ele>
        <time>2017-10-15T07:58:43Z</time>
      </trkpt>
      <trkpt lat="49.07344" lon="2.17007">
        <ele>44</ele>
        <time>2017-10-15T07:58:50Z</time>
      </trkpt>
      <trkpt lat="49.07352" lon="2.17004">
        <ele>41.5</ele>
        <time>2017-10-15T07:58:57Z</time>
      </trkpt>
      <trkpt lat="49.07359" lon="2.17">
        <ele>41.3</ele>
        <time>2017-10-15T07:59:03Z</time>
      </trkpt>
      <trkpt lat="49.07366" lon="2.17002">
        <ele>39.9</ele>
        <time>2017-10-15T07:59:08Z</time>
      </trkpt>
      <trkpt lat="49.07372" lon="2.16997">
        <ele>43.4</ele>
        <time>2017-10-15T07:59:14Z</time>
      </trkpt>
      <trkpt lat="49.07379" lon="2.16993">
        <ele>43</ele>
        <time>2017-10-15T07:59:19Z</time>
      </trkpt>
      <trkpt lat="49.07387" lon="2.16992">
        <ele>44.7</ele>
        <time>2017-10-15T07:59:25Z</time>
      </trkpt>
      <trkpt lat="49.07394" lon="2.16992">
        <ele>46.8</ele>
        <time>2017-10-15T07:59:32Z</time>
      </trkpt>
      <trkpt lat="49.07401" lon="2.16992">
        <ele>44.1</ele>
        <time>2017-10-15T07:59:38Z</time>
      </trkpt>
      <trkpt lat="49.0741" lon="2.16993">
        <ele>40.8</ele>
        <time>2017-10-15T07:59:45Z</time>
      </trkpt>
      <trkpt lat="49.07418" lon="2.16994">
        <ele>33.8</ele>
        <time>2017-10-15T07:59:52Z</time>
      </trkpt>
      <trkpt lat="49.07425" lon="2.16996">
        <ele>31.2</ele>
        <time>2017-10-15T07:59:57Z</time>
      </trkpt>
      <trkpt lat="49.07432" lon="2.16999">
        <ele>33.2</ele>
        <time>2017-10-15T08:00:01Z</time>
      </trkpt>
      <trkpt lat="49.0744" lon="2.17004">
        <ele>33.7</ele>
        <time>2017-10-15T08:00:06Z</time>
      </trkpt>
      <trkpt lat="49.07447" lon="2.17009">
        <ele>35.3</ele>
        <time>2017-10-15T08:00:12Z</time>
      </trkpt>
      <trkpt lat="49.07453" lon="2.17015">
        <ele>37.3</ele>
        <time>2017-10-15T08:00:19Z</time>
      </trkpt>
      <trkpt lat="49.07459" lon="2.17022">
        <ele>39</ele>
        <time>2017-10-15T08:00:26Z</time>
      </trkpt>
      <trkpt lat="49.07465" lon="2.17028">
        <ele>40</ele>
        <time>2017-10-15T08:00:32Z</time>
      </trkpt>
      <trkpt lat="49.07471" lon="2.17035">
        <ele>39.2</ele>
        <time>2017-10-15T08:00:37Z</time>
      </trkpt>
      <trkpt lat="49.07477" lon="2.17043">
        <ele>37.7</ele>
        <time>2017-10-15T08:00:43Z</time>
      </trkpt>
      <trkpt lat="49.07484" lon="2.17049">
        <ele>37.2</ele>
        <time>2017-10-15T08:00:49Z</time>
      </trkpt>
      <trkpt lat="49.07491" lon="2.17055">
        <ele>39.6</ele>
        <time>2017-10-15T08:00:56Z</time>
      </trkpt>
      <trkpt lat="49.07498" lon="2.17062">
        <ele>39.7</ele>
        <time>2017-10-15T08:01:02Z</time>
      </trkpt>
      <trkpt lat="49.07505" lon="2.17067">
        <ele>40.2</ele>
        <time>2017-10-15T08:01:08Z</time>
      </trkpt>
      <trkpt lat="49.07512" lon="2.17072">
        <ele>40.7</ele>
        <time>2017-10-15T08:01:14Z</time>
      </trkpt>
      <trkpt lat="49.07519" lon="2.17076">
        <ele>39.4</ele>
        <time>2017-10-15T08:01:20Z</time>
      </trkpt>
      <trkpt lat="49.07527" lon="2.17079">
        <ele>40.4</ele>
        <time>2017-10-15T08:01:26Z</time>
      </trkpt>
      <trkpt lat="49.07534" lon="2.17083">
        <ele>43.6</ele>
        <time>2017-10-15T08:01:31Z</time>
      </trkpt>
      <trkpt lat="49.07542" lon="2.17083">
        <ele>47</ele>
        <time>2017-10-15T08:01:37Z</time>
      </trkpt>
      <trkpt lat="49.0755" lon="2.17084">
        <ele>48.8</ele>
        <time>2017-10-15T08:01:43Z</time>
      </trkpt>
      <trkpt lat="49.07557" lon="2.17086">
        <ele>51.9</ele>
        <time>2017-10-15T08:01:48Z</time>
      </trkpt>
      <trkpt lat="49.07565" lon="2.1709">
        <ele>51.8</ele>
        <time>2017-10-15T08:01:53Z</time>
      </trkpt>
      <trkpt lat="49.07573" lon="2.17093">
        <ele>51.3</ele>
        <time>2017-10-15T08:02:00Z</time>
      </trkpt>
      <trkpt lat="49.0758" lon="2.17095">
        <ele>51.1</ele>
        <time>2017-10-15T08:02:07Z</time>
      </trkpt>
      <trkpt lat="49.07587" lon="2.17094">
        <ele>51.6</ele>
        <time>2017-10-15T08:02:14Z</time>
      </trkpt>
      <trkpt lat="49.07594" lon="2.17094">
        <ele>48.5</ele>
        <time>2017-10-15T08:02:21Z</time>
      </trkpt>
      <trkpt lat="49.07602" lon="2.17094">
        <ele>46.1</ele>
        <time>2017-10-15T08:02:28Z</time>
      </trkpt>
      <trkpt lat="49.07611" lon="2.17094">
        <ele>44.8</ele>
        <time>2017-10-15T08:02:33Z</time>
      </trkpt>
      <trkpt lat="49.07618" lon="2.17098">
        <ele>44.2</ele>
        <time>2017-10-15T08:02:38Z</time>
      </trkpt>
      <trkpt lat="49.07626" lon="2.17099">
        <ele>42.5</ele>
        <time>2017-10-15T08:02:43Z</time>
      </trkpt>
      <trkpt lat="49.07634" lon="2.17099">
        <ele>41.2</ele>
        <time>2017-10-15T08:02:49Z</time>
      </trkpt>
      <trkpt lat="49.07642" lon="2.17099">
        <ele>41.3</ele>
        <time>2017-10-15T08:02:55Z</time>
      </trkpt>
      <trkpt lat="49.0765" lon="2.17101">
        <ele>40.7</ele>
        <time>2017-10-15T08:03:02Z</time>
      </trkpt>
      <trkpt lat="49.07658" lon="2.17102">
        <ele>42.6</ele>
        <time>2017-10-15T08:03:08Z</time>
      </trkpt>
      <trkpt lat="49.07666" lon="2.17103">
        <ele>45.2</ele>
        <time>2017-10-15T08:03:15Z</time>
      </trkpt>
      <trkpt lat="49.07672" lon="2.17095">
        <ele>45.5</ele>
        <time>2017-10-15T08:03:22Z</time>
      </trkpt>
      <trkpt lat="49.07676" lon="2.17087">
        <ele>48.7</ele>
        <time>2017-10-15T08:03:29Z</time>
      </trkpt>
      <trkpt lat="49.07679" lon="2.17076">
        <ele>49.1</ele>
        <time>2017-10-15T08:03:35Z</time>
      </trkpt>
      <trkpt lat="49.07681" lon="2.17064">
        <ele>50.4</ele>
        <time>2017-10-15T08:03:42Z</time>
      </trkpt>
      <trkpt lat="49.07684" lon="2.17053">
        <ele>52.2</ele>
        <time>2017-10-15T08:03:49Z</time>
      </trkpt>
      <trkpt lat="49.07684" lon="2.17042">
        <ele>53.8</ele>
        <time>2017-10-15T08:03:56Z</time>
      </trkpt>
      <trkpt lat="49.07684" lon="2.17029">
        <ele>55</ele>
        <time>2017-10-15T08:04:03Z</time>
      </trkpt>
      <trkpt lat="49.07687" lon="2.17018">
        <ele>55.9</ele>
        <time>2017-10-15T08:04:09Z</time>
      </trkpt>
      <trkpt lat="49.07688" lon="2.17007">
        <ele>55.8</ele>
        <time>2017-10-15T08:04:15Z</time>
      </trkpt>
      <trkpt lat="49.07691" lon="2.16996">
        <ele>59.2</ele>
        <time>2017-10-15T08:04:22Z</time>
      </trkpt>
      <trkpt lat="49.07692" lon="2.16986">
        <ele>60</ele>
        <time>2017-10-15T08:04:29Z</time>
      </trkpt>
      <trkpt lat="49.07693" lon="2.16973">
        <ele>60.7</ele>
        <time>2017-10-15T08:04:36Z</time>
      </trkpt>
      <trkpt lat="49.07694" lon="2.16961">
        <ele>59.2</ele>
        <time>2017-10-15T08:04:42Z</time>
      </trkpt>
      <trkpt lat="49.07695" lon="2.16948">
        <ele>58.6</ele>
        <time>2017-10-15T08:04:48Z</time>
      </trkpt>
      <trkpt lat="49.07697" lon="2.16936">
        <ele>60.3</ele>
        <time>2017-10-15T08:04:54Z</time>
      </trkpt>
      <trkpt lat="49.07697" lon="2.16924">
        <ele>60.2</ele>
        <time>2017-10-15T08:04:59Z</time>
      </trkpt>
      <trkpt lat="49.07696" lon="2.16912">
        <ele>59.3</ele>
        <time>2017-10-15T08:05:04Z</time>
      </trkpt>
      <trkpt lat="49.07693" lon="2.16903">
        <ele>60.3</ele>
        <time>2017-10-15T08:05:11Z</time>
      </trkpt>
      <trkpt lat="49.07691" lon="2.16891">
        <ele>62.7</ele>
        <time>2017-10-15T08:05:18Z</time>
      </trkpt>
      <trkpt lat="49.07691" lon="2.16879">
        <ele>61.3</ele>
        <time>2017-10-15T08:05:24Z</time>
      </trkpt>
      <trkpt lat="49.07692" lon="2.16866">
        <ele>58.8</ele>
        <time>2017-10-15T08:05:30Z</time>
      </trkpt>
      <trkpt lat="49.07692" lon="2.16854">
        <ele>58.5</ele>
        <time>2017-10-15T08:05:36Z</time>
      </trkpt>
      <trkpt lat="49.07693" lon="2.16843">
        <ele>58.1</ele>
        <time>2017-10-15T08:05:42Z</time>
      </trkpt>
      <trkpt lat="49.07695" lon="2.16832">
        <ele>59.2</ele>
        <time>2017-10-15T08:05:49Z</time>
      </trkpt>
      <trkpt lat="49.07695" lon="2.16823">
        <ele>58</ele>
        <time>2017-10-15T08:05:56Z</time>
      </trkpt>
      <trkpt lat="49.07696" lon="2.16814">
        <ele>57.6</ele>
        <time>2017-10-15T08:06:03Z</time>
      </trkpt>
      <trkpt lat="49.07698" lon="2.16801">
        <ele>57.6</ele>
        <time>2017-10-15T08:06:10Z</time>
      </trkpt>
      <trkpt lat="49.07699" lon="2.16789">
        <ele>57.1</ele>
        <time>2017-10-15T08:06:16Z</time>
      </trkpt>
      <trkpt lat="49.07701" lon="2.16777">
        <ele>58.4</ele>
        <time>2017-10-15T08:06:23Z</time>
      </trkpt>
      <trkpt lat="49.077" lon="2.16768">
        <ele>59.8</ele>
        <time>2017-10-15T08:06:30Z</time>
      </trkpt>
      <trkpt lat="49.077" lon="2.16759">
        <ele>61.4</ele>
        <time>2017-10-15T08:06:37Z</time>
      </trkpt>
      <trkpt lat="49.07703" lon="2.1675">
        <ele>62.6</ele>
        <time>2017-10-15T08:06:44Z</time>
      </trkpt>
      <trkpt lat="49.07704" lon="2.1674">
        <ele>64.4</ele>
        <time>2017-10-15T08:06:51Z</time>
      </trkpt>
      <trkpt lat="49.07707" lon="2.16727">
        <ele>62.6</ele>
        <time>2017-10-15T08:06:58Z</time>
      </trkpt>
      <trkpt lat="49.0771" lon="2.16715">
        <ele>62.4</ele>
        <time>2017-10-15T08:07:05Z</time>
      </trkpt>
      <trkpt lat="49.07714" lon="2.16707">
        <ele>65.2</ele>
        <time>2017-10-15T08:07:12Z</time>
      </trkpt>
      <trkpt lat="49.07719" lon="2.16697">
        <ele>69.1</ele>
        <time>2017-10-15T08:07:19Z</time>
      </trkpt>
      <trkpt lat="49.07724" lon="2.16689">
        <ele>70.7</ele>
        <time>2017-10-15T08:07:24Z</time>
      </trkpt>
      <trkpt lat="49.07729" lon="2.16681">
        <ele>72.1</ele>
        <time>2017-10-15T08:07:30Z</time>
      </trkpt>
      <trkpt lat="49.07735" lon="2.16673">
        <ele>72.3</ele>
        <time>2017-10-15T08:07:37Z</time>
      </trkpt>
      <trkpt lat="49.0774" lon="2.16665">
        <ele>70.8</ele>
        <time>2017-10-15T08:07:43Z</time>
      </trkpt>
      <trkpt lat="49.07746" lon="2.16657">
        <ele>71.7</ele>
        <time>2017-10-15T08:07:50Z</time>
      </trkpt>
      <trkpt lat="49.07752" lon="2.1665">
        <ele>72.1</ele>
        <time>2017-10-15T08:07:56Z</time>
      </trkpt>
      <trkpt lat="49.07759" lon="2.16645">
        <ele>71.9</ele>
        <time>2017-10-15T08:08:03Z</time>
      </trkpt>
      <trkpt lat="49.07763" lon="2.16635">
        <ele>68.8</ele>
        <time>2017-10-15T08:08:09Z</time>
      </trkpt>
      <trkpt lat="49.07768" lon="2.16626">
        <ele>67.5</ele>
        <time>2017-10-15T08:08:16Z</time>
      </trkpt>
      <trkpt lat="49.07772" lon="2.16617">
        <ele>67.7</ele>
        <time>2017-10-15T08:08:23Z</time>
      </trkpt>
      <trkpt lat="49.07775" lon="2.16612">
        <ele>66.6</ele>
        <time>2017-10-15T08:08:30Z</time>
      </trkpt>
      <trkpt lat="49.07777" lon="2.16613">
        <ele>66.6</ele>
        <time>2017-10-15T08:08:37Z</time>
      </trkpt>
      <trkpt lat="49.07781" lon="2.16604">
        <ele>68.2</ele>
        <time>2017-10-15T08:09:23Z</time>
      </trkpt>
      <trkpt lat="49.07786" lon="2.16599">
        <ele>69.2</ele>
        <time>2017-10-15T08:09:30Z</time>
      </trkpt>
      <trkpt lat="49.07788" lon="2.16605">
        <ele>73.2</ele>
        <time>2017-10-15T08:12:21Z</time>
      </trkpt>
      <trkpt lat="49.07795" lon="2.16607">
        <ele>73.3</ele>
        <time>2017-10-15T08:11:56Z</time>
      </trkpt>
      <trkpt lat="49.07795" lon="2.16607">
        <ele>72.1</ele>
        <time>2017-10-15T08:13:08Z</time>
      </trkpt>
      <trkpt lat="49.07801" lon="2.166">
        <ele>75.8</ele>
        <time>2017-10-15T08:14:49Z</time>
      </trkpt>
      <trkpt lat="49.07802" lon="2.16595">
        <ele>75.7</ele>
        <time>2017-10-15T08:14:56Z</time>
      </trkpt>
      <trkpt lat="49.07808" lon="2.16591">
        <ele>74.4</ele>
        <time>2017-10-15T08:15:03Z</time>
      </trkpt>
      <trkpt lat="49.07814" lon="2.16588">
        <ele>72.5</ele>
        <time>2017-10-15T08:15:10Z</time>
      </trkpt>
      <trkpt lat="49.07819" lon="2.16583">
        <ele>69.4</ele>
        <time>2017-10-15T08:15:17Z</time>
      </trkpt>
      <trkpt lat="49.07825" lon="2.16577">
        <ele>68.1</ele>
        <time>2017-10-15T08:15:24Z</time>
      </trkpt>
      <trkpt lat="49.0783" lon="2.16571">
        <ele>67.9</ele>
        <time>2017-10-15T08:15:31Z</time>
      </trkpt>
      <trkpt lat="49.07835" lon="2.16564">
        <ele>65.9</ele>
        <time>2017-10-15T08:15:38Z</time>
      </trkpt>
      <trkpt lat="49.07841" lon="2.16557">
        <ele>65.6</ele>
        <time>2017-10-15T08:15:44Z</time>
      </trkpt>
      <trkpt lat="49.07848" lon="2.1655">
        <ele>65.3</ele>
        <time>2017-10-15T08:15:51Z</time>
      </trkpt>
      <trkpt lat="49.07854" lon="2.16545">
        <ele>64.4</ele>
        <time>2017-10-15T08:15:58Z</time>
      </trkpt>
      <trkpt lat="49.07861" lon="2.16538">
        <ele>62.6</ele>
        <time>2017-10-15T08:16:05Z</time>
      </trkpt>
      <trkpt lat="49.07867" lon="2.16532">
        <ele>61.4</ele>
        <time>2017-10-15T08:16:12Z</time>
      </trkpt>
      <trkpt lat="49.07873" lon="2.16523">
        <ele>62.2</ele>
        <time>2017-10-15T08:16:18Z</time>
      </trkpt>
      <trkpt lat="49.0788" lon="2.16517">
        <ele>62.2</ele>
        <time>2017-10-15T08:16:25Z</time>
      </trkpt>
      <trkpt lat="49.07887" lon="2.16511">
        <ele>61</ele>
        <time>2017-10-15T08:16:31Z</time>
      </trkpt>
      <trkpt lat="49.07893" lon="2.16505">
        <ele>61.3</ele>
        <time>2017-10-15T08:16:37Z</time>
      </trkpt>
      <trkpt lat="49.079" lon="2.165">
        <ele>62.7</ele>
        <time>2017-10-15T08:16:43Z</time>
      </trkpt>
      <trkpt lat="49.07907" lon="2.16493">
        <ele>64.3</ele>
        <time>2017-10-15T08:16:49Z</time>
      </trkpt>
      <trkpt lat="49.07914" lon="2.16485">
        <ele>64.7</ele>
        <time>2017-10-15T08:16:56Z</time>
      </trkpt>
      <trkpt lat="49.07921" lon="2.16479">
        <ele>67.1</ele>
        <time>2017-10-15T08:17:02Z</time>
      </trkpt>
      <trkpt lat="49.07928" lon="2.16473">
        <ele>67.3</ele>
        <time>2017-10-15T08:17:09Z</time>
      </trkpt>
      <trkpt lat="49.07936" lon="2.16469">
        <ele>68.6</ele>
        <time>2017-10-15T08:17:15Z</time>
      </trkpt>
      <trkpt lat="49.07943" lon="2.16465">
        <ele>69.5</ele>
        <time>2017-10-15T08:17:21Z</time>
      </trkpt>
      <trkpt lat="49.0795" lon="2.1646">
        <ele>69.7</ele>
        <time>2017-10-15T08:17:27Z</time>
      </trkpt>
      <trkpt lat="49.07958" lon="2.16454">
        <ele>68.6</ele>
        <time>2017-10-15T08:17:34Z</time>
      </trkpt>
      <trkpt lat="49.07965" lon="2.16448">
        <ele>69.5</ele>
        <time>2017-10-15T08:17:40Z</time>
      </trkpt>
      <trkpt lat="49.0797" lon="2.1644">
        <ele>66.1</ele>
        <time>2017-10-15T08:17:47Z</time>
      </trkpt>
      <trkpt lat="49.07976" lon="2.16432">
        <ele>64.5</ele>
        <time>2017-10-15T08:17:54Z</time>
      </trkpt>
      <trkpt lat="49.07983" lon="2.16426">
        <ele>63.9</ele>
        <time>2017-10-15T08:18:00Z</time>
      </trkpt>
      <trkpt lat="49.0799" lon="2.16419">
        <ele>65.7</ele>
        <time>2017-10-15T08:18:07Z</time>
      </trkpt>
      <trkpt lat="49.07996" lon="2.16413">
        <ele>67.7</ele>
        <time>2017-10-15T08:18:14Z</time>
      </trkpt>
      <trkpt lat="49.08003" lon="2.16409">
        <ele>68.7</ele>
        <time>2017-10-15T08:18:21Z</time>
      </trkpt>
      <trkpt lat="49.08011" lon="2.16407">
        <ele>70.7</ele>
        <time>2017-10-15T08:18:28Z</time>
      </trkpt>
      <trkpt lat="49.08018" lon="2.16406">
        <ele>71.8</ele>
        <time>2017-10-15T08:18:34Z</time>
      </trkpt>
      <trkpt lat="49.08026" lon="2.16401">
        <ele>72</ele>
        <time>2017-10-15T08:18:40Z</time>
      </trkpt>
      <trkpt lat="49.08032" lon="2.16394">
        <ele>68.2</ele>
        <time>2017-10-15T08:18:46Z</time>
      </trkpt>
      <trkpt lat="49.0804" lon="2.16389">
        <ele>68.6</ele>
        <time>2017-10-15T08:18:51Z</time>
      </trkpt>
      <trkpt lat="49.08047" lon="2.16383">
        <ele>65.3</ele>
        <time>2017-10-15T08:18:58Z</time>
      </trkpt>
      <trkpt lat="49.08052" lon="2.16376">
        <ele>64.4</ele>
        <time>2017-10-15T08:19:05Z</time>
      </trkpt>
      <trkpt lat="49.08059" lon="2.16372">
        <ele>64.6</ele>
        <time>2017-10-15T08:19:12Z</time>
      </trkpt>
      <trkpt lat="49.08065" lon="2.16365">
        <ele>63.9</ele>
        <time>2017-10-15T08:19:18Z</time>
      </trkpt>
      <trkpt lat="49.08071" lon="2.16359">
        <ele>64.1</ele>
        <time>2017-10-15T08:19:24Z</time>
      </trkpt>
      <trkpt lat="49.08076" lon="2.16354">
        <ele>62.7</ele>
        <time>2017-10-15T08:19:31Z</time>
      </trkpt>
      <trkpt lat="49.08083" lon="2.16349">
        <ele>60.7</ele>
        <time>2017-10-15T08:19:38Z</time>
      </trkpt>
      <trkpt lat="49.0809" lon="2.16343">
        <ele>59.7</ele>
        <time>2017-10-15T08:19:45Z</time>
      </trkpt>
      <trkpt lat="49.08097" lon="2.16338">
        <ele>60.4</ele>
        <time>2017-10-15T08:19:51Z</time>
      </trkpt>
      <trkpt lat="49.08104" lon="2.16333">
        <ele>61.6</ele>
        <time>2017-10-15T08:19:58Z</time>
      </trkpt>
      <trkpt lat="49.08112" lon="2.16326">
        <ele>60.4</ele>
        <time>2017-10-15T08:20:05Z</time>
      </trkpt>
      <trkpt lat="49.08118" lon="2.16321">
        <ele>61</ele>
        <time>2017-10-15T08:20:11Z</time>
      </trkpt>
      <trkpt lat="49.08125" lon="2.16315">
        <ele>62.4</ele>
        <time>2017-10-15T08:20:17Z</time>
      </trkpt>
      <trkpt lat="49.08131" lon="2.16312">
        <ele>63.1</ele>
        <time>2017-10-15T08:20:24Z</time>
      </trkpt>
      <trkpt lat="49.08139" lon="2.16307">
        <ele>65.7</ele>
        <time>2017-10-15T08:20:31Z</time>
      </trkpt>
      <trkpt lat="49.08146" lon="2.16301">
        <ele>66.8</ele>
        <time>2017-10-15T08:20:37Z</time>
      </trkpt>
      <trkpt lat="49.08152" lon="2.16295">
        <ele>67.2</ele>
        <time>2017-10-15T08:20:43Z</time>
      </trkpt>
      <trkpt lat="49.08159" lon="2.1629">
        <ele>67.4</ele>
        <time>2017-10-15T08:20:49Z</time>
      </trkpt>
      <trkpt lat="49.08166" lon="2.16284">
        <ele>67.4</ele>
        <time>2017-10-15T08:20:56Z</time>
      </trkpt>
      <trkpt lat="49.08173" lon="2.16277">
        <ele>67.6</ele>
        <time>2017-10-15T08:21:02Z</time>
      </trkpt>
      <trkpt lat="49.08179" lon="2.1627">
        <ele>67.3</ele>
        <time>2017-10-15T08:21:09Z</time>
      </trkpt>
      <trkpt lat="49.08185" lon="2.16263">
        <ele>67.1</ele>
        <time>2017-10-15T08:21:16Z</time>
      </trkpt>
      <trkpt lat="49.08192" lon="2.16257">
        <ele>65.2</ele>
        <time>2017-10-15T08:21:23Z</time>
      </trkpt>
      <trkpt lat="49.08199" lon="2.16254">
        <ele>66.2</ele>
        <time>2017-10-15T08:21:29Z</time>
      </trkpt>
      <trkpt lat="49.08206" lon="2.16248">
        <ele>66.4</ele>
        <time>2017-10-15T08:21:36Z</time>
      </trkpt>
      <trkpt lat="49.08214" lon="2.16243">
        <ele>66.7</ele>
        <time>2017-10-15T08:21:42Z</time>
      </trkpt>
      <trkpt lat="49.08221" lon="2.16237">
        <ele>65.9</ele>
        <time>2017-10-15T08:21:49Z</time>
      </trkpt>
      <trkpt lat="49.08228" lon="2.16232">
        <ele>67.4</ele>
        <time>2017-10-15T08:21:56Z</time>
      </trkpt>
      <trkpt lat="49.08235" lon="2.16228">
        <ele>70.4</ele>
        <time>2017-10-15T08:22:02Z</time>
      </trkpt>
      <trkpt lat="49.08243" lon="2.16224">
        <ele>69.9</ele>
        <time>2017-10-15T08:22:09Z</time>
      </trkpt>
      <trkpt lat="49.08251" lon="2.16219">
        <ele>71.3</ele>
        <time>2017-10-15T08:22:15Z</time>
      </trkpt>
      <trkpt lat="49.08258" lon="2.16214">
        <ele>70.9</ele>
        <time>2017-10-15T08:22:22Z</time>
      </trkpt>
      <trkpt lat="49.08265" lon="2.16211">
        <ele>71.5</ele>
        <time>2017-10-15T08:22:28Z</time>
      </trkpt>
      <trkpt lat="49.08272" lon="2.16207">
        <ele>72.2</ele>
        <time>2017-10-15T08:22:35Z</time>
      </trkpt>
      <trkpt lat="49.0828" lon="2.16204">
        <ele>73.4</ele>
        <time>2017-10-15T08:22:41Z</time>
      </trkpt>
      <trkpt lat="49.08286" lon="2.16195">
        <ele>71.6</ele>
        <time>2017-10-15T08:22:48Z</time>
      </trkpt>
      <trkpt lat="49.08286" lon="2.16183">
        <ele>74.1</ele>
        <time>2017-10-15T08:22:54Z</time>
      </trkpt>
      <trkpt lat="49.08284" lon="2.16172">
        <ele>75.6</ele>
        <time>2017-10-15T08:23:00Z</time>
      </trkpt>
      <trkpt lat="49.08281" lon="2.16161">
        <ele>75.2</ele>
        <time>2017-10-15T08:23:07Z</time>
      </trkpt>
      <trkpt lat="49.08278" lon="2.1615">
        <ele>75.6</ele>
        <time>2017-10-15T08:23:14Z</time>
      </trkpt>
      <trkpt lat="49.08273" lon="2.1614">
        <ele>77.4</ele>
        <time>2017-10-15T08:23:21Z</time>
      </trkpt>
      <trkpt lat="49.08269" lon="2.1613">
        <ele>77.2</ele>
        <time>2017-10-15T08:23:28Z</time>
      </trkpt>
      <trkpt lat="49.08264" lon="2.16121">
        <ele>77</ele>
        <time>2017-10-15T08:23:33Z</time>
      </trkpt>
      <trkpt lat="49.0826" lon="2.1611">
        <ele>77.6</ele>
        <time>2017-10-15T08:23:40Z</time>
      </trkpt>
      <trkpt lat="49.08256" lon="2.16101">
        <ele>80.3</ele>
        <time>2017-10-15T08:23:47Z</time>
      </trkpt>
      <trkpt lat="49.08252" lon="2.16092">
        <ele>80</ele>
        <time>2017-10-15T08:23:53Z</time>
      </trkpt>
      <trkpt lat="49.08248" lon="2.16082">
        <ele>80.6</ele>
        <time>2017-10-15T08:24:00Z</time>
      </trkpt>
      <trkpt lat="49.08244" lon="2.16071">
        <ele>81.4</ele>
        <time>2017-10-15T08:24:07Z</time>
      </trkpt>
      <trkpt lat="49.08239" lon="2.16063">
        <ele>82</ele>
        <time>2017-10-15T08:24:13Z</time>
      </trkpt>
      <trkpt lat="49.08236" lon="2.16052">
        <ele>83.7</ele>
        <time>2017-10-15T08:24:20Z</time>
      </trkpt>
      <trkpt lat="49.08232" lon="2.16041">
        <ele>85.6</ele>
        <time>2017-10-15T08:24:27Z</time>
      </trkpt>
      <trkpt lat="49.08227" lon="2.16032">
        <ele>85.1</ele>
        <time>2017-10-15T08:24:33Z</time>
      </trkpt>
      <trkpt lat="49.08223" lon="2.16024">
        <ele>84.8</ele>
        <time>2017-10-15T08:24:39Z</time>
      </trkpt>
      <trkpt lat="49.08218" lon="2.16014">
        <ele>84.7</ele>
        <time>2017-10-15T08:24:46Z</time>
      </trkpt>
      <trkpt lat="49.08211" lon="2.16005">
        <ele>83.3</ele>
        <time>2017-10-15T08:24:52Z</time>
      </trkpt>
      <trkpt lat="49.08209" lon="2.15995">
        <ele>83.8</ele>
        <time>2017-10-15T08:24:58Z</time>
      </trkpt>
      <trkpt lat="49.08203" lon="2.15986">
        <ele>83.6</ele>
        <time>2017-10-15T08:25:04Z</time>
      </trkpt>
      <trkpt lat="49.08199" lon="2.15976">
        <ele>84.3</ele>
        <time>2017-10-15T08:25:11Z</time>
      </trkpt>
      <trkpt lat="49.08195" lon="2.15967">
        <ele>84.2</ele>
        <time>2017-10-15T08:25:17Z</time>
      </trkpt>
      <trkpt lat="49.08189" lon="2.15958">
        <ele>84</ele>
        <time>2017-10-15T08:25:23Z</time>
      </trkpt>
      <trkpt lat="49.08186" lon="2.15947">
        <ele>83.7</ele>
        <time>2017-10-15T08:25:30Z</time>
      </trkpt>
      <trkpt lat="49.08184" lon="2.15936">
        <ele>82.7</ele>
        <time>2017-10-15T08:25:36Z</time>
      </trkpt>
      <trkpt lat="49.08189" lon="2.15929">
        <ele>79.5</ele>
        <time>2017-10-15T08:25:43Z</time>
      </trkpt>
      <trkpt lat="49.08194" lon="2.15928">
        <ele>81.2</ele>
        <time>2017-10-15T08:27:57Z</time>
      </trkpt>
      <trkpt lat="49.08196" lon="2.15929">
        <ele>80.6</ele>
        <time>2017-10-15T08:28:04Z</time>
      </trkpt>
      <trkpt lat="49.08202" lon="2.15932">
        <ele>81.3</ele>
        <time>2017-10-15T08:28:11Z</time>
      </trkpt>
      <trkpt lat="49.08209" lon="2.15932">
        <ele>81.4</ele>
        <time>2017-10-15T08:28:18Z</time>
      </trkpt>
      <trkpt lat="49.08217" lon="2.15933">
        <ele>83.2</ele>
        <time>2017-10-15T08:28:24Z</time>
      </trkpt>
      <trkpt lat="49.08224" lon="2.15934">
        <ele>84.7</ele>
        <time>2017-10-15T08:28:31Z</time>
      </trkpt>
      <trkpt lat="49.08233" lon="2.15935">
        <ele>85.1</ele>
        <time>2017-10-15T08:28:37Z</time>
      </trkpt>
      <trkpt lat="49.0824" lon="2.15937">
        <ele>85.1</ele>
        <time>2017-10-15T08:28:44Z</time>
      </trkpt>
      <trkpt lat="49.08248" lon="2.1594">
        <ele>85</ele>
        <time>2017-10-15T08:28:50Z</time>
      </trkpt>
      <trkpt lat="49.08256" lon="2.15941">
        <ele>84.7</ele>
        <time>2017-10-15T08:28:56Z</time>
      </trkpt>
      <trkpt lat="49.08264" lon="2.15942">
        <ele>83.4</ele>
        <time>2017-10-15T08:29:03Z</time>
      </trkpt>
      <trkpt lat="49.08271" lon="2.15943">
        <ele>83.6</ele>
        <time>2017-10-15T08:29:09Z</time>
      </trkpt>
      <trkpt lat="49.08279" lon="2.15944">
        <ele>82.4</ele>
        <time>2017-10-15T08:29:16Z</time>
      </trkpt>
      <trkpt lat="49.08287" lon="2.15943">
        <ele>83.9</ele>
        <time>2017-10-15T08:29:22Z</time>
      </trkpt>
      <trkpt lat="49.08295" lon="2.15942">
        <ele>82.1</ele>
        <time>2017-10-15T08:29:29Z</time>
      </trkpt>
      <trkpt lat="49.08303" lon="2.15941">
        <ele>83.2</ele>
        <time>2017-10-15T08:29:34Z</time>
      </trkpt>
      <trkpt lat="49.0831" lon="2.15939">
        <ele>82.9</ele>
        <time>2017-10-15T08:29:40Z</time>
      </trkpt>
      <trkpt lat="49.08318" lon="2.15937">
        <ele>81.9</ele>
        <time>2017-10-15T08:29:46Z</time>
      </trkpt>
      <trkpt lat="49.08326" lon="2.15935">
        <ele>81.7</ele>
        <time>2017-10-15T08:29:52Z</time>
      </trkpt>
      <trkpt lat="49.08334" lon="2.15932">
        <ele>80.3</ele>
        <time>2017-10-15T08:29:59Z</time>
      </trkpt>
      <trkpt lat="49.08342" lon="2.1593">
        <ele>79.8</ele>
        <time>2017-10-15T08:30:05Z</time>
      </trkpt>
      <trkpt lat="49.08348" lon="2.15925">
        <ele>78.4</ele>
        <time>2017-10-15T08:30:11Z</time>
      </trkpt>
      <trkpt lat="49.08355" lon="2.15923">
        <ele>77.9</ele>
        <time>2017-10-15T08:30:17Z</time>
      </trkpt>
      <trkpt lat="49.08364" lon="2.15923">
        <ele>80</ele>
        <time>2017-10-15T08:30:23Z</time>
      </trkpt>
      <trkpt lat="49.08371" lon="2.1592">
        <ele>79.6</ele>
        <time>2017-10-15T08:30:29Z</time>
      </trkpt>
      <trkpt lat="49.08378" lon="2.15917">
        <ele>79.4</ele>
        <time>2017-10-15T08:30:34Z</time>
      </trkpt>
      <trkpt lat="49.08385" lon="2.15915">
        <ele>78.2</ele>
        <time>2017-10-15T08:30:40Z</time>
      </trkpt>
      <trkpt lat="49.08393" lon="2.15912">
        <ele>79.6</ele>
        <time>2017-10-15T08:30:46Z</time>
      </trkpt>
      <trkpt lat="49.084" lon="2.15909">
        <ele>78.3</ele>
        <time>2017-10-15T08:30:53Z</time>
      </trkpt>
      <trkpt lat="49.08408" lon="2.15907">
        <ele>79.4</ele>
        <time>2017-10-15T08:30:59Z</time>
      </trkpt>
      <trkpt lat="49.08416" lon="2.15902">
        <ele>80.1</ele>
        <time>2017-10-15T08:31:06Z</time>
      </trkpt>
      <trkpt lat="49.08424" lon="2.15898">
        <ele>79.2</ele>
        <time>2017-10-15T08:31:13Z</time>
      </trkpt>
      <trkpt lat="49.08431" lon="2.15896">
        <ele>79.5</ele>
        <time>2017-10-15T08:31:20Z</time>
      </trkpt>
      <trkpt lat="49.0844" lon="2.15895">
        <ele>80.5</ele>
        <time>2017-10-15T08:31:26Z</time>
      </trkpt>
      <trkpt lat="49.08447" lon="2.15893">
        <ele>80.7</ele>
        <time>2017-10-15T08:31:32Z</time>
      </trkpt>
      <trkpt lat="49.08455" lon="2.15892">
        <ele>81</ele>
        <time>2017-10-15T08:31:38Z</time>
      </trkpt>
      <trkpt lat="49.08463" lon="2.15889">
        <ele>79.8</ele>
        <time>2017-10-15T08:31:45Z</time>
      </trkpt>
      <trkpt lat="49.0847" lon="2.15887">
        <ele>80.5</ele>
        <time>2017-10-15T08:31:52Z</time>
      </trkpt>
      <trkpt lat="49.08478" lon="2.15885">
        <ele>81.1</ele>
        <time>2017-10-15T08:31:58Z</time>
      </trkpt>
      <trkpt lat="49.08485" lon="2.15882">
        <ele>79.1</ele>
        <time>2017-10-15T08:32:05Z</time>
      </trkpt>
      <trkpt lat="49.08493" lon="2.15878">
        <ele>79.5</ele>
        <time>2017-10-15T08:32:12Z</time>
      </trkpt>
      <trkpt lat="49.08501" lon="2.15876">
        <ele>81.2</ele>
        <time>2017-10-15T08:32:18Z</time>
      </trkpt>
      <trkpt lat="49.08508" lon="2.15874">
        <ele>81.6</ele>
        <time>2017-10-15T08:32:25Z</time>
      </trkpt>
      <trkpt lat="49.08516" lon="2.15874">
        <ele>81.2</ele>
        <time>2017-10-15T08:32:31Z</time>
      </trkpt>
      <trkpt lat="49.08524" lon="2.15873">
        <ele>82.3</ele>
        <time>2017-10-15T08:32:38Z</time>
      </trkpt>
      <trkpt lat="49.08532" lon="2.15871">
        <ele>82.1</ele>
        <time>2017-10-15T08:32:45Z</time>
      </trkpt>
      <trkpt lat="49.08539" lon="2.1587">
        <ele>81.7</ele>
        <time>2017-10-15T08:32:52Z</time>
      </trkpt>
      <trkpt lat="49.08547" lon="2.15869">
        <ele>83.1</ele>
        <time>2017-10-15T08:32:58Z</time>
      </trkpt>
      <trkpt lat="49.08555" lon="2.15867">
        <ele>83.3</ele>
        <time>2017-10-15T08:33:05Z</time>
      </trkpt>
      <trkpt lat="49.08563" lon="2.15866">
        <ele>83.8</ele>
        <time>2017-10-15T08:33:12Z</time>
      </trkpt>
      <trkpt lat="49.0857" lon="2.15864">
        <ele>84.4</ele>
        <time>2017-10-15T08:33:18Z</time>
      </trkpt>
      <trkpt lat="49.08577" lon="2.15866">
        <ele>83.5</ele>
        <time>2017-10-15T08:33:25Z</time>
      </trkpt>
      <trkpt lat="49.08585" lon="2.15867">
        <ele>83</ele>
        <time>2017-10-15T08:33:31Z</time>
      </trkpt>
      <trkpt lat="49.08592" lon="2.15868">
        <ele>84.1</ele>
        <time>2017-10-15T08:33:37Z</time>
      </trkpt>
      <trkpt lat="49.086" lon="2.1587">
        <ele>83.6</ele>
        <time>2017-10-15T08:33:44Z</time>
      </trkpt>
      <trkpt lat="49.08607" lon="2.1587">
        <ele>84.2</ele>
        <time>2017-10-15T08:33:50Z</time>
      </trkpt>
      <trkpt lat="49.08614" lon="2.15871">
        <ele>84</ele>
        <time>2017-10-15T08:33:56Z</time>
      </trkpt>
      <trkpt lat="49.08622" lon="2.1587">
        <ele>84.5</ele>
        <time>2017-10-15T08:34:02Z</time>
      </trkpt>
      <trkpt lat="49.0863" lon="2.15869">
        <ele>82.1</ele>
        <time>2017-10-15T08:34:09Z</time>
      </trkpt>
      <trkpt lat="49.08638" lon="2.15867">
        <ele>82.6</ele>
        <time>2017-10-15T08:34:15Z</time>
      </trkpt>
      <trkpt lat="49.08646" lon="2.15866">
        <ele>82</ele>
        <time>2017-10-15T08:34:21Z</time>
      </trkpt>
      <trkpt lat="49.08654" lon="2.15865">
        <ele>83.1</ele>
        <time>2017-10-15T08:34:27Z</time>
      </trkpt>
      <trkpt lat="49.08662" lon="2.15863">
        <ele>83.1</ele>
        <time>2017-10-15T08:34:33Z</time>
      </trkpt>
      <trkpt lat="49.08669" lon="2.15862">
        <ele>81.6</ele>
        <time>2017-10-15T08:34:39Z</time>
      </trkpt>
      <trkpt lat="49.08677" lon="2.15861">
        <ele>82.4</ele>
        <time>2017-10-15T08:34:45Z</time>
      </trkpt>
      <trkpt lat="49.08686" lon="2.1586">
        <ele>83.3</ele>
        <time>2017-10-15T08:34:52Z</time>
      </trkpt>
      <trkpt lat="49.08694" lon="2.15861">
        <ele>83.5</ele>
        <time>2017-10-15T08:34:59Z</time>
      </trkpt>
      <trkpt lat="49.08702" lon="2.15862">
        <ele>82.9</ele>
        <time>2017-10-15T08:35:05Z</time>
      </trkpt>
      <trkpt lat="49.0871" lon="2.15862">
        <ele>82.8</ele>
        <time>2017-10-15T08:35:12Z</time>
      </trkpt>
      <trkpt lat="49.08718" lon="2.15863">
        <ele>81.7</ele>
        <time>2017-10-15T08:35:19Z</time>
      </trkpt>
      <trkpt lat="49.08726" lon="2.15864">
        <ele>80.5</ele>
        <time>2017-10-15T08:35:24Z</time>
      </trkpt>
      <trkpt lat="49.08733" lon="2.15865">
        <ele>79.7</ele>
        <time>2017-10-15T08:35:31Z</time>
      </trkpt>
      <trkpt lat="49.08741" lon="2.15865">
        <ele>81.5</ele>
        <time>2017-10-15T08:35:37Z</time>
      </trkpt>
      <trkpt lat="49.08749" lon="2.15867">
        <ele>81.5</ele>
        <time>2017-10-15T08:35:43Z</time>
      </trkpt>
      <trkpt lat="49.08756" lon="2.15869">
        <ele>81.5</ele>
        <time>2017-10-15T08:35:50Z</time>
      </trkpt>
      <trkpt lat="49.08764" lon="2.15872">
        <ele>81.8</ele>
        <time>2017-10-15T08:35:56Z</time>
      </trkpt>
      <trkpt lat="49.08771" lon="2.15874">
        <ele>83.9</ele>
        <time>2017-10-15T08:36:03Z</time>
      </trkpt>
      <trkpt lat="49.08779" lon="2.15876">
        <ele>86</ele>
        <time>2017-10-15T08:36:10Z</time>
      </trkpt>
      <trkpt lat="49.08786" lon="2.15878">
        <ele>86.4</ele>
        <time>2017-10-15T08:36:16Z</time>
      </trkpt>
      <trkpt lat="49.08794" lon="2.15876">
        <ele>88.1</ele>
        <time>2017-10-15T08:36:22Z</time>
      </trkpt>
      <trkpt lat="49.08802" lon="2.15871">
        <ele>85.5</ele>
        <time>2017-10-15T08:36:28Z</time>
      </trkpt>
      <trkpt lat="49.08809" lon="2.15869">
        <ele>84.5</ele>
        <time>2017-10-15T08:36:34Z</time>
      </trkpt>
      <trkpt lat="49.08818" lon="2.15867">
        <ele>84.1</ele>
        <time>2017-10-15T08:36:40Z</time>
      </trkpt>
      <trkpt lat="49.08824" lon="2.15861">
        <ele>83.8</ele>
        <time>2017-10-15T08:36:46Z</time>
      </trkpt>
      <trkpt lat="49.08831" lon="2.15854">
        <ele>83.4</ele>
        <time>2017-10-15T08:36:53Z</time>
      </trkpt>
      <trkpt lat="49.08838" lon="2.15847">
        <ele>82.9</ele>
        <time>2017-10-15T08:37:00Z</time>
      </trkpt>
      <trkpt lat="49.08844" lon="2.1584">
        <ele>81</ele>
        <time>2017-10-15T08:37:06Z</time>
      </trkpt>
      <trkpt lat="49.0885" lon="2.15833">
        <ele>80.2</ele>
        <time>2017-10-15T08:37:12Z</time>
      </trkpt>
      <trkpt lat="49.08856" lon="2.15825">
        <ele>80.1</ele>
        <time>2017-10-15T08:37:19Z</time>
      </trkpt>
      <trkpt lat="49.08863" lon="2.15817">
        <ele>79.9</ele>
        <time>2017-10-15T08:37:25Z</time>
      </trkpt>
      <trkpt lat="49.08869" lon="2.15812">
        <ele>80.5</ele>
        <time>2017-10-15T08:37:32Z</time>
      </trkpt>
      <trkpt lat="49.08872" lon="2.15808">
        <ele>79.3</ele>
        <time>2017-10-15T08:37:39Z</time>
      </trkpt>
      <trkpt lat="49.08875" lon="2.15803">
        <ele>79.8</ele>
        <time>2017-10-15T08:37:46Z</time>
      </trkpt>
      <trkpt lat="49.08881" lon="2.15797">
        <ele>80.2</ele>
        <time>2017-10-15T08:37:53Z</time>
      </trkpt>
      <trkpt lat="49.08887" lon="2.15789">
        <ele>79.5</ele>
        <time>2017-10-15T08:38:00Z</time>
      </trkpt>
      <trkpt lat="49.08895" lon="2.15782">
        <ele>79.9</ele>
        <time>2017-10-15T08:38:06Z</time>
      </trkpt>
      <trkpt lat="49.08901" lon="2.15775">
        <ele>79.9</ele>
        <time>2017-10-15T08:38:12Z</time>
      </trkpt>
      <trkpt lat="49.08908" lon="2.15769">
        <ele>80.1</ele>
        <time>2017-10-15T08:38:18Z</time>
      </trkpt>
      <trkpt lat="49.08914" lon="2.15762">
        <ele>81</ele>
        <time>2017-10-15T08:38:25Z</time>
      </trkpt>
      <trkpt lat="49.08922" lon="2.15755">
        <ele>82.1</ele>
        <time>2017-10-15T08:38:31Z</time>
      </trkpt>
      <trkpt lat="49.08929" lon="2.15749">
        <ele>81.9</ele>
        <time>2017-10-15T08:38:38Z</time>
      </trkpt>
      <trkpt lat="49.08935" lon="2.15742">
        <ele>80.5</ele>
        <time>2017-10-15T08:38:44Z</time>
      </trkpt>
      <trkpt lat="49.08942" lon="2.15735">
        <ele>79.3</ele>
        <time>2017-10-15T08:38:50Z</time>
      </trkpt>
      <trkpt lat="49.08949" lon="2.15729">
        <ele>79</ele>
        <time>2017-10-15T08:38:56Z</time>
      </trkpt>
      <trkpt lat="49.08956" lon="2.15723">
        <ele>79.3</ele>
        <time>2017-10-15T08:39:02Z</time>
      </trkpt>
      <trkpt lat="49.08963" lon="2.15716">
        <ele>80.1</ele>
        <time>2017-10-15T08:39:08Z</time>
      </trkpt>
      <trkpt lat="49.0897" lon="2.15711">
        <ele>79.4</ele>
        <time>2017-10-15T08:39:14Z</time>
      </trkpt>
      <trkpt lat="49.08977" lon="2.15706">
        <ele>80.2</ele>
        <time>2017-10-15T08:39:20Z</time>
      </trkpt>
      <trkpt lat="49.08984" lon="2.15701">
        <ele>81.9</ele>
        <time>2017-10-15T08:39:26Z</time>
      </trkpt>
      <trkpt lat="49.08991" lon="2.15696">
        <ele>81.5</ele>
        <time>2017-10-15T08:39:32Z</time>
      </trkpt>
      <trkpt lat="49.08999" lon="2.15691">
        <ele>81.9</ele>
        <time>2017-10-15T08:39:39Z</time>
      </trkpt>
      <trkpt lat="49.09006" lon="2.15685">
        <ele>80.5</ele>
        <time>2017-10-15T08:39:46Z</time>
      </trkpt>
      <trkpt lat="49.09014" lon="2.1568">
        <ele>80.6</ele>
        <time>2017-10-15T08:39:52Z</time>
      </trkpt>
      <trkpt lat="49.09021" lon="2.15674">
        <ele>79.6</ele>
        <time>2017-10-15T08:39:59Z</time>
      </trkpt>
      <trkpt lat="49.09028" lon="2.15669">
        <ele>79.1</ele>
        <time>2017-10-15T08:40:06Z</time>
      </trkpt>
      <trkpt lat="49.09034" lon="2.15662">
        <ele>79.1</ele>
        <time>2017-10-15T08:40:13Z</time>
      </trkpt>
      <trkpt lat="49.09041" lon="2.15655">
        <ele>77.8</ele>
        <time>2017-10-15T08:40:20Z</time>
      </trkpt>
      <trkpt lat="49.09046" lon="2.15649">
        <ele>75.9</ele>
        <time>2017-10-15T08:40:27Z</time>
      </trkpt>
      <trkpt lat="49.09053" lon="2.15643">
        <ele>75.3</ele>
        <time>2017-10-15T08:40:34Z</time>
      </trkpt>
      <trkpt lat="49.0906" lon="2.15637">
        <ele>75.4</ele>
        <time>2017-10-15T08:40:41Z</time>
      </trkpt>
      <trkpt lat="49.09067" lon="2.15632">
        <ele>75</ele>
        <time>2017-10-15T08:40:48Z</time>
      </trkpt>
      <trkpt lat="49.09074" lon="2.15626">
        <ele>72.8</ele>
        <time>2017-10-15T08:40:55Z</time>
      </trkpt>
      <trkpt lat="49.09082" lon="2.15619">
        <ele>73</ele>
        <time>2017-10-15T08:41:02Z</time>
      </trkpt>
      <trkpt lat="49.09088" lon="2.15614">
        <ele>73.9</ele>
        <time>2017-10-15T08:41:08Z</time>
      </trkpt>
      <trkpt lat="49.09095" lon="2.15608">
        <ele>73.8</ele>
        <time>2017-10-15T08:41:14Z</time>
      </trkpt>
      <trkpt lat="49.09101" lon="2.15602">
        <ele>72.5</ele>
        <time>2017-10-15T08:41:21Z</time>
      </trkpt>
      <trkpt lat="49.09108" lon="2.15598">
        <ele>72.4</ele>
        <time>2017-10-15T08:41:28Z</time>
      </trkpt>
      <trkpt lat="49.09115" lon="2.15593">
        <ele>73.5</ele>
        <time>2017-10-15T08:41:35Z</time>
      </trkpt>
      <trkpt lat="49.09123" lon="2.1559">
        <ele>72.2</ele>
        <time>2017-10-15T08:41:42Z</time>
      </trkpt>
      <trkpt lat="49.09131" lon="2.15586">
        <ele>72.4</ele>
        <time>2017-10-15T08:41:49Z</time>
      </trkpt>
      <trkpt lat="49.09138" lon="2.15585">
        <ele>74.6</ele>
        <time>2017-10-15T08:41:54Z</time>
      </trkpt>
      <trkpt lat="49.09145" lon="2.15583">
        <ele>76.3</ele>
        <time>2017-10-15T08:42:01Z</time>
      </trkpt>
      <trkpt lat="49.09153" lon="2.15581">
        <ele>77.6</ele>
        <time>2017-10-15T08:42:08Z</time>
      </trkpt>
      <trkpt lat="49.09161" lon="2.15579">
        <ele>77.2</ele>
        <time>2017-10-15T08:42:15Z</time>
      </trkpt>
      <trkpt lat="49.09168" lon="2.15577">
        <ele>77.7</ele>
        <time>2017-10-15T08:42:22Z</time>
      </trkpt>
      <trkpt lat="49.09176" lon="2.15574">
        <ele>78.7</ele>
        <time>2017-10-15T08:42:29Z</time>
      </trkpt>
      <trkpt lat="49.09184" lon="2.15571">
        <ele>80.4</ele>
        <time>2017-10-15T08:42:36Z</time>
      </trkpt>
      <trkpt lat="49.09191" lon="2.15569">
        <ele>80.8</ele>
        <time>2017-10-15T08:42:43Z</time>
      </trkpt>
      <trkpt lat="49.09199" lon="2.15566">
        <ele>81.2</ele>
        <time>2017-10-15T08:42:50Z</time>
      </trkpt>
      <trkpt lat="49.09207" lon="2.15565">
        <ele>81.6</ele>
        <time>2017-10-15T08:42:56Z</time>
      </trkpt>
      <trkpt lat="49.09214" lon="2.15563">
        <ele>81.1</ele>
        <time>2017-10-15T08:43:03Z</time>
      </trkpt>
      <trkpt lat="49.0922" lon="2.15561">
        <ele>80.6</ele>
        <time>2017-10-15T08:43:10Z</time>
      </trkpt>
      <trkpt lat="49.09228" lon="2.15559">
        <ele>81.8</ele>
        <time>2017-10-15T08:43:17Z</time>
      </trkpt>
      <trkpt lat="49.09236" lon="2.15557">
        <ele>82.6</ele>
        <time>2017-10-15T08:43:24Z</time>
      </trkpt>
      <trkpt lat="49.09244" lon="2.15555">
        <ele>83.8</ele>
        <time>2017-10-15T08:43:31Z</time>
      </trkpt>
      <trkpt lat="49.09252" lon="2.15553">
        <ele>84.3</ele>
        <time>2017-10-15T08:43:37Z</time>
      </trkpt>
      <trkpt lat="49.09259" lon="2.15551">
        <ele>85.4</ele>
        <time>2017-10-15T08:43:43Z</time>
      </trkpt>
      <trkpt lat="49.09267" lon="2.1555">
        <ele>85.1</ele>
        <time>2017-10-15T08:43:49Z</time>
      </trkpt>
      <trkpt lat="49.09275" lon="2.15549">
        <ele>86.3</ele>
        <time>2017-10-15T08:43:55Z</time>
      </trkpt>
      <trkpt lat="49.09282" lon="2.15547">
        <ele>87.1</ele>
        <time>2017-10-15T08:44:02Z</time>
      </trkpt>
      <trkpt lat="49.09289" lon="2.15547">
        <ele>86.7</ele>
        <time>2017-10-15T08:44:09Z</time>
      </trkpt>
      <trkpt lat="49.09297" lon="2.15546">
        <ele>85.8</ele>
        <time>2017-10-15T08:44:16Z</time>
      </trkpt>
      <trkpt lat="49.09305" lon="2.15545">
        <ele>86.8</ele>
        <time>2017-10-15T08:44:22Z</time>
      </trkpt>
      <trkpt lat="49.09312" lon="2.15544">
        <ele>87.7</ele>
        <time>2017-10-15T08:44:28Z</time>
      </trkpt>
      <trkpt lat="49.0932" lon="2.15542">
        <ele>87.8</ele>
        <time>2017-10-15T08:44:35Z</time>
      </trkpt>
      <trkpt lat="49.09327" lon="2.15539">
        <ele>86.4</ele>
        <time>2017-10-15T08:44:42Z</time>
      </trkpt>
      <trkpt lat="49.09335" lon="2.15538">
        <ele>85.5</ele>
        <time>2017-10-15T08:44:49Z</time>
      </trkpt>
      <trkpt lat="49.09343" lon="2.15537">
        <ele>85.1</ele>
        <time>2017-10-15T08:44:56Z</time>
      </trkpt>
      <trkpt lat="49.09349" lon="2.15535">
        <ele>84.2</ele>
        <time>2017-10-15T08:45:03Z</time>
      </trkpt>
      <trkpt lat="49.09355" lon="2.15533">
        <ele>83.9</ele>
        <time>2017-10-15T08:45:10Z</time>
      </trkpt>
      <trkpt lat="49.09359" lon="2.15537">
        <ele>83.8</ele>
        <time>2017-10-15T08:45:17Z</time>
      </trkpt>
      <trkpt lat="49.09361" lon="2.15538">
        <ele>83.5</ele>
        <time>2017-10-15T08:45:24Z</time>
      </trkpt>
      <trkpt lat="49.09368" lon="2.15539">
        <ele>83.7</ele>
        <time>2017-10-15T08:45:31Z</time>
      </trkpt>
      <trkpt lat="49.0937" lon="2.15535">
        <ele>83.1</ele>
        <time>2017-10-15T08:45:38Z</time>
      </trkpt>
      <trkpt lat="49.09364" lon="2.15537">
        <ele>80.8</ele>
        <time>2017-10-15T08:46:11Z</time>
      </trkpt>
      <trkpt lat="49.09361" lon="2.15537">
        <ele>81.7</ele>
        <time>2017-10-15T08:46:18Z</time>
      </trkpt>
      <trkpt lat="49.09362" lon="2.15536">
        <ele>81.9</ele>
        <time>2017-10-15T08:47:13Z</time>
      </trkpt>
      <trkpt lat="49.09364" lon="2.15534">
        <ele>82.1</ele>
        <time>2017-10-15T08:47:36Z</time>
      </trkpt>
      <trkpt lat="49.0937" lon="2.15528">
        <ele>83.4</ele>
        <time>2017-10-15T08:47:44Z</time>
      </trkpt>
      <trkpt lat="49.09374" lon="2.1553">
        <ele>83.1</ele>
        <time>2017-10-15T08:47:51Z</time>
      </trkpt>
      <trkpt lat="49.09381" lon="2.15536">
        <ele>85.5</ele>
        <time>2017-10-15T08:48:06Z</time>
      </trkpt>
      <trkpt lat="49.09387" lon="2.15542">
        <ele>85.1</ele>
        <time>2017-10-15T08:48:12Z</time>
      </trkpt>
      <trkpt lat="49.09393" lon="2.1555">
        <ele>85.7</ele>
        <time>2017-10-15T08:48:19Z</time>
      </trkpt>
      <trkpt lat="49.09398" lon="2.15558">
        <ele>85.9</ele>
        <time>2017-10-15T08:48:25Z</time>
      </trkpt>
      <trkpt lat="49.09404" lon="2.15565">
        <ele>85.3</ele>
        <time>2017-10-15T08:48:31Z</time>
      </trkpt>
      <trkpt lat="49.09411" lon="2.15572">
        <ele>84.7</ele>
        <time>2017-10-15T08:48:37Z</time>
      </trkpt>
      <trkpt lat="49.09416" lon="2.1558">
        <ele>84.5</ele>
        <time>2017-10-15T08:48:42Z</time>
      </trkpt>
      <trkpt lat="49.0942" lon="2.1559">
        <ele>84.9</ele>
        <time>2017-10-15T08:48:48Z</time>
      </trkpt>
      <trkpt lat="49.09426" lon="2.15598">
        <ele>85.1</ele>
        <time>2017-10-15T08:48:54Z</time>
      </trkpt>
      <trkpt lat="49.09432" lon="2.15604">
        <ele>85.5</ele>
        <time>2017-10-15T08:49:01Z</time>
      </trkpt>
      <trkpt lat="49.09438" lon="2.15614">
        <ele>85.1</ele>
        <time>2017-10-15T08:49:07Z</time>
      </trkpt>
      <trkpt lat="49.09444" lon="2.15621">
        <ele>84.5</ele>
        <time>2017-10-15T08:49:13Z</time>
      </trkpt>
      <trkpt lat="49.09451" lon="2.15628">
        <ele>84.1</ele>
        <time>2017-10-15T08:49:19Z</time>
      </trkpt>
      <trkpt lat="49.09456" lon="2.15639">
        <ele>83.3</ele>
        <time>2017-10-15T08:49:25Z</time>
      </trkpt>
      <trkpt lat="49.09461" lon="2.15649">
        <ele>83.8</ele>
        <time>2017-10-15T08:49:31Z</time>
      </trkpt>
      <trkpt lat="49.09466" lon="2.15657">
        <ele>83</ele>
        <time>2017-10-15T08:49:37Z</time>
      </trkpt>
      <trkpt lat="49.09474" lon="2.15662">
        <ele>80.9</ele>
        <time>2017-10-15T08:49:43Z</time>
      </trkpt>
      <trkpt lat="49.0948" lon="2.15668">
        <ele>79.3</ele>
        <time>2017-10-15T08:49:49Z</time>
      </trkpt>
      <trkpt lat="49.09485" lon="2.15676">
        <ele>78.8</ele>
        <time>2017-10-15T08:49:55Z</time>
      </trkpt>
      <trkpt lat="49.0949" lon="2.15683">
        <ele>76.6</ele>
        <time>2017-10-15T08:50:00Z</time>
      </trkpt>
      <trkpt lat="49.09496" lon="2.1569">
        <ele>74.7</ele>
        <time>2017-10-15T08:50:06Z</time>
      </trkpt>
      <trkpt lat="49.09501" lon="2.15698">
        <ele>73.3</ele>
        <time>2017-10-15T08:50:12Z</time>
      </trkpt>
      <trkpt lat="49.09506" lon="2.15707">
        <ele>73.4</ele>
        <time>2017-10-15T08:50:18Z</time>
      </trkpt>
      <trkpt lat="49.09513" lon="2.15712">
        <ele>72.9</ele>
        <time>2017-10-15T08:50:24Z</time>
      </trkpt>
      <trkpt lat="49.09519" lon="2.15719">
        <ele>73.3</ele>
        <time>2017-10-15T08:50:30Z</time>
      </trkpt>
      <trkpt lat="49.09525" lon="2.15728">
        <ele>74.8</ele>
        <time>2017-10-15T08:50:36Z</time>
      </trkpt>
      <trkpt lat="49.0953" lon="2.15736">
        <ele>74.9</ele>
        <time>2017-10-15T08:50:42Z</time>
      </trkpt>
      <trkpt lat="49.09537" lon="2.15743">
        <ele>74.6</ele>
        <time>2017-10-15T08:50:48Z</time>
      </trkpt>
      <trkpt lat="49.09543" lon="2.15752">
        <ele>73.7</ele>
        <time>2017-10-15T08:50:54Z</time>
      </trkpt>
      <trkpt lat="49.09548" lon="2.1576">
        <ele>74.6</ele>
        <time>2017-10-15T08:51:00Z</time>
      </trkpt>
      <trkpt lat="49.09554" lon="2.15768">
        <ele>75.6</ele>
        <time>2017-10-15T08:51:07Z</time>
      </trkpt>
      <trkpt lat="49.09559" lon="2.15776">
        <ele>74</ele>
        <time>2017-10-15T08:51:13Z</time>
      </trkpt>
      <trkpt lat="49.09565" lon="2.15785">
        <ele>70.6</ele>
        <time>2017-10-15T08:51:20Z</time>
      </trkpt>
      <trkpt lat="49.09571" lon="2.15793">
        <ele>69.5</ele>
        <time>2017-10-15T08:51:26Z</time>
      </trkpt>
      <trkpt lat="49.09578" lon="2.158">
        <ele>69.3</ele>
        <time>2017-10-15T08:51:33Z</time>
      </trkpt>
      <trkpt lat="49.09584" lon="2.15807">
        <ele>71.1</ele>
        <time>2017-10-15T08:51:40Z</time>
      </trkpt>
      <trkpt lat="49.0959" lon="2.15816">
        <ele>71.5</ele>
        <time>2017-10-15T08:51:46Z</time>
      </trkpt>
      <trkpt lat="49.09595" lon="2.15825">
        <ele>72.7</ele>
        <time>2017-10-15T08:51:53Z</time>
      </trkpt>
      <trkpt lat="49.09601" lon="2.15832">
        <ele>72.1</ele>
        <time>2017-10-15T08:51:59Z</time>
      </trkpt>
      <trkpt lat="49.09605" lon="2.15842">
        <ele>73.8</ele>
        <time>2017-10-15T08:52:06Z</time>
      </trkpt>
      <trkpt lat="49.09611" lon="2.15849">
        <ele>73.3</ele>
        <time>2017-10-15T08:52:12Z</time>
      </trkpt>
      <trkpt lat="49.09616" lon="2.15858">
        <ele>72</ele>
        <time>2017-10-15T08:52:18Z</time>
      </trkpt>
      <trkpt lat="49.0962" lon="2.15868">
        <ele>70</ele>
        <time>2017-10-15T08:52:25Z</time>
      </trkpt>
      <trkpt lat="49.09623" lon="2.15878">
        <ele>71.2</ele>
        <time>2017-10-15T08:52:32Z</time>
      </trkpt>
      <trkpt lat="49.09626" lon="2.15889">
        <ele>69.2</ele>
        <time>2017-10-15T08:52:37Z</time>
      </trkpt>
      <trkpt lat="49.09629" lon="2.159">
        <ele>69.9</ele>
        <time>2017-10-15T08:52:43Z</time>
      </trkpt>
      <trkpt lat="49.09632" lon="2.15911">
        <ele>73</ele>
        <time>2017-10-15T08:52:49Z</time>
      </trkpt>
      <trkpt lat="49.09635" lon="2.15923">
        <ele>75.2</ele>
        <time>2017-10-15T08:52:56Z</time>
      </trkpt>
      <trkpt lat="49.09638" lon="2.15933">
        <ele>79.2</ele>
        <time>2017-10-15T08:53:03Z</time>
      </trkpt>
      <trkpt lat="49.09641" lon="2.15942">
        <ele>81.9</ele>
        <time>2017-10-15T08:53:10Z</time>
      </trkpt>
      <trkpt lat="49.09644" lon="2.15951">
        <ele>85.4</ele>
        <time>2017-10-15T08:53:17Z</time>
      </trkpt>
      <trkpt lat="49.09648" lon="2.1596">
        <ele>88.4</ele>
        <time>2017-10-15T08:53:24Z</time>
      </trkpt>
      <trkpt lat="49.09653" lon="2.15969">
        <ele>89.3</ele>
        <time>2017-10-15T08:53:30Z</time>
      </trkpt>
      <trkpt lat="49.09661" lon="2.15978">
        <ele>87.2</ele>
        <time>2017-10-15T08:53:36Z</time>
      </trkpt>
      <trkpt lat="49.09665" lon="2.15986">
        <ele>86</ele>
        <time>2017-10-15T08:53:42Z</time>
      </trkpt>
      <trkpt lat="49.09671" lon="2.15996">
        <ele>86.1</ele>
        <time>2017-10-15T08:53:49Z</time>
      </trkpt>
      <trkpt lat="49.09674" lon="2.16009">
        <ele>87.3</ele>
        <time>2017-10-15T08:53:55Z</time>
      </trkpt>
      <trkpt lat="49.09679" lon="2.16017">
        <ele>88.5</ele>
        <time>2017-10-15T08:54:01Z</time>
      </trkpt>
      <trkpt lat="49.09684" lon="2.16027">
        <ele>89.8</ele>
        <time>2017-10-15T08:54:07Z</time>
      </trkpt>
      <trkpt lat="49.09688" lon="2.16038">
        <ele>91.4</ele>
        <time>2017-10-15T08:54:13Z</time>
      </trkpt>
      <trkpt lat="49.09691" lon="2.16049">
        <ele>94.7</ele>
        <time>2017-10-15T08:54:19Z</time>
      </trkpt>
      <trkpt lat="49.09694" lon="2.16059">
        <ele>94.6</ele>
        <time>2017-10-15T08:54:23Z</time>
      </trkpt>
      <trkpt lat="49.09694" lon="2.16071">
        <ele>101.1</ele>
        <time>2017-10-15T08:54:27Z</time>
      </trkpt>
      <trkpt lat="49.09698" lon="2.16082">
        <ele>103.8</ele>
        <time>2017-10-15T08:54:34Z</time>
      </trkpt>
      <trkpt lat="49.09703" lon="2.16091">
        <ele>102.1</ele>
        <time>2017-10-15T08:54:40Z</time>
      </trkpt>
      <trkpt lat="49.09708" lon="2.16102">
        <ele>106.4</ele>
        <time>2017-10-15T08:54:47Z</time>
      </trkpt>
      <trkpt lat="49.09711" lon="2.16112">
        <ele>107.3</ele>
        <time>2017-10-15T08:54:53Z</time>
      </trkpt>
      <trkpt lat="49.09715" lon="2.16121">
        <ele>107.3</ele>
        <time>2017-10-15T08:55:00Z</time>
      </trkpt>
      <trkpt lat="49.09718" lon="2.16131">
        <ele>107.7</ele>
        <time>2017-10-15T08:55:06Z</time>
      </trkpt>
      <trkpt lat="49.09723" lon="2.16141">
        <ele>108.1</ele>
        <time>2017-10-15T08:55:13Z</time>
      </trkpt>
      <trkpt lat="49.09727" lon="2.16151">
        <ele>107.7</ele>
        <time>2017-10-15T08:55:19Z</time>
      </trkpt>
      <trkpt lat="49.09733" lon="2.1616">
        <ele>105.7</ele>
        <time>2017-10-15T08:55:25Z</time>
      </trkpt>
      <trkpt lat="49.09739" lon="2.16169">
        <ele>100</ele>
        <time>2017-10-15T08:55:29Z</time>
      </trkpt>
      <trkpt lat="49.09745" lon="2.16178">
        <ele>93.3</ele>
        <time>2017-10-15T08:55:33Z</time>
      </trkpt>
      <trkpt lat="49.09749" lon="2.16187">
        <ele>88.9</ele>
        <time>2017-10-15T08:55:37Z</time>
      </trkpt>
      <trkpt lat="49.09755" lon="2.16195">
        <ele>85.5</ele>
        <time>2017-10-15T08:55:43Z</time>
      </trkpt>
      <trkpt lat="49.09761" lon="2.16203">
        <ele>83.5</ele>
        <time>2017-10-15T08:55:48Z</time>
      </trkpt>
      <trkpt lat="49.09766" lon="2.1621">
        <ele>83.4</ele>
        <time>2017-10-15T08:55:54Z</time>
      </trkpt>
      <trkpt lat="49.09772" lon="2.16218">
        <ele>81.7</ele>
        <time>2017-10-15T08:56:01Z</time>
      </trkpt>
      <trkpt lat="49.09779" lon="2.16225">
        <ele>81</ele>
        <time>2017-10-15T08:56:07Z</time>
      </trkpt>
      <trkpt lat="49.09785" lon="2.16232">
        <ele>80.8</ele>
        <time>2017-10-15T08:56:13Z</time>
      </trkpt>
      <trkpt lat="49.09792" lon="2.1624">
        <ele>81.3</ele>
        <time>2017-10-15T08:56:20Z</time>
      </trkpt>
      <trkpt lat="49.09798" lon="2.16248">
        <ele>79.5</ele>
        <time>2017-10-15T08:56:26Z</time>
      </trkpt>
      <trkpt lat="49.09804" lon="2.16256">
        <ele>79.1</ele>
        <time>2017-10-15T08:56:32Z</time>
      </trkpt>
      <trkpt lat="49.0981" lon="2.16265">
        <ele>79.4</ele>
        <time>2017-10-15T08:56:38Z</time>
      </trkpt>
      <trkpt lat="49.09815" lon="2.16273">
        <ele>79.4</ele>
        <time>2017-10-15T08:56:45Z</time>
      </trkpt>
      <trkpt lat="49.09821" lon="2.16281">
        <ele>79.6</ele>
        <time>2017-10-15T08:56:52Z</time>
      </trkpt>
      <trkpt lat="49.09827" lon="2.16289">
        <ele>79</ele>
        <time>2017-10-15T08:56:59Z</time>
      </trkpt>
      <trkpt lat="49.09833" lon="2.16297">
        <ele>79.2</ele>
        <time>2017-10-15T08:57:05Z</time>
      </trkpt>
      <trkpt lat="49.09838" lon="2.16306">
        <ele>80.5</ele>
        <time>2017-10-15T08:57:12Z</time>
      </trkpt>
      <trkpt lat="49.09842" lon="2.16313">
        <ele>81.5</ele>
        <time>2017-10-15T08:57:19Z</time>
      </trkpt>
      <trkpt lat="49.09846" lon="2.16317">
        <ele>82.3</ele>
        <time>2017-10-15T08:57:26Z</time>
      </trkpt>
      <trkpt lat="49.09852" lon="2.16318">
        <ele>80.7</ele>
        <time>2017-10-15T08:57:33Z</time>
      </trkpt>
      <trkpt lat="49.09854" lon="2.16309">
        <ele>80.2</ele>
        <time>2017-10-15T08:57:40Z</time>
      </trkpt>
      <trkpt lat="49.09857" lon="2.16309">
        <ele>79.8</ele>
        <time>2017-10-15T08:59:34Z</time>
      </trkpt>
      <trkpt lat="49.09859" lon="2.16298">
        <ele>80.6</ele>
        <time>2017-10-15T08:59:41Z</time>
      </trkpt>
      <trkpt lat="49.09863" lon="2.16288">
        <ele>80.5</ele>
        <time>2017-10-15T08:59:47Z</time>
      </trkpt>
      <trkpt lat="49.09867" lon="2.16278">
        <ele>80.5</ele>
        <time>2017-10-15T08:59:54Z</time>
      </trkpt>
      <trkpt lat="49.09871" lon="2.16268">
        <ele>80.4</ele>
        <time>2017-10-15T09:00:00Z</time>
      </trkpt>
      <trkpt lat="49.09875" lon="2.16258">
        <ele>79.9</ele>
        <time>2017-10-15T09:00:06Z</time>
      </trkpt>
      <trkpt lat="49.09878" lon="2.16248">
        <ele>80.1</ele>
        <time>2017-10-15T09:00:12Z</time>
      </trkpt>
      <trkpt lat="49.09882" lon="2.16238">
        <ele>81.4</ele>
        <time>2017-10-15T09:00:19Z</time>
      </trkpt>
      <trkpt lat="49.09885" lon="2.16227">
        <ele>82.2</ele>
        <time>2017-10-15T09:00:25Z</time>
      </trkpt>
      <trkpt lat="49.09889" lon="2.16216">
        <ele>82.9</ele>
        <time>2017-10-15T09:00:32Z</time>
      </trkpt>
      <trkpt lat="49.09892" lon="2.16206">
        <ele>83.3</ele>
        <time>2017-10-15T09:00:38Z</time>
      </trkpt>
      <trkpt lat="49.09895" lon="2.16194">
        <ele>82.9</ele>
        <time>2017-10-15T09:00:45Z</time>
      </trkpt>
      <trkpt lat="49.09897" lon="2.16182">
        <ele>83.1</ele>
        <time>2017-10-15T09:00:52Z</time>
      </trkpt>
      <trkpt lat="49.099" lon="2.16171">
        <ele>82.9</ele>
        <time>2017-10-15T09:00:59Z</time>
      </trkpt>
      <trkpt lat="49.09904" lon="2.16159">
        <ele>82.6</ele>
        <time>2017-10-15T09:01:06Z</time>
      </trkpt>
      <trkpt lat="49.09907" lon="2.16149">
        <ele>82.1</ele>
        <time>2017-10-15T09:01:12Z</time>
      </trkpt>
      <trkpt lat="49.0991" lon="2.16139">
        <ele>83.5</ele>
        <time>2017-10-15T09:01:19Z</time>
      </trkpt>
      <trkpt lat="49.09915" lon="2.16128">
        <ele>83.5</ele>
        <time>2017-10-15T09:01:25Z</time>
      </trkpt>
      <trkpt lat="49.09917" lon="2.16119">
        <ele>83.5</ele>
        <time>2017-10-15T09:01:32Z</time>
      </trkpt>
      <trkpt lat="49.09921" lon="2.16109">
        <ele>82.9</ele>
        <time>2017-10-15T09:01:39Z</time>
      </trkpt>
      <trkpt lat="49.09924" lon="2.16098">
        <ele>83</ele>
        <time>2017-10-15T09:01:45Z</time>
      </trkpt>
      <trkpt lat="49.09926" lon="2.16087">
        <ele>82.8</ele>
        <time>2017-10-15T09:01:52Z</time>
      </trkpt>
      <trkpt lat="49.09927" lon="2.1608">
        <ele>83</ele>
        <time>2017-10-15T09:01:59Z</time>
      </trkpt>
      <trkpt lat="49.09929" lon="2.1607">
        <ele>83.7</ele>
        <time>2017-10-15T09:02:06Z</time>
      </trkpt>
      <trkpt lat="49.09933" lon="2.16059">
        <ele>84.5</ele>
        <time>2017-10-15T09:02:13Z</time>
      </trkpt>
      <trkpt lat="49.09935" lon="2.16049">
        <ele>84.3</ele>
        <time>2017-10-15T09:02:19Z</time>
      </trkpt>
      <trkpt lat="49.09938" lon="2.16039">
        <ele>85.7</ele>
        <time>2017-10-15T09:02:25Z</time>
      </trkpt>
      <trkpt lat="49.09941" lon="2.16028">
        <ele>85.8</ele>
        <time>2017-10-15T09:02:31Z</time>
      </trkpt>
      <trkpt lat="49.09944" lon="2.16017">
        <ele>86.7</ele>
        <time>2017-10-15T09:02:38Z</time>
      </trkpt>
      <trkpt lat="49.09947" lon="2.16007">
        <ele>87.7</ele>
        <time>2017-10-15T09:02:44Z</time>
      </trkpt>
      <trkpt lat="49.09951" lon="2.15996">
        <ele>86.7</ele>
        <time>2017-10-15T09:02:51Z</time>
      </trkpt>
      <trkpt lat="49.09954" lon="2.15985">
        <ele>87.5</ele>
        <time>2017-10-15T09:02:57Z</time>
      </trkpt>
      <trkpt lat="49.09958" lon="2.15973">
        <ele>88.1</ele>
        <time>2017-10-15T09:03:03Z</time>
      </trkpt>
      <trkpt lat="49.09961" lon="2.15962">
        <ele>88.4</ele>
        <time>2017-10-15T09:03:10Z</time>
      </trkpt>
      <trkpt lat="49.09964" lon="2.15951">
        <ele>88.7</ele>
        <time>2017-10-15T09:03:16Z</time>
      </trkpt>
      <trkpt lat="49.09966" lon="2.15941">
        <ele>89.2</ele>
        <time>2017-10-15T09:03:22Z</time>
      </trkpt>
      <trkpt lat="49.0997" lon="2.1593">
        <ele>89.1</ele>
        <time>2017-10-15T09:03:29Z</time>
      </trkpt>
      <trkpt lat="49.09974" lon="2.1592">
        <ele>90.2</ele>
        <time>2017-10-15T09:03:35Z</time>
      </trkpt>
      <trkpt lat="49.09978" lon="2.1591">
        <ele>89.6</ele>
        <time>2017-10-15T09:03:41Z</time>
      </trkpt>
      <trkpt lat="49.09982" lon="2.159">
        <ele>90</ele>
        <time>2017-10-15T09:03:47Z</time>
      </trkpt>
      <trkpt lat="49.09985" lon="2.15887">
        <ele>90.9</ele>
        <time>2017-10-15T09:03:54Z</time>
      </trkpt>
      <trkpt lat="49.09988" lon="2.15876">
        <ele>90.9</ele>
        <time>2017-10-15T09:04:00Z</time>
      </trkpt>
      <trkpt lat="49.0999" lon="2.15866">
        <ele>91.6</ele>
        <time>2017-10-15T09:04:06Z</time>
      </trkpt>
      <trkpt lat="49.09994" lon="2.15854">
        <ele>93</ele>
        <time>2017-10-15T09:04:13Z</time>
      </trkpt>
      <trkpt lat="49.09997" lon="2.15845">
        <ele>92.5</ele>
        <time>2017-10-15T09:04:20Z</time>
      </trkpt>
      <trkpt lat="49.1" lon="2.15835">
        <ele>91.7</ele>
        <time>2017-10-15T09:04:27Z</time>
      </trkpt>
      <trkpt lat="49.10004" lon="2.15824">
        <ele>91</ele>
        <time>2017-10-15T09:04:34Z</time>
      </trkpt>
      <trkpt lat="49.10007" lon="2.15813">
        <ele>92</ele>
        <time>2017-10-15T09:04:41Z</time>
      </trkpt>
      <trkpt lat="49.10012" lon="2.15802">
        <ele>93.4</ele>
        <time>2017-10-15T09:04:48Z</time>
      </trkpt>
      <trkpt lat="49.10014" lon="2.15792">
        <ele>93.8</ele>
        <time>2017-10-15T09:04:55Z</time>
      </trkpt>
      <trkpt lat="49.10018" lon="2.15781">
        <ele>93.7</ele>
        <time>2017-10-15T09:05:01Z</time>
      </trkpt>
      <trkpt lat="49.10022" lon="2.15771">
        <ele>92.5</ele>
        <time>2017-10-15T09:05:07Z</time>
      </trkpt>
      <trkpt lat="49.10027" lon="2.15761">
        <ele>91.7</ele>
        <time>2017-10-15T09:05:14Z</time>
      </trkpt>
      <trkpt lat="49.10031" lon="2.1575">
        <ele>91.6</ele>
        <time>2017-10-15T09:05:21Z</time>
      </trkpt>
      <trkpt lat="49.10035" lon="2.15739">
        <ele>90.9</ele>
        <time>2017-10-15T09:05:28Z</time>
      </trkpt>
      <trkpt lat="49.1004" lon="2.1573">
        <ele>90.3</ele>
        <time>2017-10-15T09:05:34Z</time>
      </trkpt>
      <trkpt lat="49.10044" lon="2.15719">
        <ele>90.2</ele>
        <time>2017-10-15T09:05:41Z</time>
      </trkpt>
      <trkpt lat="49.10048" lon="2.15709">
        <ele>89.5</ele>
        <time>2017-10-15T09:05:47Z</time>
      </trkpt>
      <trkpt lat="49.10052" lon="2.15699">
        <ele>89.6</ele>
        <time>2017-10-15T09:05:54Z</time>
      </trkpt>
      <trkpt lat="49.10055" lon="2.15689">
        <ele>88.9</ele>
        <time>2017-10-15T09:06:00Z</time>
      </trkpt>
      <trkpt lat="49.10059" lon="2.15678">
        <ele>89.5</ele>
        <time>2017-10-15T09:06:07Z</time>
      </trkpt>
      <trkpt lat="49.10063" lon="2.15668">
        <ele>90.6</ele>
        <time>2017-10-15T09:06:13Z</time>
      </trkpt>
      <trkpt lat="49.10067" lon="2.15657">
        <ele>92</ele>
        <time>2017-10-15T09:06:19Z</time>
      </trkpt>
      <trkpt lat="49.10072" lon="2.15647">
        <ele>93.8</ele>
        <time>2017-10-15T09:06:25Z</time>
      </trkpt>
      <trkpt lat="49.10076" lon="2.15637">
        <ele>93.5</ele>
        <time>2017-10-15T09:06:32Z</time>
      </trkpt>
      <trkpt lat="49.1008" lon="2.15627">
        <ele>93</ele>
        <time>2017-10-15T09:06:39Z</time>
      </trkpt>
      <trkpt lat="49.10083" lon="2.15617">
        <ele>92.5</ele>
        <time>2017-10-15T09:06:46Z</time>
      </trkpt>
      <trkpt lat="49.10087" lon="2.15607">
        <ele>92.4</ele>
        <time>2017-10-15T09:06:53Z</time>
      </trkpt>
      <trkpt lat="49.10091" lon="2.15596">
        <ele>92.3</ele>
        <time>2017-10-15T09:07:00Z</time>
      </trkpt>
      <trkpt lat="49.10095" lon="2.15587">
        <ele>92.5</ele>
        <time>2017-10-15T09:07:06Z</time>
      </trkpt>
      <trkpt lat="49.10099" lon="2.15577">
        <ele>90.7</ele>
        <time>2017-10-15T09:07:12Z</time>
      </trkpt>
      <trkpt lat="49.10103" lon="2.15566">
        <ele>90.9</ele>
        <time>2017-10-15T09:07:19Z</time>
      </trkpt>
      <trkpt lat="49.10107" lon="2.15557">
        <ele>91.6</ele>
        <time>2017-10-15T09:07:25Z</time>
      </trkpt>
      <trkpt lat="49.10112" lon="2.15547">
        <ele>91.4</ele>
        <time>2017-10-15T09:07:31Z</time>
      </trkpt>
      <trkpt lat="49.10116" lon="2.15538">
        <ele>91.8</ele>
        <time>2017-10-15T09:07:37Z</time>
      </trkpt>
      <trkpt lat="49.10121" lon="2.15527">
        <ele>91.8</ele>
        <time>2017-10-15T09:07:44Z</time>
      </trkpt>
      <trkpt lat="49.10125" lon="2.15518">
        <ele>91.8</ele>
        <time>2017-10-15T09:07:50Z</time>
      </trkpt>
      <trkpt lat="49.10128" lon="2.15509">
        <ele>91.6</ele>
        <time>2017-10-15T09:07:56Z</time>
      </trkpt>
      <trkpt lat="49.10134" lon="2.15499">
        <ele>92.3</ele>
        <time>2017-10-15T09:08:02Z</time>
      </trkpt>
      <trkpt lat="49.10138" lon="2.1549">
        <ele>92.1</ele>
        <time>2017-10-15T09:08:08Z</time>
      </trkpt>
      <trkpt lat="49.10143" lon="2.15481">
        <ele>92.5</ele>
        <time>2017-10-15T09:08:15Z</time>
      </trkpt>
      <trkpt lat="49.10149" lon="2.15472">
        <ele>93.4</ele>
        <time>2017-10-15T09:08:22Z</time>
      </trkpt>
      <trkpt lat="49.10154" lon="2.15464">
        <ele>95</ele>
        <time>2017-10-15T09:08:28Z</time>
      </trkpt>
      <trkpt lat="49.10159" lon="2.15454">
        <ele>94.5</ele>
        <time>2017-10-15T09:08:35Z</time>
      </trkpt>
      <trkpt lat="49.10166" lon="2.15446">
        <ele>94.8</ele>
        <time>2017-10-15T09:08:41Z</time>
      </trkpt>
      <trkpt lat="49.10172" lon="2.15439">
        <ele>95.3</ele>
        <time>2017-10-15T09:08:47Z</time>
      </trkpt>
      <trkpt lat="49.10178" lon="2.15431">
        <ele>95.4</ele>
        <time>2017-10-15T09:08:53Z</time>
      </trkpt>
      <trkpt lat="49.10184" lon="2.15426">
        <ele>95.5</ele>
        <time>2017-10-15T09:08:59Z</time>
      </trkpt>
      <trkpt lat="49.1019" lon="2.15418">
        <ele>95.7</ele>
        <time>2017-10-15T09:09:05Z</time>
      </trkpt>
      <trkpt lat="49.10196" lon="2.15411">
        <ele>96.2</ele>
        <time>2017-10-15T09:09:11Z</time>
      </trkpt>
      <trkpt lat="49.10202" lon="2.15403">
        <ele>97.2</ele>
        <time>2017-10-15T09:09:18Z</time>
      </trkpt>
      <trkpt lat="49.10206" lon="2.15393">
        <ele>97.9</ele>
        <time>2017-10-15T09:09:25Z</time>
      </trkpt>
      <trkpt lat="49.10204" lon="2.15388">
        <ele>97.8</ele>
        <time>2017-10-15T09:09:32Z</time>
      </trkpt>
      <trkpt lat="49.1021" lon="2.15379">
        <ele>99.5</ele>
        <time>2017-10-15T09:10:35Z</time>
      </trkpt>
      <trkpt lat="49.10213" lon="2.1538">
        <ele>99.4</ele>
        <time>2017-10-15T09:10:42Z</time>
      </trkpt>
      <trkpt lat="49.10212" lon="2.15379">
        <ele>98.6</ele>
        <time>2017-10-15T09:12:09Z</time>
      </trkpt>
      <trkpt lat="49.1021" lon="2.15379">
        <ele>97.4</ele>
        <time>2017-10-15T09:12:16Z</time>
      </trkpt>
      <trkpt lat="49.10207" lon="2.15386">
        <ele>97.5</ele>
        <time>2017-10-15T09:12:25Z</time>
      </trkpt>
      <trkpt lat="49.10207" lon="2.15388">
        <ele>96.8</ele>
        <time>2017-10-15T09:12:32Z</time>
      </trkpt>
      <trkpt lat="49.10211" lon="2.15389">
        <ele>97.4</ele>
        <time>2017-10-15T09:13:46Z</time>
      </trkpt>
      <trkpt lat="49.10218" lon="2.15384">
        <ele>97.9</ele>
        <time>2017-10-15T09:13:53Z</time>
      </trkpt>
      <trkpt lat="49.10224" lon="2.15379">
        <ele>97.6</ele>
        <time>2017-10-15T09:14:00Z</time>
      </trkpt>
      <trkpt lat="49.1023" lon="2.15373">
        <ele>97.1</ele>
        <time>2017-10-15T09:14:07Z</time>
      </trkpt>
      <trkpt lat="49.10236" lon="2.15366">
        <ele>96.8</ele>
        <time>2017-10-15T09:14:13Z</time>
      </trkpt>
      <trkpt lat="49.1024" lon="2.15356">
        <ele>97.1</ele>
        <time>2017-10-15T09:14:20Z</time>
      </trkpt>
      <trkpt lat="49.10245" lon="2.15348">
        <ele>96.2</ele>
        <time>2017-10-15T09:14:27Z</time>
      </trkpt>
      <trkpt lat="49.1025" lon="2.15338">
        <ele>96.6</ele>
        <time>2017-10-15T09:14:34Z</time>
      </trkpt>
      <trkpt lat="49.10255" lon="2.1533">
        <ele>97.5</ele>
        <time>2017-10-15T09:14:41Z</time>
      </trkpt>
      <trkpt lat="49.10261" lon="2.15321">
        <ele>97.4</ele>
        <time>2017-10-15T09:14:48Z</time>
      </trkpt>
      <trkpt lat="49.10265" lon="2.15312">
        <ele>96</ele>
        <time>2017-10-15T09:14:55Z</time>
      </trkpt>
      <trkpt lat="49.10268" lon="2.15305">
        <ele>95.6</ele>
        <time>2017-10-15T09:15:02Z</time>
      </trkpt>
      <trkpt lat="49.10272" lon="2.15296">
        <ele>96.6</ele>
        <time>2017-10-15T09:15:07Z</time>
      </trkpt>
      <trkpt lat="49.10271" lon="2.15295">
        <ele>96.6</ele>
        <time>2017-10-15T09:15:14Z</time>
      </trkpt>
      <trkpt lat="49.10275" lon="2.1529">
        <ele>96.4</ele>
        <time>2017-10-15T09:15:21Z</time>
      </trkpt>
      <trkpt lat="49.10278" lon="2.15284">
        <ele>96.3</ele>
        <time>2017-10-15T09:15:28Z</time>
      </trkpt>
      <trkpt lat="49.10282" lon="2.15277">
        <ele>96</ele>
        <time>2017-10-15T09:15:35Z</time>
      </trkpt>
      <trkpt lat="49.10287" lon="2.15267">
        <ele>96.4</ele>
        <time>2017-10-15T09:15:41Z</time>
      </trkpt>
      <trkpt lat="49.10293" lon="2.15258">
        <ele>96.3</ele>
        <time>2017-10-15T09:15:46Z</time>
      </trkpt>
      <trkpt lat="49.10298" lon="2.15248">
        <ele>95.5</ele>
        <time>2017-10-15T09:15:51Z</time>
      </trkpt>
      <trkpt lat="49.10301" lon="2.15238">
        <ele>94.9</ele>
        <time>2017-10-15T09:15:57Z</time>
      </trkpt>
      <trkpt lat="49.10306" lon="2.15229">
        <ele>95.5</ele>
        <time>2017-10-15T09:16:02Z</time>
      </trkpt>
      <trkpt lat="49.10311" lon="2.15219">
        <ele>96.3</ele>
        <time>2017-10-15T09:16:08Z</time>
      </trkpt>
      <trkpt lat="49.10317" lon="2.1521">
        <ele>96.5</ele>
        <time>2017-10-15T09:16:13Z</time>
      </trkpt>
      <trkpt lat="49.10323" lon="2.15201">
        <ele>96.7</ele>
        <time>2017-10-15T09:16:19Z</time>
      </trkpt>
      <trkpt lat="49.10328" lon="2.15192">
        <ele>96.6</ele>
        <time>2017-10-15T09:16:25Z</time>
      </trkpt>
      <trkpt lat="49.10334" lon="2.15182">
        <ele>96</ele>
        <time>2017-10-15T09:16:31Z</time>
      </trkpt>
      <trkpt lat="49.10338" lon="2.15171">
        <ele>94.2</ele>
        <time>2017-10-15T09:16:38Z</time>
      </trkpt>
      <trkpt lat="49.10343" lon="2.15163">
        <ele>94.2</ele>
        <time>2017-10-15T09:16:44Z</time>
      </trkpt>
      <trkpt lat="49.10347" lon="2.15153">
        <ele>93</ele>
        <time>2017-10-15T09:16:50Z</time>
      </trkpt>
      <trkpt lat="49.10353" lon="2.15145">
        <ele>91.9</ele>
        <time>2017-10-15T09:16:56Z</time>
      </trkpt>
      <trkpt lat="49.10358" lon="2.15135">
        <ele>91.6</ele>
        <time>2017-10-15T09:17:03Z</time>
      </trkpt>
      <trkpt lat="49.10363" lon="2.15126">
        <ele>92.1</ele>
        <time>2017-10-15T09:17:09Z</time>
      </trkpt>
      <trkpt lat="49.10368" lon="2.15117">
        <ele>92.5</ele>
        <time>2017-10-15T09:17:15Z</time>
      </trkpt>
      <trkpt lat="49.10374" lon="2.15108">
        <ele>91.5</ele>
        <time>2017-10-15T09:17:22Z</time>
      </trkpt>
      <trkpt lat="49.10378" lon="2.15099">
        <ele>92</ele>
        <time>2017-10-15T09:17:29Z</time>
      </trkpt>
      <trkpt lat="49.10383" lon="2.15091">
        <ele>90.6</ele>
        <time>2017-10-15T09:17:36Z</time>
      </trkpt>
      <trkpt lat="49.10387" lon="2.15082">
        <ele>90.7</ele>
        <time>2017-10-15T09:17:42Z</time>
      </trkpt>
      <trkpt lat="49.10392" lon="2.15074">
        <ele>90</ele>
        <time>2017-10-15T09:17:49Z</time>
      </trkpt>
      <trkpt lat="49.10396" lon="2.15064">
        <ele>90.2</ele>
        <time>2017-10-15T09:17:56Z</time>
      </trkpt>
      <trkpt lat="49.10401" lon="2.15056">
        <ele>89.2</ele>
        <time>2017-10-15T09:18:03Z</time>
      </trkpt>
      <trkpt lat="49.10405" lon="2.1505">
        <ele>86.3</ele>
        <time>2017-10-15T09:18:10Z</time>
      </trkpt>
      <trkpt lat="49.10407" lon="2.15041">
        <ele>86.1</ele>
        <time>2017-10-15T09:18:17Z</time>
      </trkpt>
      <trkpt lat="49.10411" lon="2.15032">
        <ele>84.2</ele>
        <time>2017-10-15T09:18:24Z</time>
      </trkpt>
      <trkpt lat="49.10413" lon="2.15025">
        <ele>82.9</ele>
        <time>2017-10-15T09:18:31Z</time>
      </trkpt>
      <trkpt lat="49.10417" lon="2.15016">
        <ele>81.6</ele>
        <time>2017-10-15T09:18:38Z</time>
      </trkpt>
      <trkpt lat="49.1042" lon="2.15008">
        <ele>79.4</ele>
        <time>2017-10-15T09:18:45Z</time>
      </trkpt>
      <trkpt lat="49.10423" lon="2.14998">
        <ele>78.9</ele>
        <time>2017-10-15T09:18:52Z</time>
      </trkpt>
      <trkpt lat="49.10425" lon="2.14986">
        <ele>77.9</ele>
        <time>2017-10-15T09:18:59Z</time>
      </trkpt>
      <trkpt lat="49.10425" lon="2.14975">
        <ele>78.1</ele>
        <time>2017-10-15T09:19:05Z</time>
      </trkpt>
      <trkpt lat="49.10427" lon="2.14964">
        <ele>77.6</ele>
        <time>2017-10-15T09:19:11Z</time>
      </trkpt>
      <trkpt lat="49.10429" lon="2.14952">
        <ele>76.8</ele>
        <time>2017-10-15T09:19:17Z</time>
      </trkpt>
      <trkpt lat="49.10429" lon="2.14939">
        <ele>76.6</ele>
        <time>2017-10-15T09:19:24Z</time>
      </trkpt>
      <trkpt lat="49.10431" lon="2.14928">
        <ele>76.3</ele>
        <time>2017-10-15T09:19:30Z</time>
      </trkpt>
      <trkpt lat="49.10433" lon="2.14917">
        <ele>76.7</ele>
        <time>2017-10-15T09:19:36Z</time>
      </trkpt>
      <trkpt lat="49.10435" lon="2.14906">
        <ele>76</ele>
        <time>2017-10-15T09:19:42Z</time>
      </trkpt>
      <trkpt lat="49.10436" lon="2.14894">
        <ele>75.1</ele>
        <time>2017-10-15T09:19:48Z</time>
      </trkpt>
      <trkpt lat="49.10438" lon="2.14883">
        <ele>74.1</ele>
        <time>2017-10-15T09:19:54Z</time>
      </trkpt>
      <trkpt lat="49.10439" lon="2.14872">
        <ele>75.3</ele>
        <time>2017-10-15T09:20:00Z</time>
      </trkpt>
      <trkpt lat="49.10441" lon="2.1486">
        <ele>75.2</ele>
        <time>2017-10-15T09:20:06Z</time>
      </trkpt>
      <trkpt lat="49.10442" lon="2.14848">
        <ele>76</ele>
        <time>2017-10-15T09:20:12Z</time>
      </trkpt>
      <trkpt lat="49.10443" lon="2.14836">
        <ele>78.1</ele>
        <time>2017-10-15T09:20:19Z</time>
      </trkpt>
      <trkpt lat="49.10444" lon="2.14825">
        <ele>78.5</ele>
        <time>2017-10-15T09:20:25Z</time>
      </trkpt>
      <trkpt lat="49.10446" lon="2.14813">
        <ele>78.3</ele>
        <time>2017-10-15T09:20:31Z</time>
      </trkpt>
      <trkpt lat="49.10448" lon="2.14802">
        <ele>78.3</ele>
        <time>2017-10-15T09:20:37Z</time>
      </trkpt>
      <trkpt lat="49.10449" lon="2.1479">
        <ele>78.2</ele>
        <time>2017-10-15T09:20:43Z</time>
      </trkpt>
      <trkpt lat="49.1045" lon="2.14778">
        <ele>79</ele>
        <time>2017-10-15T09:20:49Z</time>
      </trkpt>
      <trkpt lat="49.10452" lon="2.14767">
        <ele>79.5</ele>
        <time>2017-10-15T09:20:55Z</time>
      </trkpt>
      <trkpt lat="49.10454" lon="2.14755">
        <ele>80.1</ele>
        <time>2017-10-15T09:21:02Z</time>
      </trkpt>
      <trkpt lat="49.10457" lon="2.14745">
        <ele>80.9</ele>
        <time>2017-10-15T09:21:08Z</time>
      </trkpt>
      <trkpt lat="49.10459" lon="2.14734">
        <ele>81.4</ele>
        <time>2017-10-15T09:21:14Z</time>
      </trkpt>
      <trkpt lat="49.10461" lon="2.14721">
        <ele>80.8</ele>
        <time>2017-10-15T09:21:20Z</time>
      </trkpt>
      <trkpt lat="49.10463" lon="2.1471">
        <ele>80.5</ele>
        <time>2017-10-15T09:21:27Z</time>
      </trkpt>
      <trkpt lat="49.10466" lon="2.14698">
        <ele>81.5</ele>
        <time>2017-10-15T09:21:33Z</time>
      </trkpt>
      <trkpt lat="49.10468" lon="2.14686">
        <ele>82.5</ele>
        <time>2017-10-15T09:21:40Z</time>
      </trkpt>
      <trkpt lat="49.1047" lon="2.14674">
        <ele>83.6</ele>
        <time>2017-10-15T09:21:47Z</time>
      </trkpt>
      <trkpt lat="49.10474" lon="2.14663">
        <ele>84.1</ele>
        <time>2017-10-15T09:21:53Z</time>
      </trkpt>
      <trkpt lat="49.10476" lon="2.14651">
        <ele>84.3</ele>
        <time>2017-10-15T09:22:00Z</time>
      </trkpt>
      <trkpt lat="49.10478" lon="2.1464">
        <ele>85.3</ele>
        <time>2017-10-15T09:22:07Z</time>
      </trkpt>
      <trkpt lat="49.1048" lon="2.14627">
        <ele>87</ele>
        <time>2017-10-15T09:22:14Z</time>
      </trkpt>
      <trkpt lat="49.10483" lon="2.14616">
        <ele>87.3</ele>
        <time>2017-10-15T09:22:21Z</time>
      </trkpt>
      <trkpt lat="49.10485" lon="2.14606">
        <ele>86.9</ele>
        <time>2017-10-15T09:22:27Z</time>
      </trkpt>
      <trkpt lat="49.10488" lon="2.14595">
        <ele>88.2</ele>
        <time>2017-10-15T09:22:34Z</time>
      </trkpt>
      <trkpt lat="49.1049" lon="2.14585">
        <ele>86.7</ele>
        <time>2017-10-15T09:22:41Z</time>
      </trkpt>
      <trkpt lat="49.10491" lon="2.14573">
        <ele>86</ele>
        <time>2017-10-15T09:22:48Z</time>
      </trkpt>
      <trkpt lat="49.10493" lon="2.1456">
        <ele>86.3</ele>
        <time>2017-10-15T09:22:55Z</time>
      </trkpt>
      <trkpt lat="49.10493" lon="2.14549">
        <ele>86.9</ele>
        <time>2017-10-15T09:23:02Z</time>
      </trkpt>
      <trkpt lat="49.10492" lon="2.14537">
        <ele>88.5</ele>
        <time>2017-10-15T09:23:08Z</time>
      </trkpt>
      <trkpt lat="49.1049" lon="2.14526">
        <ele>89.2</ele>
        <time>2017-10-15T09:23:14Z</time>
      </trkpt>
      <trkpt lat="49.10488" lon="2.14515">
        <ele>89.4</ele>
        <time>2017-10-15T09:23:21Z</time>
      </trkpt>
      <trkpt lat="49.10488" lon="2.14503">
        <ele>89.6</ele>
        <time>2017-10-15T09:23:27Z</time>
      </trkpt>
      <trkpt lat="49.10487" lon="2.14492">
        <ele>89.1</ele>
        <time>2017-10-15T09:23:33Z</time>
      </trkpt>
      <trkpt lat="49.10486" lon="2.1448">
        <ele>88.7</ele>
        <time>2017-10-15T09:23:39Z</time>
      </trkpt>
      <trkpt lat="49.10484" lon="2.14468">
        <ele>88.7</ele>
        <time>2017-10-15T09:23:46Z</time>
      </trkpt>
      <trkpt lat="49.10483" lon="2.14456">
        <ele>88.4</ele>
        <time>2017-10-15T09:23:53Z</time>
      </trkpt>
      <trkpt lat="49.10481" lon="2.14444">
        <ele>87.8</ele>
        <time>2017-10-15T09:23:59Z</time>
      </trkpt>
      <trkpt lat="49.1048" lon="2.14432">
        <ele>88.2</ele>
        <time>2017-10-15T09:24:05Z</time>
      </trkpt>
      <trkpt lat="49.10479" lon="2.14419">
        <ele>89.5</ele>
        <time>2017-10-15T09:24:12Z</time>
      </trkpt>
      <trkpt lat="49.10477" lon="2.14408">
        <ele>91</ele>
        <time>2017-10-15T09:24:19Z</time>
      </trkpt>
      <trkpt lat="49.10475" lon="2.14396">
        <ele>91</ele>
        <time>2017-10-15T09:24:26Z</time>
      </trkpt>
      <trkpt lat="49.10474" lon="2.14384">
        <ele>91.6</ele>
        <time>2017-10-15T09:24:32Z</time>
      </trkpt>
      <trkpt lat="49.10472" lon="2.14373">
        <ele>92</ele>
        <time>2017-10-15T09:24:38Z</time>
      </trkpt>
      <trkpt lat="49.1047" lon="2.14362">
        <ele>92.2</ele>
        <time>2017-10-15T09:24:44Z</time>
      </trkpt>
      <trkpt lat="49.10469" lon="2.14349">
        <ele>91.4</ele>
        <time>2017-10-15T09:24:51Z</time>
      </trkpt>
      <trkpt lat="49.10467" lon="2.14339">
        <ele>91.9</ele>
        <time>2017-10-15T09:24:57Z</time>
      </trkpt>
      <trkpt lat="49.10466" lon="2.14327">
        <ele>92.1</ele>
        <time>2017-10-15T09:25:04Z</time>
      </trkpt>
      <trkpt lat="49.10465" lon="2.14316">
        <ele>93.8</ele>
        <time>2017-10-15T09:25:10Z</time>
      </trkpt>
      <trkpt lat="49.10463" lon="2.14304">
        <ele>94.1</ele>
        <time>2017-10-15T09:25:17Z</time>
      </trkpt>
      <trkpt lat="49.10462" lon="2.14292">
        <ele>94.2</ele>
        <time>2017-10-15T09:25:24Z</time>
      </trkpt>
      <trkpt lat="49.10461" lon="2.14281">
        <ele>94.2</ele>
        <time>2017-10-15T09:25:31Z</time>
      </trkpt>
      <trkpt lat="49.10459" lon="2.1427">
        <ele>93.3</ele>
        <time>2017-10-15T09:25:36Z</time>
      </trkpt>
      <trkpt lat="49.10459" lon="2.14259">
        <ele>93.1</ele>
        <time>2017-10-15T09:25:42Z</time>
      </trkpt>
      <trkpt lat="49.10459" lon="2.14247">
        <ele>93</ele>
        <time>2017-10-15T09:25:48Z</time>
      </trkpt>
      <trkpt lat="49.10457" lon="2.14242">
        <ele>92.4</ele>
        <time>2017-10-15T09:25:55Z</time>
      </trkpt>
      <trkpt lat="49.10456" lon="2.14229">
        <ele>93.1</ele>
        <time>2017-10-15T09:26:06Z</time>
      </trkpt>
      <trkpt lat="49.10453" lon="2.14218">
        <ele>93.3</ele>
        <time>2017-10-15T09:26:11Z</time>
      </trkpt>
      <trkpt lat="49.10452" lon="2.14207">
        <ele>93.7</ele>
        <time>2017-10-15T09:26:16Z</time>
      </trkpt>
      <trkpt lat="49.1045" lon="2.14195">
        <ele>94.3</ele>
        <time>2017-10-15T09:26:21Z</time>
      </trkpt>
      <trkpt lat="49.1045" lon="2.14184">
        <ele>93.8</ele>
        <time>2017-10-15T09:26:28Z</time>
      </trkpt>
      <trkpt lat="49.10448" lon="2.14173">
        <ele>95.8</ele>
        <time>2017-10-15T09:26:35Z</time>
      </trkpt>
      <trkpt lat="49.10446" lon="2.14163">
        <ele>96.3</ele>
        <time>2017-10-15T09:26:41Z</time>
      </trkpt>
      <trkpt lat="49.10444" lon="2.14151">
        <ele>96.4</ele>
        <time>2017-10-15T09:26:48Z</time>
      </trkpt>
      <trkpt lat="49.10443" lon="2.14144">
        <ele>96.1</ele>
        <time>2017-10-15T09:26:55Z</time>
      </trkpt>
      <trkpt lat="49.10445" lon="2.14135">
        <ele>95.8</ele>
        <time>2017-10-15T09:27:02Z</time>
      </trkpt>
      <trkpt lat="49.10443" lon="2.14127">
        <ele>95.8</ele>
        <time>2017-10-15T09:27:09Z</time>
      </trkpt>
      <trkpt lat="49.10446" lon="2.14132">
        <ele>93.3</ele>
        <time>2017-10-15T09:27:40Z</time>
      </trkpt>
      <trkpt lat="49.10441" lon="2.1412">
        <ele>95.6</ele>
        <time>2017-10-15T09:28:30Z</time>
      </trkpt>
      <trkpt lat="49.10435" lon="2.14115">
        <ele>95.3</ele>
        <time>2017-10-15T09:28:37Z</time>
      </trkpt>
      <trkpt lat="49.10431" lon="2.14112">
        <ele>95.4</ele>
        <time>2017-10-15T09:28:44Z</time>
      </trkpt>
      <trkpt lat="49.10427" lon="2.14108">
        <ele>97.1</ele>
        <time>2017-10-15T09:28:51Z</time>
      </trkpt>
      <trkpt lat="49.10422" lon="2.14105">
        <ele>97.1</ele>
        <time>2017-10-15T09:28:58Z</time>
      </trkpt>
      <trkpt lat="49.10419" lon="2.14103">
        <ele>97.5</ele>
        <time>2017-10-15T09:29:05Z</time>
      </trkpt>
      <trkpt lat="49.10414" lon="2.14097">
        <ele>98.1</ele>
        <time>2017-10-15T09:29:12Z</time>
      </trkpt>
      <trkpt lat="49.10407" lon="2.1409">
        <ele>97.6</ele>
        <time>2017-10-15T09:29:18Z</time>
      </trkpt>
      <trkpt lat="49.10401" lon="2.14084">
        <ele>96.9</ele>
        <time>2017-10-15T09:29:24Z</time>
      </trkpt>
      <trkpt lat="49.10394" lon="2.14078">
        <ele>97.2</ele>
        <time>2017-10-15T09:29:30Z</time>
      </trkpt>
      <trkpt lat="49.10388" lon="2.14071">
        <ele>97.3</ele>
        <time>2017-10-15T09:29:37Z</time>
      </trkpt>
      <trkpt lat="49.10383" lon="2.14066">
        <ele>97.7</ele>
        <time>2017-10-15T09:29:44Z</time>
      </trkpt>
      <trkpt lat="49.10376" lon="2.14061">
        <ele>98.6</ele>
        <time>2017-10-15T09:29:50Z</time>
      </trkpt>
      <trkpt lat="49.1037" lon="2.14056">
        <ele>98.5</ele>
        <time>2017-10-15T09:29:57Z</time>
      </trkpt>
      <trkpt lat="49.10363" lon="2.14049">
        <ele>98.3</ele>
        <time>2017-10-15T09:30:04Z</time>
      </trkpt>
      <trkpt lat="49.10358" lon="2.14043">
        <ele>97.4</ele>
        <time>2017-10-15T09:30:10Z</time>
      </trkpt>
      <trkpt lat="49.10351" lon="2.14036">
        <ele>97</ele>
        <time>2017-10-15T09:30:16Z</time>
      </trkpt>
      <trkpt lat="49.10344" lon="2.1403">
        <ele>97.6</ele>
        <time>2017-10-15T09:30:23Z</time>
      </trkpt>
      <trkpt lat="49.10338" lon="2.14024">
        <ele>98.2</ele>
        <time>2017-10-15T09:30:30Z</time>
      </trkpt>
      <trkpt lat="49.10332" lon="2.14017">
        <ele>99</ele>
        <time>2017-10-15T09:30:36Z</time>
      </trkpt>
      <trkpt lat="49.10325" lon="2.14011">
        <ele>99.3</ele>
        <time>2017-10-15T09:30:42Z</time>
      </trkpt>
      <trkpt lat="49.10319" lon="2.14003">
        <ele>99.1</ele>
        <time>2017-10-15T09:30:49Z</time>
      </trkpt>
      <trkpt lat="49.10313" lon="2.13995">
        <ele>98.8</ele>
        <time>2017-10-15T09:30:56Z</time>
      </trkpt>
      <trkpt lat="49.10307" lon="2.13987">
        <ele>98.1</ele>
        <time>2017-10-15T09:31:03Z</time>
      </trkpt>
      <trkpt lat="49.10301" lon="2.13981">
        <ele>97.6</ele>
        <time>2017-10-15T09:31:10Z</time>
      </trkpt>
      <trkpt lat="49.10294" lon="2.13974">
        <ele>96.2</ele>
        <time>2017-10-15T09:31:16Z</time>
      </trkpt>
      <trkpt lat="49.10289" lon="2.13966">
        <ele>96.5</ele>
        <time>2017-10-15T09:31:23Z</time>
      </trkpt>
      <trkpt lat="49.10283" lon="2.13959">
        <ele>97.1</ele>
        <time>2017-10-15T09:31:29Z</time>
      </trkpt>
      <trkpt lat="49.10278" lon="2.13952">
        <ele>97.4</ele>
        <time>2017-10-15T09:31:36Z</time>
      </trkpt>
      <trkpt lat="49.10271" lon="2.13945">
        <ele>96.9</ele>
        <time>2017-10-15T09:31:42Z</time>
      </trkpt>
      <trkpt lat="49.10264" lon="2.13939">
        <ele>97.7</ele>
        <time>2017-10-15T09:31:49Z</time>
      </trkpt>
      <trkpt lat="49.10257" lon="2.13932">
        <ele>98.6</ele>
        <time>2017-10-15T09:31:56Z</time>
      </trkpt>
      <trkpt lat="49.10251" lon="2.13926">
        <ele>101</ele>
        <time>2017-10-15T09:32:02Z</time>
      </trkpt>
      <trkpt lat="49.10245" lon="2.13919">
        <ele>100.7</ele>
        <time>2017-10-15T09:32:08Z</time>
      </trkpt>
      <trkpt lat="49.10239" lon="2.13914">
        <ele>100.9</ele>
        <time>2017-10-15T09:32:15Z</time>
      </trkpt>
      <trkpt lat="49.10231" lon="2.13908">
        <ele>102.2</ele>
        <time>2017-10-15T09:32:21Z</time>
      </trkpt>
      <trkpt lat="49.10225" lon="2.13902">
        <ele>103.3</ele>
        <time>2017-10-15T09:32:27Z</time>
      </trkpt>
      <trkpt lat="49.10218" lon="2.13896">
        <ele>104.2</ele>
        <time>2017-10-15T09:32:34Z</time>
      </trkpt>
      <trkpt lat="49.10211" lon="2.13892">
        <ele>104.1</ele>
        <time>2017-10-15T09:32:41Z</time>
      </trkpt>
      <trkpt lat="49.10204" lon="2.13886">
        <ele>103.4</ele>
        <time>2017-10-15T09:32:48Z</time>
      </trkpt>
      <trkpt lat="49.10197" lon="2.13881">
        <ele>105.4</ele>
        <time>2017-10-15T09:32:55Z</time>
      </trkpt>
      <trkpt lat="49.10191" lon="2.13875">
        <ele>105.3</ele>
        <time>2017-10-15T09:33:02Z</time>
      </trkpt>
      <trkpt lat="49.10184" lon="2.13869">
        <ele>106.2</ele>
        <time>2017-10-15T09:33:09Z</time>
      </trkpt>
      <trkpt lat="49.10178" lon="2.13864">
        <ele>105.5</ele>
        <time>2017-10-15T09:33:16Z</time>
      </trkpt>
      <trkpt lat="49.10171" lon="2.13859">
        <ele>105.7</ele>
        <time>2017-10-15T09:33:22Z</time>
      </trkpt>
      <trkpt lat="49.10164" lon="2.13851">
        <ele>104.5</ele>
        <time>2017-10-15T09:33:28Z</time>
      </trkpt>
      <trkpt lat="49.10158" lon="2.13844">
        <ele>104.8</ele>
        <time>2017-10-15T09:33:34Z</time>
      </trkpt>
      <trkpt lat="49.10151" lon="2.13836">
        <ele>103.9</ele>
        <time>2017-10-15T09:33:41Z</time>
      </trkpt>
      <trkpt lat="49.10144" lon="2.1383">
        <ele>104.1</ele>
        <time>2017-10-15T09:33:48Z</time>
      </trkpt>
      <trkpt lat="49.10138" lon="2.13822">
        <ele>102.2</ele>
        <time>2017-10-15T09:33:54Z</time>
      </trkpt>
      <trkpt lat="49.10132" lon="2.13814">
        <ele>102.3</ele>
        <time>2017-10-15T09:34:00Z</time>
      </trkpt>
      <trkpt lat="49.10127" lon="2.13806">
        <ele>102.4</ele>
        <time>2017-10-15T09:34:07Z</time>
      </trkpt>
      <trkpt lat="49.10121" lon="2.13798">
        <ele>103.7</ele>
        <time>2017-10-15T09:34:14Z</time>
      </trkpt>
      <trkpt lat="49.10116" lon="2.13789">
        <ele>103.7</ele>
        <time>2017-10-15T09:34:21Z</time>
      </trkpt>
      <trkpt lat="49.10111" lon="2.13782">
        <ele>106.4</ele>
        <time>2017-10-15T09:34:28Z</time>
      </trkpt>
      <trkpt lat="49.10106" lon="2.13773">
        <ele>106.5</ele>
        <time>2017-10-15T09:34:34Z</time>
      </trkpt>
      <trkpt lat="49.10103" lon="2.13762">
        <ele>104.1</ele>
        <time>2017-10-15T09:34:40Z</time>
      </trkpt>
      <trkpt lat="49.10103" lon="2.13752">
        <ele>102.8</ele>
        <time>2017-10-15T09:34:47Z</time>
      </trkpt>
      <trkpt lat="49.10107" lon="2.13744">
        <ele>103.6</ele>
        <time>2017-10-15T09:34:54Z</time>
      </trkpt>
      <trkpt lat="49.10112" lon="2.13735">
        <ele>104.9</ele>
        <time>2017-10-15T09:35:01Z</time>
      </trkpt>
      <trkpt lat="49.10115" lon="2.13727">
        <ele>104.4</ele>
        <time>2017-10-15T09:35:08Z</time>
      </trkpt>
      <trkpt lat="49.10121" lon="2.13719">
        <ele>103.9</ele>
        <time>2017-10-15T09:35:15Z</time>
      </trkpt>
      <trkpt lat="49.10126" lon="2.1371">
        <ele>103.7</ele>
        <time>2017-10-15T09:35:22Z</time>
      </trkpt>
      <trkpt lat="49.10132" lon="2.13703">
        <ele>101.9</ele>
        <time>2017-10-15T09:35:29Z</time>
      </trkpt>
      <trkpt lat="49.10137" lon="2.13695">
        <ele>102.8</ele>
        <time>2017-10-15T09:35:35Z</time>
      </trkpt>
      <trkpt lat="49.10142" lon="2.13686">
        <ele>103.1</ele>
        <time>2017-10-15T09:35:41Z</time>
      </trkpt>
      <trkpt lat="49.10148" lon="2.13676">
        <ele>101.7</ele>
        <time>2017-10-15T09:35:47Z</time>
      </trkpt>
      <trkpt lat="49.10153" lon="2.13666">
        <ele>99.5</ele>
        <time>2017-10-15T09:35:54Z</time>
      </trkpt>
      <trkpt lat="49.10159" lon="2.13659">
        <ele>98.6</ele>
        <time>2017-10-15T09:35:59Z</time>
      </trkpt>
      <trkpt lat="49.10164" lon="2.1365">
        <ele>98.1</ele>
        <time>2017-10-15T09:36:05Z</time>
      </trkpt>
      <trkpt lat="49.10169" lon="2.1364">
        <ele>98.2</ele>
        <time>2017-10-15T09:36:11Z</time>
      </trkpt>
      <trkpt lat="49.10173" lon="2.1363">
        <ele>99.1</ele>
        <time>2017-10-15T09:36:17Z</time>
      </trkpt>
      <trkpt lat="49.10177" lon="2.13621">
        <ele>99.8</ele>
        <time>2017-10-15T09:36:23Z</time>
      </trkpt>
      <trkpt lat="49.10181" lon="2.13613">
        <ele>100.2</ele>
        <time>2017-10-15T09:36:30Z</time>
      </trkpt>
      <trkpt lat="49.10181" lon="2.13601">
        <ele>100.1</ele>
        <time>2017-10-15T09:36:36Z</time>
      </trkpt>
      <trkpt lat="49.10179" lon="2.13591">
        <ele>100.7</ele>
        <time>2017-10-15T09:36:41Z</time>
      </trkpt>
      <trkpt lat="49.10176" lon="2.13581">
        <ele>100.5</ele>
        <time>2017-10-15T09:36:47Z</time>
      </trkpt>
      <trkpt lat="49.10174" lon="2.1357">
        <ele>101.5</ele>
        <time>2017-10-15T09:36:53Z</time>
      </trkpt>
      <trkpt lat="49.10172" lon="2.13557">
        <ele>101.8</ele>
        <time>2017-10-15T09:36:59Z</time>
      </trkpt>
      <trkpt lat="49.10169" lon="2.13545">
        <ele>103.7</ele>
        <time>2017-10-15T09:37:05Z</time>
      </trkpt>
      <trkpt lat="49.10165" lon="2.13535">
        <ele>102.6</ele>
        <time>2017-10-15T09:37:11Z</time>
      </trkpt>
      <trkpt lat="49.10159" lon="2.13527">
        <ele>104</ele>
        <time>2017-10-15T09:37:17Z</time>
      </trkpt>
      <trkpt lat="49.10155" lon="2.13518">
        <ele>106.4</ele>
        <time>2017-10-15T09:37:23Z</time>
      </trkpt>
      <trkpt lat="49.10152" lon="2.13508">
        <ele>111.1</ele>
        <time>2017-10-15T09:37:30Z</time>
      </trkpt>
      <trkpt lat="49.10147" lon="2.13498">
        <ele>112.8</ele>
        <time>2017-10-15T09:37:37Z</time>
      </trkpt>
      <trkpt lat="49.10145" lon="2.13485">
        <ele>117.1</ele>
        <time>2017-10-15T09:37:43Z</time>
      </trkpt>
      <trkpt lat="49.10146" lon="2.13476">
        <ele>118.8</ele>
        <time>2017-10-15T09:37:50Z</time>
      </trkpt>
      <trkpt lat="49.10149" lon="2.13471">
        <ele>122.7</ele>
        <time>2017-10-15T09:37:57Z</time>
      </trkpt>
      <trkpt lat="49.10153" lon="2.13464">
        <ele>121</ele>
        <time>2017-10-15T09:38:04Z</time>
      </trkpt>
      <trkpt lat="49.10159" lon="2.13458">
        <ele>120.3</ele>
        <time>2017-10-15T09:38:11Z</time>
      </trkpt>
      <trkpt lat="49.10164" lon="2.13449">
        <ele>121.8</ele>
        <time>2017-10-15T09:38:18Z</time>
      </trkpt>
      <trkpt lat="49.10168" lon="2.13439">
        <ele>122.4</ele>
        <time>2017-10-15T09:38:25Z</time>
      </trkpt>
      <trkpt lat="49.10173" lon="2.1343">
        <ele>121.4</ele>
        <time>2017-10-15T09:38:30Z</time>
      </trkpt>
      <trkpt lat="49.10178" lon="2.1342">
        <ele>119.4</ele>
        <time>2017-10-15T09:38:36Z</time>
      </trkpt>
      <trkpt lat="49.10183" lon="2.13412">
        <ele>118</ele>
        <time>2017-10-15T09:38:42Z</time>
      </trkpt>
      <trkpt lat="49.10187" lon="2.13402">
        <ele>118</ele>
        <time>2017-10-15T09:38:48Z</time>
      </trkpt>
      <trkpt lat="49.1019" lon="2.13393">
        <ele>117.5</ele>
        <time>2017-10-15T09:38:54Z</time>
      </trkpt>
      <trkpt lat="49.10195" lon="2.13383">
        <ele>117.6</ele>
        <time>2017-10-15T09:39:01Z</time>
      </trkpt>
      <trkpt lat="49.10199" lon="2.13372">
        <ele>117.3</ele>
        <time>2017-10-15T09:39:08Z</time>
      </trkpt>
      <trkpt lat="49.10203" lon="2.13363">
        <ele>117.7</ele>
        <time>2017-10-15T09:39:14Z</time>
      </trkpt>
      <trkpt lat="49.10206" lon="2.1335">
        <ele>117.1</ele>
        <time>2017-10-15T09:39:21Z</time>
      </trkpt>
      <trkpt lat="49.1021" lon="2.13339">
        <ele>117.7</ele>
        <time>2017-10-15T09:39:27Z</time>
      </trkpt>
      <trkpt lat="49.10213" lon="2.13329">
        <ele>118.1</ele>
        <time>2017-10-15T09:39:33Z</time>
      </trkpt>
      <trkpt lat="49.10218" lon="2.1332">
        <ele>118</ele>
        <time>2017-10-15T09:39:39Z</time>
      </trkpt>
      <trkpt lat="49.10223" lon="2.13312">
        <ele>118.3</ele>
        <time>2017-10-15T09:39:44Z</time>
      </trkpt>
      <trkpt lat="49.10227" lon="2.13303">
        <ele>117.2</ele>
        <time>2017-10-15T09:39:49Z</time>
      </trkpt>
      <trkpt lat="49.10229" lon="2.13292">
        <ele>116</ele>
        <time>2017-10-15T09:39:54Z</time>
      </trkpt>
      <trkpt lat="49.10229" lon="2.1328">
        <ele>116.4</ele>
        <time>2017-10-15T09:40:00Z</time>
      </trkpt>
      <trkpt lat="49.10228" lon="2.13268">
        <ele>113.8</ele>
        <time>2017-10-15T09:40:06Z</time>
      </trkpt>
      <trkpt lat="49.10226" lon="2.13257">
        <ele>114.1</ele>
        <time>2017-10-15T09:40:13Z</time>
      </trkpt>
      <trkpt lat="49.10223" lon="2.13252">
        <ele>113.4</ele>
        <time>2017-10-15T09:40:20Z</time>
      </trkpt>
      <trkpt lat="49.10217" lon="2.13247">
        <ele>111.6</ele>
        <time>2017-10-15T09:40:27Z</time>
      </trkpt>
      <trkpt lat="49.1021" lon="2.13241">
        <ele>111</ele>
        <time>2017-10-15T09:40:33Z</time>
      </trkpt>
      <trkpt lat="49.10204" lon="2.13233">
        <ele>111.1</ele>
        <time>2017-10-15T09:40:40Z</time>
      </trkpt>
      <trkpt lat="49.10197" lon="2.13231">
        <ele>110.4</ele>
        <time>2017-10-15T09:40:46Z</time>
      </trkpt>
      <trkpt lat="49.1019" lon="2.13232">
        <ele>110.9</ele>
        <time>2017-10-15T09:40:53Z</time>
      </trkpt>
      <trkpt lat="49.10182" lon="2.13231">
        <ele>110.4</ele>
        <time>2017-10-15T09:40:59Z</time>
      </trkpt>
      <trkpt lat="49.10175" lon="2.1323">
        <ele>109.3</ele>
        <time>2017-10-15T09:41:06Z</time>
      </trkpt>
      <trkpt lat="49.10173" lon="2.13235">
        <ele>108.5</ele>
        <time>2017-10-15T09:41:13Z</time>
      </trkpt>
      <trkpt lat="49.10165" lon="2.1323">
        <ele>109.7</ele>
        <time>2017-10-15T09:41:38Z</time>
      </trkpt>
      <trkpt lat="49.10158" lon="2.13228">
        <ele>110.2</ele>
        <time>2017-10-15T09:41:45Z</time>
      </trkpt>
      <trkpt lat="49.10155" lon="2.13218">
        <ele>110.2</ele>
        <time>2017-10-15T09:41:52Z</time>
      </trkpt>
      <trkpt lat="49.10156" lon="2.13215">
        <ele>110</ele>
        <time>2017-10-15T09:41:59Z</time>
      </trkpt>
      <trkpt lat="49.10148" lon="2.13215">
        <ele>111.8</ele>
        <time>2017-10-15T09:42:47Z</time>
      </trkpt>
      <trkpt lat="49.10144" lon="2.13215">
        <ele>112</ele>
        <time>2017-10-15T09:42:54Z</time>
      </trkpt>
      <trkpt lat="49.10138" lon="2.13213">
        <ele>112.3</ele>
        <time>2017-10-15T09:43:01Z</time>
      </trkpt>
      <trkpt lat="49.10132" lon="2.1321">
        <ele>111.3</ele>
        <time>2017-10-15T09:43:08Z</time>
      </trkpt>
      <trkpt lat="49.10128" lon="2.1321">
        <ele>111.3</ele>
        <time>2017-10-15T09:43:15Z</time>
      </trkpt>
      <trkpt lat="49.10127" lon="2.1321">
        <ele>110.3</ele>
        <time>2017-10-15T09:43:22Z</time>
      </trkpt>
      <trkpt lat="49.1012" lon="2.13206">
        <ele>113.1</ele>
        <time>2017-10-15T09:43:47Z</time>
      </trkpt>
      <trkpt lat="49.10115" lon="2.13198">
        <ele>114.1</ele>
        <time>2017-10-15T09:43:54Z</time>
      </trkpt>
      <trkpt lat="49.1011" lon="2.13188">
        <ele>114.5</ele>
        <time>2017-10-15T09:44:01Z</time>
      </trkpt>
      <trkpt lat="49.10107" lon="2.13183">
        <ele>112.3</ele>
        <time>2017-10-15T09:44:08Z</time>
      </trkpt>
      <trkpt lat="49.10104" lon="2.13171">
        <ele>109.9</ele>
        <time>2017-10-15T09:44:15Z</time>
      </trkpt>
      <trkpt lat="49.10104" lon="2.13161">
        <ele>106.9</ele>
        <time>2017-10-15T09:44:22Z</time>
      </trkpt>
      <trkpt lat="49.10109" lon="2.13151">
        <ele>105.8</ele>
        <time>2017-10-15T09:44:29Z</time>
      </trkpt>
      <trkpt lat="49.10114" lon="2.13146">
        <ele>104</ele>
        <time>2017-10-15T09:44:36Z</time>
      </trkpt>
      <trkpt lat="49.10119" lon="2.1314">
        <ele>104.2</ele>
        <time>2017-10-15T09:44:43Z</time>
      </trkpt>
      <trkpt lat="49.10123" lon="2.13133">
        <ele>105.8</ele>
        <time>2017-10-15T09:44:50Z</time>
      </trkpt>
      <trkpt lat="49.1013" lon="2.13129">
        <ele>104.8</ele>
        <time>2017-10-15T09:44:57Z</time>
      </trkpt>
      <trkpt lat="49.10135" lon="2.13122">
        <ele>104.6</ele>
        <time>2017-10-15T09:45:04Z</time>
      </trkpt>
      <trkpt lat="49.1014" lon="2.13116">
        <ele>103.8</ele>
        <time>2017-10-15T09:45:11Z</time>
      </trkpt>
      <trkpt lat="49.10145" lon="2.13106">
        <ele>104.2</ele>
        <time>2017-10-15T09:45:18Z</time>
      </trkpt>
      <trkpt lat="49.1015" lon="2.13097">
        <ele>103.5</ele>
        <time>2017-10-15T09:45:24Z</time>
      </trkpt>
      <trkpt lat="49.10152" lon="2.13087">
        <ele>103.8</ele>
        <time>2017-10-15T09:45:31Z</time>
      </trkpt>
      <trkpt lat="49.10155" lon="2.13075">
        <ele>103.5</ele>
        <time>2017-10-15T09:45:38Z</time>
      </trkpt>
      <trkpt lat="49.10155" lon="2.13064">
        <ele>105.1</ele>
        <time>2017-10-15T09:45:45Z</time>
      </trkpt>
      <trkpt lat="49.10154" lon="2.13053">
        <ele>104.6</ele>
        <time>2017-10-15T09:45:51Z</time>
      </trkpt>
      <trkpt lat="49.10152" lon="2.13043">
        <ele>103</ele>
        <time>2017-10-15T09:45:58Z</time>
      </trkpt>
      <trkpt lat="49.10152" lon="2.13034">
        <ele>101.1</ele>
        <time>2017-10-15T09:46:05Z</time>
      </trkpt>
      <trkpt lat="49.10151" lon="2.13026">
        <ele>101.4</ele>
        <time>2017-10-15T09:46:12Z</time>
      </trkpt>
      <trkpt lat="49.10149" lon="2.13019">
        <ele>100.1</ele>
        <time>2017-10-15T09:46:19Z</time>
      </trkpt>
      <trkpt lat="49.10148" lon="2.13009">
        <ele>94.6</ele>
        <time>2017-10-15T09:46:26Z</time>
      </trkpt>
      <trkpt lat="49.10148" lon="2.12998">
        <ele>90.9</ele>
        <time>2017-10-15T09:46:31Z</time>
      </trkpt>
      <trkpt lat="49.10144" lon="2.12988">
        <ele>96.8</ele>
        <time>2017-10-15T09:46:36Z</time>
      </trkpt>
      <trkpt lat="49.1014" lon="2.12979">
        <ele>94.6</ele>
        <time>2017-10-15T09:46:42Z</time>
      </trkpt>
      <trkpt lat="49.10141" lon="2.12966">
        <ele>94</ele>
        <time>2017-10-15T09:46:49Z</time>
      </trkpt>
      <trkpt lat="49.10141" lon="2.12954">
        <ele>93.2</ele>
        <time>2017-10-15T09:46:56Z</time>
      </trkpt>
      <trkpt lat="49.10143" lon="2.12945">
        <ele>93</ele>
        <time>2017-10-15T09:47:03Z</time>
      </trkpt>
      <trkpt lat="49.10145" lon="2.12934">
        <ele>91.8</ele>
        <time>2017-10-15T09:47:10Z</time>
      </trkpt>
      <trkpt lat="49.10147" lon="2.12922">
        <ele>94.1</ele>
        <time>2017-10-15T09:47:16Z</time>
      </trkpt>
      <trkpt lat="49.10148" lon="2.1291">
        <ele>93.7</ele>
        <time>2017-10-15T09:47:22Z</time>
      </trkpt>
      <trkpt lat="49.10149" lon="2.12898">
        <ele>94.2</ele>
        <time>2017-10-15T09:47:28Z</time>
      </trkpt>
      <trkpt lat="49.1015" lon="2.12886">
        <ele>92.9</ele>
        <time>2017-10-15T09:47:34Z</time>
      </trkpt>
      <trkpt lat="49.10151" lon="2.12875">
        <ele>94</ele>
        <time>2017-10-15T09:47:41Z</time>
      </trkpt>
      <trkpt lat="49.10153" lon="2.12865">
        <ele>93.6</ele>
        <time>2017-10-15T09:47:47Z</time>
      </trkpt>
      <trkpt lat="49.10155" lon="2.12854">
        <ele>94.2</ele>
        <time>2017-10-15T09:47:54Z</time>
      </trkpt>
      <trkpt lat="49.10156" lon="2.12843">
        <ele>95.1</ele>
        <time>2017-10-15T09:48:00Z</time>
      </trkpt>
      <trkpt lat="49.10157" lon="2.12832">
        <ele>95.7</ele>
        <time>2017-10-15T09:48:07Z</time>
      </trkpt>
      <trkpt lat="49.10162" lon="2.12823">
        <ele>96.9</ele>
        <time>2017-10-15T09:48:14Z</time>
      </trkpt>
      <trkpt lat="49.10166" lon="2.12813">
        <ele>95.7</ele>
        <time>2017-10-15T09:48:21Z</time>
      </trkpt>
      <trkpt lat="49.1017" lon="2.12803">
        <ele>94.7</ele>
        <time>2017-10-15T09:48:28Z</time>
      </trkpt>
      <trkpt lat="49.10173" lon="2.12797">
        <ele>94.7</ele>
        <time>2017-10-15T09:48:35Z</time>
      </trkpt>
      <trkpt lat="49.10178" lon="2.12786">
        <ele>93.8</ele>
        <time>2017-10-15T09:48:42Z</time>
      </trkpt>
      <trkpt lat="49.10183" lon="2.12777">
        <ele>94.3</ele>
        <time>2017-10-15T09:48:49Z</time>
      </trkpt>
      <trkpt lat="49.10188" lon="2.12767">
        <ele>94.3</ele>
        <time>2017-10-15T09:48:56Z</time>
      </trkpt>
      <trkpt lat="49.10192" lon="2.12758">
        <ele>93.9</ele>
        <time>2017-10-15T09:49:03Z</time>
      </trkpt>
      <trkpt lat="49.10193" lon="2.12755">
        <ele>95.1</ele>
        <time>2017-10-15T09:49:10Z</time>
      </trkpt>
      <trkpt lat="49.10196" lon="2.12746">
        <ele>96.5</ele>
        <time>2017-10-15T09:49:23Z</time>
      </trkpt>
      <trkpt lat="49.10201" lon="2.12736">
        <ele>99.4</ele>
        <time>2017-10-15T09:49:30Z</time>
      </trkpt>
      <trkpt lat="49.10206" lon="2.12726">
        <ele>102.2</ele>
        <time>2017-10-15T09:49:36Z</time>
      </trkpt>
      <trkpt lat="49.10211" lon="2.12718">
        <ele>103.1</ele>
        <time>2017-10-15T09:49:41Z</time>
      </trkpt>
      <trkpt lat="49.10217" lon="2.12707">
        <ele>101.3</ele>
        <time>2017-10-15T09:49:47Z</time>
      </trkpt>
      <trkpt lat="49.10223" lon="2.12698">
        <ele>98.6</ele>
        <time>2017-10-15T09:49:53Z</time>
      </trkpt>
      <trkpt lat="49.10227" lon="2.12688">
        <ele>98.7</ele>
        <time>2017-10-15T09:49:59Z</time>
      </trkpt>
      <trkpt lat="49.10232" lon="2.12677">
        <ele>99</ele>
        <time>2017-10-15T09:50:03Z</time>
      </trkpt>
      <trkpt lat="49.10236" lon="2.12666">
        <ele>98.7</ele>
        <time>2017-10-15T09:50:08Z</time>
      </trkpt>
      <trkpt lat="49.1024" lon="2.12658">
        <ele>98.6</ele>
        <time>2017-10-15T09:50:15Z</time>
      </trkpt>
      <trkpt lat="49.10242" lon="2.12653">
        <ele>98.8</ele>
        <time>2017-10-15T09:50:22Z</time>
      </trkpt>
      <trkpt lat="49.10247" lon="2.12644">
        <ele>98.6</ele>
        <time>2017-10-15T09:50:29Z</time>
      </trkpt>
      <trkpt lat="49.10251" lon="2.12634">
        <ele>98.9</ele>
        <time>2017-10-15T09:50:36Z</time>
      </trkpt>
      <trkpt lat="49.10251" lon="2.12631">
        <ele>96.9</ele>
        <time>2017-10-15T09:50:43Z</time>
      </trkpt>
      <trkpt lat="49.10255" lon="2.12621">
        <ele>97.7</ele>
        <time>2017-10-15T09:51:07Z</time>
      </trkpt>
      <trkpt lat="49.10259" lon="2.12613">
        <ele>98.1</ele>
        <time>2017-10-15T09:51:14Z</time>
      </trkpt>
      <trkpt lat="49.10262" lon="2.12608">
        <ele>96.5</ele>
        <time>2017-10-15T09:51:21Z</time>
      </trkpt>
      <trkpt lat="49.10266" lon="2.126">
        <ele>96.5</ele>
        <time>2017-10-15T09:51:37Z</time>
      </trkpt>
      <trkpt lat="49.10269" lon="2.12596">
        <ele>96.8</ele>
        <time>2017-10-15T09:51:44Z</time>
      </trkpt>
      <trkpt lat="49.10274" lon="2.12587">
        <ele>98.5</ele>
        <time>2017-10-15T09:51:51Z</time>
      </trkpt>
      <trkpt lat="49.10279" lon="2.12579">
        <ele>96.6</ele>
        <time>2017-10-15T09:51:57Z</time>
      </trkpt>
      <trkpt lat="49.10285" lon="2.1257">
        <ele>96.5</ele>
        <time>2017-10-15T09:52:04Z</time>
      </trkpt>
      <trkpt lat="49.10291" lon="2.12562">
        <ele>96.5</ele>
        <time>2017-10-15T09:52:10Z</time>
      </trkpt>
      <trkpt lat="49.10296" lon="2.12554">
        <ele>96.8</ele>
        <time>2017-10-15T09:52:16Z</time>
      </trkpt>
      <trkpt lat="49.10301" lon="2.12545">
        <ele>97.7</ele>
        <time>2017-10-15T09:52:23Z</time>
      </trkpt>
      <trkpt lat="49.10306" lon="2.12536">
        <ele>96.6</ele>
        <time>2017-10-15T09:52:30Z</time>
      </trkpt>
      <trkpt lat="49.10311" lon="2.12526">
        <ele>96.1</ele>
        <time>2017-10-15T09:52:36Z</time>
      </trkpt>
      <trkpt lat="49.10315" lon="2.12517">
        <ele>97.5</ele>
        <time>2017-10-15T09:52:43Z</time>
      </trkpt>
      <trkpt lat="49.10319" lon="2.12507">
        <ele>98.7</ele>
        <time>2017-10-15T09:52:49Z</time>
      </trkpt>
      <trkpt lat="49.10325" lon="2.12499">
        <ele>98.8</ele>
        <time>2017-10-15T09:52:56Z</time>
      </trkpt>
      <trkpt lat="49.10329" lon="2.12489">
        <ele>99.3</ele>
        <time>2017-10-15T09:53:03Z</time>
      </trkpt>
      <trkpt lat="49.10333" lon="2.12479">
        <ele>99.8</ele>
        <time>2017-10-15T09:53:10Z</time>
      </trkpt>
      <trkpt lat="49.10338" lon="2.1247">
        <ele>98.6</ele>
        <time>2017-10-15T09:53:16Z</time>
      </trkpt>
      <trkpt lat="49.10342" lon="2.1246">
        <ele>97.9</ele>
        <time>2017-10-15T09:53:22Z</time>
      </trkpt>
      <trkpt lat="49.10347" lon="2.1245">
        <ele>96.9</ele>
        <time>2017-10-15T09:53:28Z</time>
      </trkpt>
      <trkpt lat="49.10352" lon="2.12441">
        <ele>97.4</ele>
        <time>2017-10-15T09:53:34Z</time>
      </trkpt>
      <trkpt lat="49.10356" lon="2.12431">
        <ele>98.9</ele>
        <time>2017-10-15T09:53:41Z</time>
      </trkpt>
      <trkpt lat="49.1036" lon="2.12419">
        <ele>98.7</ele>
        <time>2017-10-15T09:53:48Z</time>
      </trkpt>
      <trkpt lat="49.10364" lon="2.1241">
        <ele>98.9</ele>
        <time>2017-10-15T09:53:54Z</time>
      </trkpt>
      <trkpt lat="49.10368" lon="2.124">
        <ele>97.8</ele>
        <time>2017-10-15T09:54:00Z</time>
      </trkpt>
      <trkpt lat="49.10373" lon="2.12389">
        <ele>97.7</ele>
        <time>2017-10-15T09:54:06Z</time>
      </trkpt>
      <trkpt lat="49.10377" lon="2.1238">
        <ele>96.6</ele>
        <time>2017-10-15T09:54:11Z</time>
      </trkpt>
      <trkpt lat="49.10382" lon="2.1237">
        <ele>95.3</ele>
        <time>2017-10-15T09:54:17Z</time>
      </trkpt>
      <trkpt lat="49.10387" lon="2.1236">
        <ele>94.8</ele>
        <time>2017-10-15T09:54:24Z</time>
      </trkpt>
      <trkpt lat="49.10391" lon="2.1235">
        <ele>95.9</ele>
        <time>2017-10-15T09:54:30Z</time>
      </trkpt>
      <trkpt lat="49.10397" lon="2.12342">
        <ele>96.8</ele>
        <time>2017-10-15T09:54:36Z</time>
      </trkpt>
      <trkpt lat="49.10401" lon="2.12334">
        <ele>96.8</ele>
        <time>2017-10-15T09:54:42Z</time>
      </trkpt>
      <trkpt lat="49.10407" lon="2.12325">
        <ele>97.5</ele>
        <time>2017-10-15T09:54:48Z</time>
      </trkpt>
      <trkpt lat="49.10414" lon="2.12317">
        <ele>97.1</ele>
        <time>2017-10-15T09:54:54Z</time>
      </trkpt>
      <trkpt lat="49.10419" lon="2.1231">
        <ele>96.7</ele>
        <time>2017-10-15T09:55:00Z</time>
      </trkpt>
      <trkpt lat="49.10425" lon="2.123">
        <ele>97</ele>
        <time>2017-10-15T09:55:07Z</time>
      </trkpt>
      <trkpt lat="49.10431" lon="2.12293">
        <ele>97.3</ele>
        <time>2017-10-15T09:55:14Z</time>
      </trkpt>
      <trkpt lat="49.10437" lon="2.12286">
        <ele>97.9</ele>
        <time>2017-10-15T09:55:20Z</time>
      </trkpt>
      <trkpt lat="49.10444" lon="2.12279">
        <ele>98.2</ele>
        <time>2017-10-15T09:55:26Z</time>
      </trkpt>
      <trkpt lat="49.10449" lon="2.12271">
        <ele>98.3</ele>
        <time>2017-10-15T09:55:32Z</time>
      </trkpt>
      <trkpt lat="49.10455" lon="2.12264">
        <ele>98.6</ele>
        <time>2017-10-15T09:55:38Z</time>
      </trkpt>
      <trkpt lat="49.1046" lon="2.12255">
        <ele>98.2</ele>
        <time>2017-10-15T09:55:44Z</time>
      </trkpt>
      <trkpt lat="49.10466" lon="2.12248">
        <ele>98.2</ele>
        <time>2017-10-15T09:55:50Z</time>
      </trkpt>
      <trkpt lat="49.10471" lon="2.1224">
        <ele>98.4</ele>
        <time>2017-10-15T09:55:56Z</time>
      </trkpt>
      <trkpt lat="49.10477" lon="2.12233">
        <ele>97.7</ele>
        <time>2017-10-15T09:56:02Z</time>
      </trkpt>
      <trkpt lat="49.10483" lon="2.12226">
        <ele>99.1</ele>
        <time>2017-10-15T09:56:08Z</time>
      </trkpt>
      <trkpt lat="49.10489" lon="2.12218">
        <ele>98</ele>
        <time>2017-10-15T09:56:15Z</time>
      </trkpt>
      <trkpt lat="49.10495" lon="2.1221">
        <ele>97.9</ele>
        <time>2017-10-15T09:56:21Z</time>
      </trkpt>
      <trkpt lat="49.10501" lon="2.12202">
        <ele>98.6</ele>
        <time>2017-10-15T09:56:27Z</time>
      </trkpt>
      <trkpt lat="49.10506" lon="2.12194">
        <ele>99.7</ele>
        <time>2017-10-15T09:56:33Z</time>
      </trkpt>
      <trkpt lat="49.10512" lon="2.12187">
        <ele>100.8</ele>
        <time>2017-10-15T09:56:39Z</time>
      </trkpt>
      <trkpt lat="49.10519" lon="2.12181">
        <ele>102.8</ele>
        <time>2017-10-15T09:56:45Z</time>
      </trkpt>
      <trkpt lat="49.10525" lon="2.12172">
        <ele>103.4</ele>
        <time>2017-10-15T09:56:51Z</time>
      </trkpt>
      <trkpt lat="49.1053" lon="2.12164">
        <ele>102.8</ele>
        <time>2017-10-15T09:56:57Z</time>
      </trkpt>
      <trkpt lat="49.10536" lon="2.12157">
        <ele>104</ele>
        <time>2017-10-15T09:57:03Z</time>
      </trkpt>
      <trkpt lat="49.10542" lon="2.12151">
        <ele>103.8</ele>
        <time>2017-10-15T09:57:09Z</time>
      </trkpt>
      <trkpt lat="49.10549" lon="2.12143">
        <ele>104.4</ele>
        <time>2017-10-15T09:57:16Z</time>
      </trkpt>
      <trkpt lat="49.10555" lon="2.12134">
        <ele>103.7</ele>
        <time>2017-10-15T09:57:23Z</time>
      </trkpt>
      <trkpt lat="49.1056" lon="2.12127">
        <ele>103.1</ele>
        <time>2017-10-15T09:57:29Z</time>
      </trkpt>
      <trkpt lat="49.10567" lon="2.12121">
        <ele>101.5</ele>
        <time>2017-10-15T09:57:35Z</time>
      </trkpt>
      <trkpt lat="49.10574" lon="2.12117">
        <ele>101.6</ele>
        <time>2017-10-15T09:57:41Z</time>
      </trkpt>
      <trkpt lat="49.10581" lon="2.12111">
        <ele>100.5</ele>
        <time>2017-10-15T09:57:47Z</time>
      </trkpt>
      <trkpt lat="49.10587" lon="2.12105">
        <ele>100.4</ele>
        <time>2017-10-15T09:57:53Z</time>
      </trkpt>
      <trkpt lat="49.10594" lon="2.121">
        <ele>100.1</ele>
        <time>2017-10-15T09:57:59Z</time>
      </trkpt>
      <trkpt lat="49.10601" lon="2.12093">
        <ele>101.1</ele>
        <time>2017-10-15T09:58:05Z</time>
      </trkpt>
      <trkpt lat="49.10608" lon="2.12087">
        <ele>100.6</ele>
        <time>2017-10-15T09:58:11Z</time>
      </trkpt>
      <trkpt lat="49.10615" lon="2.12082">
        <ele>100.6</ele>
        <time>2017-10-15T09:58:17Z</time>
      </trkpt>
      <trkpt lat="49.10622" lon="2.12076">
        <ele>100.3</ele>
        <time>2017-10-15T09:58:23Z</time>
      </trkpt>
      <trkpt lat="49.10628" lon="2.12071">
        <ele>101.1</ele>
        <time>2017-10-15T09:58:29Z</time>
      </trkpt>
      <trkpt lat="49.10635" lon="2.12065">
        <ele>101.7</ele>
        <time>2017-10-15T09:58:35Z</time>
      </trkpt>
      <trkpt lat="49.10642" lon="2.1206">
        <ele>100.9</ele>
        <time>2017-10-15T09:58:41Z</time>
      </trkpt>
      <trkpt lat="49.10649" lon="2.12054">
        <ele>102.1</ele>
        <time>2017-10-15T09:58:48Z</time>
      </trkpt>
      <trkpt lat="49.10655" lon="2.12047">
        <ele>102.2</ele>
        <time>2017-10-15T09:58:54Z</time>
      </trkpt>
      <trkpt lat="49.10662" lon="2.12042">
        <ele>102.5</ele>
        <time>2017-10-15T09:59:00Z</time>
      </trkpt>
      <trkpt lat="49.10668" lon="2.12036">
        <ele>103.5</ele>
        <time>2017-10-15T09:59:06Z</time>
      </trkpt>
      <trkpt lat="49.10675" lon="2.12031">
        <ele>104.5</ele>
        <time>2017-10-15T09:59:12Z</time>
      </trkpt>
      <trkpt lat="49.10682" lon="2.12027">
        <ele>103.7</ele>
        <time>2017-10-15T09:59:18Z</time>
      </trkpt>
      <trkpt lat="49.1069" lon="2.12023">
        <ele>103.4</ele>
        <time>2017-10-15T09:59:25Z</time>
      </trkpt>
      <trkpt lat="49.10697" lon="2.1202">
        <ele>102.3</ele>
        <time>2017-10-15T09:59:30Z</time>
      </trkpt>
      <trkpt lat="49.10704" lon="2.12017">
        <ele>102.4</ele>
        <time>2017-10-15T09:59:36Z</time>
      </trkpt>
      <trkpt lat="49.10712" lon="2.12013">
        <ele>102</ele>
        <time>2017-10-15T09:59:42Z</time>
      </trkpt>
      <trkpt lat="49.10719" lon="2.12009">
        <ele>101.4</ele>
        <time>2017-10-15T09:59:48Z</time>
      </trkpt>
      <trkpt lat="49.10726" lon="2.12003">
        <ele>101.6</ele>
        <time>2017-10-15T09:59:54Z</time>
      </trkpt>
      <trkpt lat="49.10732" lon="2.11997">
        <ele>101.3</ele>
        <time>2017-10-15T10:00:00Z</time>
      </trkpt>
      <trkpt lat="49.10739" lon="2.11991">
        <ele>102.6</ele>
        <time>2017-10-15T10:00:06Z</time>
      </trkpt>
      <trkpt lat="49.10746" lon="2.11986">
        <ele>103.4</ele>
        <time>2017-10-15T10:00:12Z</time>
      </trkpt>
      <trkpt lat="49.10753" lon="2.11983">
        <ele>103.4</ele>
        <time>2017-10-15T10:00:18Z</time>
      </trkpt>
      <trkpt lat="49.1076" lon="2.11977">
        <ele>102.6</ele>
        <time>2017-10-15T10:00:25Z</time>
      </trkpt>
      <trkpt lat="49.10767" lon="2.11973">
        <ele>103.6</ele>
        <time>2017-10-15T10:00:32Z</time>
      </trkpt>
      <trkpt lat="49.10774" lon="2.11967">
        <ele>105.9</ele>
        <time>2017-10-15T10:00:39Z</time>
      </trkpt>
      <trkpt lat="49.10781" lon="2.11963">
        <ele>104.8</ele>
        <time>2017-10-15T10:00:46Z</time>
      </trkpt>
      <trkpt lat="49.10788" lon="2.11959">
        <ele>103.4</ele>
        <time>2017-10-15T10:00:53Z</time>
      </trkpt>
      <trkpt lat="49.10795" lon="2.11955">
        <ele>102.3</ele>
        <time>2017-10-15T10:01:00Z</time>
      </trkpt>
      <trkpt lat="49.10803" lon="2.11951">
        <ele>101.6</ele>
        <time>2017-10-15T10:01:07Z</time>
      </trkpt>
      <trkpt lat="49.10811" lon="2.11946">
        <ele>100.8</ele>
        <time>2017-10-15T10:01:14Z</time>
      </trkpt>
      <trkpt lat="49.10818" lon="2.11941">
        <ele>101.5</ele>
        <time>2017-10-15T10:01:20Z</time>
      </trkpt>
      <trkpt lat="49.10825" lon="2.11936">
        <ele>102.5</ele>
        <time>2017-10-15T10:01:26Z</time>
      </trkpt>
      <trkpt lat="49.10831" lon="2.1193">
        <ele>102.7</ele>
        <time>2017-10-15T10:01:32Z</time>
      </trkpt>
      <trkpt lat="49.10839" lon="2.11925">
        <ele>103.3</ele>
        <time>2017-10-15T10:01:38Z</time>
      </trkpt>
      <trkpt lat="49.10846" lon="2.1192">
        <ele>103.4</ele>
        <time>2017-10-15T10:01:44Z</time>
      </trkpt>
      <trkpt lat="49.10854" lon="2.11914">
        <ele>102.9</ele>
        <time>2017-10-15T10:01:51Z</time>
      </trkpt>
      <trkpt lat="49.10862" lon="2.11909">
        <ele>103.2</ele>
        <time>2017-10-15T10:01:57Z</time>
      </trkpt>
      <trkpt lat="49.10869" lon="2.11905">
        <ele>102.6</ele>
        <time>2017-10-15T10:02:03Z</time>
      </trkpt>
      <trkpt lat="49.10876" lon="2.119">
        <ele>101.8</ele>
        <time>2017-10-15T10:02:10Z</time>
      </trkpt>
      <trkpt lat="49.10882" lon="2.11897">
        <ele>100.8</ele>
        <time>2017-10-15T10:02:17Z</time>
      </trkpt>
      <trkpt lat="49.10886" lon="2.11892">
        <ele>99.4</ele>
        <time>2017-10-15T10:02:24Z</time>
      </trkpt>
      <trkpt lat="49.10893" lon="2.11887">
        <ele>100.1</ele>
        <time>2017-10-15T10:02:30Z</time>
      </trkpt>
      <trkpt lat="49.10901" lon="2.11882">
        <ele>100.8</ele>
        <time>2017-10-15T10:02:36Z</time>
      </trkpt>
      <trkpt lat="49.10908" lon="2.11878">
        <ele>101.5</ele>
        <time>2017-10-15T10:02:41Z</time>
      </trkpt>
      <trkpt lat="49.10915" lon="2.11874">
        <ele>102</ele>
        <time>2017-10-15T10:02:47Z</time>
      </trkpt>
      <trkpt lat="49.10923" lon="2.1187">
        <ele>102.3</ele>
        <time>2017-10-15T10:02:53Z</time>
      </trkpt>
      <trkpt lat="49.1093" lon="2.11864">
        <ele>103</ele>
        <time>2017-10-15T10:02:59Z</time>
      </trkpt>
      <trkpt lat="49.10938" lon="2.11859">
        <ele>103.5</ele>
        <time>2017-10-15T10:03:05Z</time>
      </trkpt>
      <trkpt lat="49.10945" lon="2.11854">
        <ele>103.4</ele>
        <time>2017-10-15T10:03:11Z</time>
      </trkpt>
      <trkpt lat="49.10952" lon="2.11848">
        <ele>103.7</ele>
        <time>2017-10-15T10:03:17Z</time>
      </trkpt>
      <trkpt lat="49.10958" lon="2.11841">
        <ele>103.1</ele>
        <time>2017-10-15T10:03:23Z</time>
      </trkpt>
      <trkpt lat="49.10964" lon="2.11834">
        <ele>104.9</ele>
        <time>2017-10-15T10:03:29Z</time>
      </trkpt>
      <trkpt lat="49.10971" lon="2.11827">
        <ele>104.7</ele>
        <time>2017-10-15T10:03:35Z</time>
      </trkpt>
      <trkpt lat="49.10978" lon="2.11819">
        <ele>104.8</ele>
        <time>2017-10-15T10:03:41Z</time>
      </trkpt>
      <trkpt lat="49.10984" lon="2.11813">
        <ele>106.1</ele>
        <time>2017-10-15T10:03:47Z</time>
      </trkpt>
      <trkpt lat="49.10991" lon="2.11806">
        <ele>106.5</ele>
        <time>2017-10-15T10:03:54Z</time>
      </trkpt>
      <trkpt lat="49.10997" lon="2.118">
        <ele>107.1</ele>
        <time>2017-10-15T10:04:00Z</time>
      </trkpt>
      <trkpt lat="49.11003" lon="2.11792">
        <ele>105.4</ele>
        <time>2017-10-15T10:04:06Z</time>
      </trkpt>
      <trkpt lat="49.11009" lon="2.11782">
        <ele>104.5</ele>
        <time>2017-10-15T10:04:12Z</time>
      </trkpt>
      <trkpt lat="49.11014" lon="2.11773">
        <ele>103.5</ele>
        <time>2017-10-15T10:04:18Z</time>
      </trkpt>
      <trkpt lat="49.11015" lon="2.11768">
        <ele>101.5</ele>
        <time>2017-10-15T10:04:25Z</time>
      </trkpt>
      <trkpt lat="49.1102" lon="2.11761">
        <ele>99.1</ele>
        <time>2017-10-15T10:04:59Z</time>
      </trkpt>
      <trkpt lat="49.11024" lon="2.11753">
        <ele>97.8</ele>
        <time>2017-10-15T10:05:06Z</time>
      </trkpt>
      <trkpt lat="49.1103" lon="2.11744">
        <ele>97.9</ele>
        <time>2017-10-15T10:05:13Z</time>
      </trkpt>
      <trkpt lat="49.11036" lon="2.11736">
        <ele>98.5</ele>
        <time>2017-10-15T10:05:19Z</time>
      </trkpt>
      <trkpt lat="49.11041" lon="2.11728">
        <ele>99.7</ele>
        <time>2017-10-15T10:05:25Z</time>
      </trkpt>
      <trkpt lat="49.11047" lon="2.11722">
        <ele>98.9</ele>
        <time>2017-10-15T10:05:32Z</time>
      </trkpt>
      <trkpt lat="49.11052" lon="2.11712">
        <ele>98.9</ele>
        <time>2017-10-15T10:05:38Z</time>
      </trkpt>
      <trkpt lat="49.11058" lon="2.11704">
        <ele>100.7</ele>
        <time>2017-10-15T10:05:45Z</time>
      </trkpt>
      <trkpt lat="49.11064" lon="2.11695">
        <ele>102</ele>
        <time>2017-10-15T10:05:52Z</time>
      </trkpt>
      <trkpt lat="49.1107" lon="2.11687">
        <ele>102.1</ele>
        <time>2017-10-15T10:05:58Z</time>
      </trkpt>
      <trkpt lat="49.11075" lon="2.1168">
        <ele>102.7</ele>
        <time>2017-10-15T10:06:05Z</time>
      </trkpt>
      <trkpt lat="49.11081" lon="2.11672">
        <ele>103.8</ele>
        <time>2017-10-15T10:06:12Z</time>
      </trkpt>
      <trkpt lat="49.11087" lon="2.11664">
        <ele>104.9</ele>
        <time>2017-10-15T10:06:19Z</time>
      </trkpt>
      <trkpt lat="49.11092" lon="2.11655">
        <ele>105.6</ele>
        <time>2017-10-15T10:06:26Z</time>
      </trkpt>
      <trkpt lat="49.11098" lon="2.11647">
        <ele>106.2</ele>
        <time>2017-10-15T10:06:33Z</time>
      </trkpt>
      <trkpt lat="49.11103" lon="2.11638">
        <ele>105.8</ele>
        <time>2017-10-15T10:06:40Z</time>
      </trkpt>
      <trkpt lat="49.11109" lon="2.1163">
        <ele>104.4</ele>
        <time>2017-10-15T10:06:46Z</time>
      </trkpt>
      <trkpt lat="49.11114" lon="2.1162">
        <ele>104.4</ele>
        <time>2017-10-15T10:06:53Z</time>
      </trkpt>
      <trkpt lat="49.1112" lon="2.11612">
        <ele>105</ele>
        <time>2017-10-15T10:07:00Z</time>
      </trkpt>
      <trkpt lat="49.11125" lon="2.11604">
        <ele>105.1</ele>
        <time>2017-10-15T10:07:07Z</time>
      </trkpt>
      <trkpt lat="49.1113" lon="2.11596">
        <ele>105.5</ele>
        <time>2017-10-15T10:07:13Z</time>
      </trkpt>
      <trkpt lat="49.11135" lon="2.11587">
        <ele>105.5</ele>
        <time>2017-10-15T10:07:20Z</time>
      </trkpt>
      <trkpt lat="49.11136" lon="2.11577">
        <ele>105.3</ele>
        <time>2017-10-15T10:07:27Z</time>
      </trkpt>
      <trkpt lat="49.11142" lon="2.11573">
        <ele>103.8</ele>
        <time>2017-10-15T10:07:34Z</time>
      </trkpt>
      <trkpt lat="49.11149" lon="2.11564">
        <ele>103.3</ele>
        <time>2017-10-15T10:07:41Z</time>
      </trkpt>
      <trkpt lat="49.11154" lon="2.11555">
        <ele>104.7</ele>
        <time>2017-10-15T10:07:48Z</time>
      </trkpt>
      <trkpt lat="49.11155" lon="2.11546">
        <ele>103.5</ele>
        <time>2017-10-15T10:07:55Z</time>
      </trkpt>
      <trkpt lat="49.11162" lon="2.11538">
        <ele>104</ele>
        <time>2017-10-15T10:08:16Z</time>
      </trkpt>
      <trkpt lat="49.11166" lon="2.11532">
        <ele>104.4</ele>
        <time>2017-10-15T10:08:23Z</time>
      </trkpt>
      <trkpt lat="49.11168" lon="2.11528">
        <ele>103.4</ele>
        <time>2017-10-15T10:08:30Z</time>
      </trkpt>
      <trkpt lat="49.11173" lon="2.11519">
        <ele>101.9</ele>
        <time>2017-10-15T10:08:37Z</time>
      </trkpt>
      <trkpt lat="49.11178" lon="2.1151">
        <ele>103.5</ele>
        <time>2017-10-15T10:08:44Z</time>
      </trkpt>
      <trkpt lat="49.11184" lon="2.11502">
        <ele>102.6</ele>
        <time>2017-10-15T10:08:51Z</time>
      </trkpt>
      <trkpt lat="49.11189" lon="2.11495">
        <ele>101.7</ele>
        <time>2017-10-15T10:08:58Z</time>
      </trkpt>
      <trkpt lat="49.11194" lon="2.11487">
        <ele>101.9</ele>
        <time>2017-10-15T10:09:05Z</time>
      </trkpt>
      <trkpt lat="49.11196" lon="2.11479">
        <ele>101.3</ele>
        <time>2017-10-15T10:09:12Z</time>
      </trkpt>
      <trkpt lat="49.11196" lon="2.11467">
        <ele>103.6</ele>
        <time>2017-10-15T10:10:49Z</time>
      </trkpt>
      <trkpt lat="49.11191" lon="2.11456">
        <ele>103.3</ele>
        <time>2017-10-15T10:10:55Z</time>
      </trkpt>
      <trkpt lat="49.11189" lon="2.11452">
        <ele>103.2</ele>
        <time>2017-10-15T10:11:02Z</time>
      </trkpt>
      <trkpt lat="49.11187" lon="2.11442">
        <ele>104.6</ele>
        <time>2017-10-15T10:11:09Z</time>
      </trkpt>
      <trkpt lat="49.11182" lon="2.11434">
        <ele>104.3</ele>
        <time>2017-10-15T10:11:15Z</time>
      </trkpt>
      <trkpt lat="49.11177" lon="2.11425">
        <ele>103.7</ele>
        <time>2017-10-15T10:11:20Z</time>
      </trkpt>
      <trkpt lat="49.11172" lon="2.11417">
        <ele>103.4</ele>
        <time>2017-10-15T10:11:25Z</time>
      </trkpt>
      <trkpt lat="49.11166" lon="2.11407">
        <ele>102.9</ele>
        <time>2017-10-15T10:11:31Z</time>
      </trkpt>
      <trkpt lat="49.11162" lon="2.11396">
        <ele>102.5</ele>
        <time>2017-10-15T10:11:37Z</time>
      </trkpt>
      <trkpt lat="49.11156" lon="2.11388">
        <ele>100.8</ele>
        <time>2017-10-15T10:11:43Z</time>
      </trkpt>
      <trkpt lat="49.11151" lon="2.11379">
        <ele>101.2</ele>
        <time>2017-10-15T10:11:49Z</time>
      </trkpt>
      <trkpt lat="49.11145" lon="2.11369">
        <ele>100.8</ele>
        <time>2017-10-15T10:11:55Z</time>
      </trkpt>
      <trkpt lat="49.1114" lon="2.1136">
        <ele>99.4</ele>
        <time>2017-10-15T10:12:01Z</time>
      </trkpt>
      <trkpt lat="49.11135" lon="2.1135">
        <ele>99.8</ele>
        <time>2017-10-15T10:12:07Z</time>
      </trkpt>
      <trkpt lat="49.11131" lon="2.11341">
        <ele>98.7</ele>
        <time>2017-10-15T10:12:13Z</time>
      </trkpt>
      <trkpt lat="49.11125" lon="2.11334">
        <ele>98.9</ele>
        <time>2017-10-15T10:12:18Z</time>
      </trkpt>
      <trkpt lat="49.1112" lon="2.11324">
        <ele>98.6</ele>
        <time>2017-10-15T10:12:24Z</time>
      </trkpt>
      <trkpt lat="49.11115" lon="2.11316">
        <ele>98.9</ele>
        <time>2017-10-15T10:12:29Z</time>
      </trkpt>
      <trkpt lat="49.1111" lon="2.11306">
        <ele>99</ele>
        <time>2017-10-15T10:12:35Z</time>
      </trkpt>
      <trkpt lat="49.11105" lon="2.11295">
        <ele>101.6</ele>
        <time>2017-10-15T10:12:42Z</time>
      </trkpt>
      <trkpt lat="49.111" lon="2.11287">
        <ele>102.4</ele>
        <time>2017-10-15T10:12:47Z</time>
      </trkpt>
      <trkpt lat="49.11095" lon="2.11279">
        <ele>102.7</ele>
        <time>2017-10-15T10:12:52Z</time>
      </trkpt>
      <trkpt lat="49.1109" lon="2.1127">
        <ele>101.5</ele>
        <time>2017-10-15T10:12:57Z</time>
      </trkpt>
      <trkpt lat="49.11085" lon="2.11261">
        <ele>103.4</ele>
        <time>2017-10-15T10:13:03Z</time>
      </trkpt>
      <trkpt lat="49.11079" lon="2.11251">
        <ele>103.8</ele>
        <time>2017-10-15T10:13:09Z</time>
      </trkpt>
      <trkpt lat="49.11075" lon="2.11242">
        <ele>100.7</ele>
        <time>2017-10-15T10:13:15Z</time>
      </trkpt>
      <trkpt lat="49.11069" lon="2.11233">
        <ele>100.8</ele>
        <time>2017-10-15T10:13:21Z</time>
      </trkpt>
      <trkpt lat="49.11064" lon="2.11225">
        <ele>99.9</ele>
        <time>2017-10-15T10:13:26Z</time>
      </trkpt>
      <trkpt lat="49.11059" lon="2.11217">
        <ele>99.5</ele>
        <time>2017-10-15T10:13:31Z</time>
      </trkpt>
      <trkpt lat="49.11054" lon="2.11208">
        <ele>97.2</ele>
        <time>2017-10-15T10:13:36Z</time>
      </trkpt>
      <trkpt lat="49.11049" lon="2.11199">
        <ele>98.1</ele>
        <time>2017-10-15T10:13:42Z</time>
      </trkpt>
      <trkpt lat="49.11043" lon="2.1119">
        <ele>98.3</ele>
        <time>2017-10-15T10:13:48Z</time>
      </trkpt>
      <trkpt lat="49.11037" lon="2.1118">
        <ele>98.3</ele>
        <time>2017-10-15T10:13:54Z</time>
      </trkpt>
      <trkpt lat="49.11033" lon="2.11171">
        <ele>96.4</ele>
        <time>2017-10-15T10:14:00Z</time>
      </trkpt>
      <trkpt lat="49.11027" lon="2.11162">
        <ele>97.8</ele>
        <time>2017-10-15T10:14:06Z</time>
      </trkpt>
      <trkpt lat="49.11022" lon="2.11152">
        <ele>97.4</ele>
        <time>2017-10-15T10:14:12Z</time>
      </trkpt>
      <trkpt lat="49.11017" lon="2.11144">
        <ele>97.3</ele>
        <time>2017-10-15T10:14:17Z</time>
      </trkpt>
      <trkpt lat="49.11011" lon="2.11135">
        <ele>97.3</ele>
        <time>2017-10-15T10:14:23Z</time>
      </trkpt>
      <trkpt lat="49.11006" lon="2.11127">
        <ele>97.9</ele>
        <time>2017-10-15T10:14:29Z</time>
      </trkpt>
      <trkpt lat="49.11001" lon="2.11117">
        <ele>99.2</ele>
        <time>2017-10-15T10:14:35Z</time>
      </trkpt>
      <trkpt lat="49.10996" lon="2.11109">
        <ele>97.6</ele>
        <time>2017-10-15T10:14:41Z</time>
      </trkpt>
      <trkpt lat="49.1099" lon="2.11099">
        <ele>97.7</ele>
        <time>2017-10-15T10:14:47Z</time>
      </trkpt>
      <trkpt lat="49.10984" lon="2.11091">
        <ele>97.7</ele>
        <time>2017-10-15T10:14:53Z</time>
      </trkpt>
      <trkpt lat="49.10979" lon="2.11083">
        <ele>97.3</ele>
        <time>2017-10-15T10:14:59Z</time>
      </trkpt>
      <trkpt lat="49.10973" lon="2.11075">
        <ele>96.5</ele>
        <time>2017-10-15T10:15:06Z</time>
      </trkpt>
      <trkpt lat="49.10967" lon="2.11069">
        <ele>95.1</ele>
        <time>2017-10-15T10:15:13Z</time>
      </trkpt>
      <trkpt lat="49.1096" lon="2.11066">
        <ele>94.6</ele>
        <time>2017-10-15T10:15:20Z</time>
      </trkpt>
      <trkpt lat="49.10959" lon="2.11064">
        <ele>93.8</ele>
        <time>2017-10-15T10:15:27Z</time>
      </trkpt>
      <trkpt lat="49.10957" lon="2.11063">
        <ele>94</ele>
        <time>2017-10-15T10:15:34Z</time>
      </trkpt>
      <trkpt lat="49.1095" lon="2.11066">
        <ele>92.6</ele>
        <time>2017-10-15T10:17:40Z</time>
      </trkpt>
      <trkpt lat="49.10948" lon="2.11066">
        <ele>92.7</ele>
        <time>2017-10-15T10:17:47Z</time>
      </trkpt>
      <trkpt lat="49.10951" lon="2.11066">
        <ele>92.2</ele>
        <time>2017-10-15T10:19:35Z</time>
      </trkpt>
      <trkpt lat="49.10952" lon="2.11062">
        <ele>93.4</ele>
        <time>2017-10-15T10:19:52Z</time>
      </trkpt>
      <trkpt lat="49.10945" lon="2.11056">
        <ele>92.5</ele>
        <time>2017-10-15T10:19:35Z</time>
      </trkpt>
      <trkpt lat="49.10939" lon="2.11049">
        <ele>90.8</ele>
        <time>2017-10-15T10:20:47Z</time>
      </trkpt>
      <trkpt lat="49.10933" lon="2.11043">
        <ele>90.7</ele>
        <time>2017-10-15T10:20:53Z</time>
      </trkpt>
      <trkpt lat="49.10926" lon="2.11037">
        <ele>89.5</ele>
        <time>2017-10-15T10:21:00Z</time>
      </trkpt>
      <trkpt lat="49.10919" lon="2.11033">
        <ele>89.5</ele>
        <time>2017-10-15T10:21:07Z</time>
      </trkpt>
      <trkpt lat="49.10912" lon="2.11031">
        <ele>89.5</ele>
        <time>2017-10-15T10:21:14Z</time>
      </trkpt>
      <trkpt lat="49.10905" lon="2.11026">
        <ele>89.2</ele>
        <time>2017-10-15T10:21:21Z</time>
      </trkpt>
      <trkpt lat="49.10897" lon="2.11022">
        <ele>89.4</ele>
        <time>2017-10-15T10:21:28Z</time>
      </trkpt>
      <trkpt lat="49.10889" lon="2.11019">
        <ele>90.7</ele>
        <time>2017-10-15T10:21:34Z</time>
      </trkpt>
      <trkpt lat="49.10882" lon="2.11016">
        <ele>90.2</ele>
        <time>2017-10-15T10:21:40Z</time>
      </trkpt>
      <trkpt lat="49.10875" lon="2.11018">
        <ele>90.5</ele>
        <time>2017-10-15T10:21:47Z</time>
      </trkpt>
      <trkpt lat="49.10868" lon="2.11012">
        <ele>87.6</ele>
        <time>2017-10-15T10:22:07Z</time>
      </trkpt>
      <trkpt lat="49.10861" lon="2.1101">
        <ele>87.7</ele>
        <time>2017-10-15T10:22:12Z</time>
      </trkpt>
      <trkpt lat="49.10853" lon="2.11008">
        <ele>87.6</ele>
        <time>2017-10-15T10:22:17Z</time>
      </trkpt>
      <trkpt lat="49.10845" lon="2.11005">
        <ele>87.3</ele>
        <time>2017-10-15T10:22:23Z</time>
      </trkpt>
      <trkpt lat="49.10837" lon="2.11005">
        <ele>85.1</ele>
        <time>2017-10-15T10:22:30Z</time>
      </trkpt>
      <trkpt lat="49.1083" lon="2.11004">
        <ele>86.7</ele>
        <time>2017-10-15T10:22:35Z</time>
      </trkpt>
      <trkpt lat="49.10822" lon="2.11002">
        <ele>85.9</ele>
        <time>2017-10-15T10:22:41Z</time>
      </trkpt>
      <trkpt lat="49.10815" lon="2.11001">
        <ele>85.7</ele>
        <time>2017-10-15T10:22:47Z</time>
      </trkpt>
      <trkpt lat="49.10807" lon="2.10998">
        <ele>88.1</ele>
        <time>2017-10-15T10:22:53Z</time>
      </trkpt>
      <trkpt lat="49.10799" lon="2.10999">
        <ele>86.1</ele>
        <time>2017-10-15T10:22:59Z</time>
      </trkpt>
      <trkpt lat="49.10792" lon="2.10997">
        <ele>86.9</ele>
        <time>2017-10-15T10:23:05Z</time>
      </trkpt>
      <trkpt lat="49.10784" lon="2.10998">
        <ele>86</ele>
        <time>2017-10-15T10:23:11Z</time>
      </trkpt>
      <trkpt lat="49.10777" lon="2.10996">
        <ele>87.5</ele>
        <time>2017-10-15T10:23:17Z</time>
      </trkpt>
      <trkpt lat="49.10769" lon="2.10997">
        <ele>87.9</ele>
        <time>2017-10-15T10:23:24Z</time>
      </trkpt>
      <trkpt lat="49.10761" lon="2.10996">
        <ele>87.8</ele>
        <time>2017-10-15T10:23:31Z</time>
      </trkpt>
      <trkpt lat="49.10753" lon="2.10996">
        <ele>87.7</ele>
        <time>2017-10-15T10:23:38Z</time>
      </trkpt>
      <trkpt lat="49.10745" lon="2.10995">
        <ele>88</ele>
        <time>2017-10-15T10:23:44Z</time>
      </trkpt>
      <trkpt lat="49.10738" lon="2.10995">
        <ele>88</ele>
        <time>2017-10-15T10:23:51Z</time>
      </trkpt>
      <trkpt lat="49.10734" lon="2.10991">
        <ele>88.2</ele>
        <time>2017-10-15T10:23:58Z</time>
      </trkpt>
      <trkpt lat="49.1073" lon="2.10991">
        <ele>87.8</ele>
        <time>2017-10-15T10:24:05Z</time>
      </trkpt>
      <trkpt lat="49.10723" lon="2.1099">
        <ele>87.4</ele>
        <time>2017-10-15T10:24:11Z</time>
      </trkpt>
      <trkpt lat="49.10715" lon="2.10989">
        <ele>87.8</ele>
        <time>2017-10-15T10:24:18Z</time>
      </trkpt>
      <trkpt lat="49.10707" lon="2.10989">
        <ele>87.6</ele>
        <time>2017-10-15T10:24:25Z</time>
      </trkpt>
      <trkpt lat="49.10699" lon="2.10988">
        <ele>86.4</ele>
        <time>2017-10-15T10:24:32Z</time>
      </trkpt>
      <trkpt lat="49.10696" lon="2.10988">
        <ele>86</ele>
        <time>2017-10-15T10:24:39Z</time>
      </trkpt>
      <trkpt lat="49.10691" lon="2.10989">
        <ele>85.8</ele>
        <time>2017-10-15T10:24:51Z</time>
      </trkpt>
      <trkpt lat="49.10687" lon="2.10988">
        <ele>86.4</ele>
        <time>2017-10-15T10:24:58Z</time>
      </trkpt>
      <trkpt lat="49.10689" lon="2.10984">
        <ele>87.5</ele>
        <time>2017-10-15T10:25:24Z</time>
      </trkpt>
      <trkpt lat="49.10684" lon="2.10989">
        <ele>87</ele>
        <time>2017-10-15T10:26:00Z</time>
      </trkpt>
      <trkpt lat="49.10676" lon="2.10989">
        <ele>86.7</ele>
        <time>2017-10-15T10:27:00Z</time>
      </trkpt>
      <trkpt lat="49.10668" lon="2.10987">
        <ele>86.9</ele>
        <time>2017-10-15T10:27:06Z</time>
      </trkpt>
      <trkpt lat="49.1066" lon="2.10986">
        <ele>87.2</ele>
        <time>2017-10-15T10:27:13Z</time>
      </trkpt>
      <trkpt lat="49.10653" lon="2.10985">
        <ele>87.8</ele>
        <time>2017-10-15T10:27:19Z</time>
      </trkpt>
      <trkpt lat="49.10645" lon="2.10983">
        <ele>87.8</ele>
        <time>2017-10-15T10:27:26Z</time>
      </trkpt>
      <trkpt lat="49.10637" lon="2.10982">
        <ele>88.3</ele>
        <time>2017-10-15T10:27:32Z</time>
      </trkpt>
      <trkpt lat="49.10629" lon="2.10982">
        <ele>87.3</ele>
        <time>2017-10-15T10:27:38Z</time>
      </trkpt>
      <trkpt lat="49.10622" lon="2.10981">
        <ele>87.3</ele>
        <time>2017-10-15T10:27:45Z</time>
      </trkpt>
      <trkpt lat="49.10614" lon="2.10981">
        <ele>87</ele>
        <time>2017-10-15T10:27:51Z</time>
      </trkpt>
      <trkpt lat="49.10605" lon="2.10979">
        <ele>87.9</ele>
        <time>2017-10-15T10:27:57Z</time>
      </trkpt>
      <trkpt lat="49.10598" lon="2.10979">
        <ele>86.5</ele>
        <time>2017-10-15T10:28:03Z</time>
      </trkpt>
      <trkpt lat="49.10591" lon="2.10978">
        <ele>87</ele>
        <time>2017-10-15T10:28:09Z</time>
      </trkpt>
      <trkpt lat="49.10583" lon="2.10978">
        <ele>86.8</ele>
        <time>2017-10-15T10:28:15Z</time>
      </trkpt>
      <trkpt lat="49.10575" lon="2.10976">
        <ele>87</ele>
        <time>2017-10-15T10:28:22Z</time>
      </trkpt>
      <trkpt lat="49.10567" lon="2.10975">
        <ele>86.7</ele>
        <time>2017-10-15T10:28:28Z</time>
      </trkpt>
      <trkpt lat="49.1056" lon="2.10974">
        <ele>87</ele>
        <time>2017-10-15T10:28:34Z</time>
      </trkpt>
      <trkpt lat="49.10552" lon="2.10972">
        <ele>87.1</ele>
        <time>2017-10-15T10:28:40Z</time>
      </trkpt>
      <trkpt lat="49.10544" lon="2.10969">
        <ele>86.4</ele>
        <time>2017-10-15T10:28:47Z</time>
      </trkpt>
      <trkpt lat="49.10537" lon="2.10963">
        <ele>86.3</ele>
        <time>2017-10-15T10:28:53Z</time>
      </trkpt>
      <trkpt lat="49.10531" lon="2.10955">
        <ele>86.6</ele>
        <time>2017-10-15T10:29:00Z</time>
      </trkpt>
      <trkpt lat="49.10524" lon="2.1095">
        <ele>86.5</ele>
        <time>2017-10-15T10:29:06Z</time>
      </trkpt>
      <trkpt lat="49.10519" lon="2.10942">
        <ele>86.9</ele>
        <time>2017-10-15T10:29:12Z</time>
      </trkpt>
      <trkpt lat="49.10513" lon="2.10934">
        <ele>87.1</ele>
        <time>2017-10-15T10:29:18Z</time>
      </trkpt>
      <trkpt lat="49.10507" lon="2.10926">
        <ele>87</ele>
        <time>2017-10-15T10:29:24Z</time>
      </trkpt>
      <trkpt lat="49.10501" lon="2.10918">
        <ele>87</ele>
        <time>2017-10-15T10:29:30Z</time>
      </trkpt>
      <trkpt lat="49.10496" lon="2.1091">
        <ele>88.3</ele>
        <time>2017-10-15T10:29:36Z</time>
      </trkpt>
      <trkpt lat="49.1049" lon="2.10903">
        <ele>88.6</ele>
        <time>2017-10-15T10:29:42Z</time>
      </trkpt>
      <trkpt lat="49.10484" lon="2.10896">
        <ele>88.1</ele>
        <time>2017-10-15T10:29:48Z</time>
      </trkpt>
      <trkpt lat="49.10479" lon="2.10888">
        <ele>88.2</ele>
        <time>2017-10-15T10:29:54Z</time>
      </trkpt>
      <trkpt lat="49.10473" lon="2.1088">
        <ele>88.1</ele>
        <time>2017-10-15T10:30:00Z</time>
      </trkpt>
      <trkpt lat="49.10467" lon="2.10873">
        <ele>88.3</ele>
        <time>2017-10-15T10:30:06Z</time>
      </trkpt>
      <trkpt lat="49.1046" lon="2.10865">
        <ele>87.9</ele>
        <time>2017-10-15T10:30:12Z</time>
      </trkpt>
      <trkpt lat="49.10453" lon="2.10858">
        <ele>87.6</ele>
        <time>2017-10-15T10:30:18Z</time>
      </trkpt>
      <trkpt lat="49.10448" lon="2.10851">
        <ele>87.8</ele>
        <time>2017-10-15T10:30:24Z</time>
      </trkpt>
      <trkpt lat="49.10441" lon="2.10845">
        <ele>87.6</ele>
        <time>2017-10-15T10:30:30Z</time>
      </trkpt>
      <trkpt lat="49.10434" lon="2.10838">
        <ele>87.1</ele>
        <time>2017-10-15T10:30:36Z</time>
      </trkpt>
      <trkpt lat="49.10427" lon="2.10831">
        <ele>86.6</ele>
        <time>2017-10-15T10:30:42Z</time>
      </trkpt>
      <trkpt lat="49.1042" lon="2.10824">
        <ele>86.9</ele>
        <time>2017-10-15T10:30:48Z</time>
      </trkpt>
      <trkpt lat="49.10413" lon="2.10817">
        <ele>86.5</ele>
        <time>2017-10-15T10:30:54Z</time>
      </trkpt>
      <trkpt lat="49.10407" lon="2.10811">
        <ele>86.6</ele>
        <time>2017-10-15T10:31:00Z</time>
      </trkpt>
      <trkpt lat="49.104" lon="2.10803">
        <ele>86.8</ele>
        <time>2017-10-15T10:31:06Z</time>
      </trkpt>
      <trkpt lat="49.10393" lon="2.10797">
        <ele>86.8</ele>
        <time>2017-10-15T10:31:12Z</time>
      </trkpt>
      <trkpt lat="49.10386" lon="2.10791">
        <ele>87.2</ele>
        <time>2017-10-15T10:31:18Z</time>
      </trkpt>
      <trkpt lat="49.1038" lon="2.10783">
        <ele>87.6</ele>
        <time>2017-10-15T10:31:24Z</time>
      </trkpt>
      <trkpt lat="49.10374" lon="2.10777">
        <ele>86.7</ele>
        <time>2017-10-15T10:31:30Z</time>
      </trkpt>
      <trkpt lat="49.10367" lon="2.1077">
        <ele>86.8</ele>
        <time>2017-10-15T10:31:36Z</time>
      </trkpt>
      <trkpt lat="49.10361" lon="2.10765">
        <ele>86.7</ele>
        <time>2017-10-15T10:31:42Z</time>
      </trkpt>
      <trkpt lat="49.10353" lon="2.10758">
        <ele>86.7</ele>
        <time>2017-10-15T10:31:48Z</time>
      </trkpt>
      <trkpt lat="49.10347" lon="2.10751">
        <ele>87.3</ele>
        <time>2017-10-15T10:31:54Z</time>
      </trkpt>
      <trkpt lat="49.10341" lon="2.10745">
        <ele>87.6</ele>
        <time>2017-10-15T10:32:00Z</time>
      </trkpt>
      <trkpt lat="49.10335" lon="2.10738">
        <ele>87.6</ele>
        <time>2017-10-15T10:32:06Z</time>
      </trkpt>
      <trkpt lat="49.10328" lon="2.10731">
        <ele>87.7</ele>
        <time>2017-10-15T10:32:12Z</time>
      </trkpt>
      <trkpt lat="49.10322" lon="2.10724">
        <ele>87.3</ele>
        <time>2017-10-15T10:32:18Z</time>
      </trkpt>
      <trkpt lat="49.10316" lon="2.10718">
        <ele>87.4</ele>
        <time>2017-10-15T10:32:24Z</time>
      </trkpt>
      <trkpt lat="49.10309" lon="2.10711">
        <ele>87.7</ele>
        <time>2017-10-15T10:32:30Z</time>
      </trkpt>
      <trkpt lat="49.10303" lon="2.10705">
        <ele>87.8</ele>
        <time>2017-10-15T10:32:36Z</time>
      </trkpt>
      <trkpt lat="49.10296" lon="2.10698">
        <ele>87.8</ele>
        <time>2017-10-15T10:32:42Z</time>
      </trkpt>
      <trkpt lat="49.1029" lon="2.10692">
        <ele>87.8</ele>
        <time>2017-10-15T10:32:48Z</time>
      </trkpt>
      <trkpt lat="49.10283" lon="2.10685">
        <ele>88.4</ele>
        <time>2017-10-15T10:32:54Z</time>
      </trkpt>
      <trkpt lat="49.10277" lon="2.10677">
        <ele>88.7</ele>
        <time>2017-10-15T10:33:00Z</time>
      </trkpt>
      <trkpt lat="49.1027" lon="2.10671">
        <ele>89.2</ele>
        <time>2017-10-15T10:33:06Z</time>
      </trkpt>
      <trkpt lat="49.10263" lon="2.10665">
        <ele>89.3</ele>
        <time>2017-10-15T10:33:12Z</time>
      </trkpt>
      <trkpt lat="49.10257" lon="2.10658">
        <ele>89.6</ele>
        <time>2017-10-15T10:33:18Z</time>
      </trkpt>
      <trkpt lat="49.1025" lon="2.10653">
        <ele>90.2</ele>
        <time>2017-10-15T10:33:24Z</time>
      </trkpt>
      <trkpt lat="49.10244" lon="2.10646">
        <ele>89.8</ele>
        <time>2017-10-15T10:33:30Z</time>
      </trkpt>
      <trkpt lat="49.10237" lon="2.10639">
        <ele>89.4</ele>
        <time>2017-10-15T10:33:36Z</time>
      </trkpt>
      <trkpt lat="49.1023" lon="2.10632">
        <ele>89.4</ele>
        <time>2017-10-15T10:33:42Z</time>
      </trkpt>
      <trkpt lat="49.10224" lon="2.10625">
        <ele>87.5</ele>
        <time>2017-10-15T10:33:48Z</time>
      </trkpt>
      <trkpt lat="49.10218" lon="2.10619">
        <ele>87.7</ele>
        <time>2017-10-15T10:33:54Z</time>
      </trkpt>
      <trkpt lat="49.10211" lon="2.10613">
        <ele>88.2</ele>
        <time>2017-10-15T10:34:00Z</time>
      </trkpt>
      <trkpt lat="49.10204" lon="2.10605">
        <ele>88</ele>
        <time>2017-10-15T10:34:06Z</time>
      </trkpt>
      <trkpt lat="49.10198" lon="2.10599">
        <ele>87.8</ele>
        <time>2017-10-15T10:34:12Z</time>
      </trkpt>
      <trkpt lat="49.10191" lon="2.10593">
        <ele>88.3</ele>
        <time>2017-10-15T10:34:18Z</time>
      </trkpt>
      <trkpt lat="49.10185" lon="2.10586">
        <ele>89.2</ele>
        <time>2017-10-15T10:34:24Z</time>
      </trkpt>
      <trkpt lat="49.10179" lon="2.1058">
        <ele>88.8</ele>
        <time>2017-10-15T10:34:30Z</time>
      </trkpt>
      <trkpt lat="49.10172" lon="2.10573">
        <ele>89.4</ele>
        <time>2017-10-15T10:34:36Z</time>
      </trkpt>
      <trkpt lat="49.10166" lon="2.10567">
        <ele>89.7</ele>
        <time>2017-10-15T10:34:42Z</time>
      </trkpt>
      <trkpt lat="49.10159" lon="2.1056">
        <ele>89.5</ele>
        <time>2017-10-15T10:34:48Z</time>
      </trkpt>
      <trkpt lat="49.10153" lon="2.10553">
        <ele>89.6</ele>
        <time>2017-10-15T10:34:54Z</time>
      </trkpt>
      <trkpt lat="49.10146" lon="2.10546">
        <ele>89.6</ele>
        <time>2017-10-15T10:35:00Z</time>
      </trkpt>
      <trkpt lat="49.1014" lon="2.10539">
        <ele>89.8</ele>
        <time>2017-10-15T10:35:06Z</time>
      </trkpt>
      <trkpt lat="49.10133" lon="2.10533">
        <ele>89.6</ele>
        <time>2017-10-15T10:35:12Z</time>
      </trkpt>
      <trkpt lat="49.10127" lon="2.10526">
        <ele>89.9</ele>
        <time>2017-10-15T10:35:18Z</time>
      </trkpt>
      <trkpt lat="49.1012" lon="2.10521">
        <ele>90.2</ele>
        <time>2017-10-15T10:35:24Z</time>
      </trkpt>
      <trkpt lat="49.10114" lon="2.10515">
        <ele>90.3</ele>
        <time>2017-10-15T10:35:30Z</time>
      </trkpt>
      <trkpt lat="49.10107" lon="2.10508">
        <ele>90.3</ele>
        <time>2017-10-15T10:35:36Z</time>
      </trkpt>
      <trkpt lat="49.10101" lon="2.10503">
        <ele>90.9</ele>
        <time>2017-10-15T10:35:42Z</time>
      </trkpt>
      <trkpt lat="49.10094" lon="2.10497">
        <ele>91.3</ele>
        <time>2017-10-15T10:35:48Z</time>
      </trkpt>
      <trkpt lat="49.10087" lon="2.10491">
        <ele>92.1</ele>
        <time>2017-10-15T10:35:54Z</time>
      </trkpt>
      <trkpt lat="49.10081" lon="2.10484">
        <ele>92.6</ele>
        <time>2017-10-15T10:36:00Z</time>
      </trkpt>
      <trkpt lat="49.10073" lon="2.10478">
        <ele>93.1</ele>
        <time>2017-10-15T10:36:07Z</time>
      </trkpt>
      <trkpt lat="49.10067" lon="2.10472">
        <ele>93.3</ele>
        <time>2017-10-15T10:36:13Z</time>
      </trkpt>
      <trkpt lat="49.10059" lon="2.10468">
        <ele>93.6</ele>
        <time>2017-10-15T10:36:19Z</time>
      </trkpt>
      <trkpt lat="49.10052" lon="2.10462">
        <ele>93.7</ele>
        <time>2017-10-15T10:36:25Z</time>
      </trkpt>
      <trkpt lat="49.10045" lon="2.10457">
        <ele>94.1</ele>
        <time>2017-10-15T10:36:31Z</time>
      </trkpt>
      <trkpt lat="49.10038" lon="2.10451">
        <ele>94</ele>
        <time>2017-10-15T10:36:37Z</time>
      </trkpt>
      <trkpt lat="49.10031" lon="2.10445">
        <ele>94.3</ele>
        <time>2017-10-15T10:36:43Z</time>
      </trkpt>
      <trkpt lat="49.10024" lon="2.10438">
        <ele>95.2</ele>
        <time>2017-10-15T10:36:49Z</time>
      </trkpt>
      <trkpt lat="49.10017" lon="2.10433">
        <ele>94</ele>
        <time>2017-10-15T10:36:55Z</time>
      </trkpt>
      <trkpt lat="49.1001" lon="2.10427">
        <ele>94.4</ele>
        <time>2017-10-15T10:37:01Z</time>
      </trkpt>
      <trkpt lat="49.10003" lon="2.10422">
        <ele>95.2</ele>
        <time>2017-10-15T10:37:07Z</time>
      </trkpt>
      <trkpt lat="49.09996" lon="2.10416">
        <ele>94.3</ele>
        <time>2017-10-15T10:37:13Z</time>
      </trkpt>
      <trkpt lat="49.09988" lon="2.1041">
        <ele>94.3</ele>
        <time>2017-10-15T10:37:19Z</time>
      </trkpt>
      <trkpt lat="49.09981" lon="2.10405">
        <ele>94.5</ele>
        <time>2017-10-15T10:37:25Z</time>
      </trkpt>
      <trkpt lat="49.09975" lon="2.104">
        <ele>94</ele>
        <time>2017-10-15T10:37:31Z</time>
      </trkpt>
      <trkpt lat="49.09968" lon="2.10394">
        <ele>93.8</ele>
        <time>2017-10-15T10:37:37Z</time>
      </trkpt>
      <trkpt lat="49.09961" lon="2.10388">
        <ele>93.1</ele>
        <time>2017-10-15T10:37:43Z</time>
      </trkpt>
      <trkpt lat="49.09953" lon="2.10382">
        <ele>93.4</ele>
        <time>2017-10-15T10:37:50Z</time>
      </trkpt>
      <trkpt lat="49.09946" lon="2.10376">
        <ele>92.8</ele>
        <time>2017-10-15T10:37:56Z</time>
      </trkpt>
      <trkpt lat="49.09939" lon="2.10371">
        <ele>93</ele>
        <time>2017-10-15T10:38:02Z</time>
      </trkpt>
      <trkpt lat="49.09933" lon="2.10366">
        <ele>93.7</ele>
        <time>2017-10-15T10:38:07Z</time>
      </trkpt>
      <trkpt lat="49.09926" lon="2.10361">
        <ele>93.4</ele>
        <time>2017-10-15T10:38:13Z</time>
      </trkpt>
      <trkpt lat="49.09919" lon="2.10355">
        <ele>93.2</ele>
        <time>2017-10-15T10:38:19Z</time>
      </trkpt>
      <trkpt lat="49.09913" lon="2.10349">
        <ele>92.7</ele>
        <time>2017-10-15T10:38:25Z</time>
      </trkpt>
      <trkpt lat="49.09906" lon="2.10344">
        <ele>92.7</ele>
        <time>2017-10-15T10:38:31Z</time>
      </trkpt>
      <trkpt lat="49.09899" lon="2.10337">
        <ele>92.5</ele>
        <time>2017-10-15T10:38:37Z</time>
      </trkpt>
      <trkpt lat="49.09893" lon="2.10332">
        <ele>92.2</ele>
        <time>2017-10-15T10:38:43Z</time>
      </trkpt>
      <trkpt lat="49.09886" lon="2.10326">
        <ele>92.4</ele>
        <time>2017-10-15T10:38:50Z</time>
      </trkpt>
      <trkpt lat="49.09879" lon="2.10321">
        <ele>92.4</ele>
        <time>2017-10-15T10:38:56Z</time>
      </trkpt>
      <trkpt lat="49.09872" lon="2.10315">
        <ele>92.4</ele>
        <time>2017-10-15T10:39:03Z</time>
      </trkpt>
      <trkpt lat="49.09866" lon="2.10309">
        <ele>92.2</ele>
        <time>2017-10-15T10:39:09Z</time>
      </trkpt>
      <trkpt lat="49.09859" lon="2.10303">
        <ele>92</ele>
        <time>2017-10-15T10:39:15Z</time>
      </trkpt>
      <trkpt lat="49.09851" lon="2.10299">
        <ele>91.4</ele>
        <time>2017-10-15T10:39:22Z</time>
      </trkpt>
      <trkpt lat="49.09848" lon="2.10299">
        <ele>91</ele>
        <time>2017-10-15T10:39:29Z</time>
      </trkpt>
      <trkpt lat="49.09841" lon="2.10299">
        <ele>90.8</ele>
        <time>2017-10-15T10:41:10Z</time>
      </trkpt>
      <trkpt lat="49.0984" lon="2.10297">
        <ele>90.4</ele>
        <time>2017-10-15T10:41:17Z</time>
      </trkpt>
      <trkpt lat="49.09836" lon="2.10288">
        <ele>90.9</ele>
        <time>2017-10-15T10:41:24Z</time>
      </trkpt>
      <trkpt lat="49.09833" lon="2.10278">
        <ele>91.2</ele>
        <time>2017-10-15T10:41:30Z</time>
      </trkpt>
      <trkpt lat="49.09829" lon="2.10268">
        <ele>91.7</ele>
        <time>2017-10-15T10:41:36Z</time>
      </trkpt>
      <trkpt lat="49.09825" lon="2.10258">
        <ele>92.5</ele>
        <time>2017-10-15T10:41:43Z</time>
      </trkpt>
      <trkpt lat="49.0982" lon="2.10248">
        <ele>93.4</ele>
        <time>2017-10-15T10:41:49Z</time>
      </trkpt>
      <trkpt lat="49.09816" lon="2.10237">
        <ele>93.3</ele>
        <time>2017-10-15T10:41:56Z</time>
      </trkpt>
      <trkpt lat="49.09812" lon="2.10227">
        <ele>92.8</ele>
        <time>2017-10-15T10:42:02Z</time>
      </trkpt>
      <trkpt lat="49.09808" lon="2.10216">
        <ele>93.6</ele>
        <time>2017-10-15T10:42:08Z</time>
      </trkpt>
      <trkpt lat="49.09803" lon="2.10207">
        <ele>93.9</ele>
        <time>2017-10-15T10:42:14Z</time>
      </trkpt>
      <trkpt lat="49.09799" lon="2.10197">
        <ele>93.8</ele>
        <time>2017-10-15T10:42:20Z</time>
      </trkpt>
      <trkpt lat="49.09794" lon="2.10187">
        <ele>94.3</ele>
        <time>2017-10-15T10:42:26Z</time>
      </trkpt>
      <trkpt lat="49.09791" lon="2.10177">
        <ele>95.2</ele>
        <time>2017-10-15T10:42:32Z</time>
      </trkpt>
      <trkpt lat="49.09786" lon="2.10167">
        <ele>95.9</ele>
        <time>2017-10-15T10:42:38Z</time>
      </trkpt>
      <trkpt lat="49.09782" lon="2.10156">
        <ele>96.2</ele>
        <time>2017-10-15T10:42:44Z</time>
      </trkpt>
      <trkpt lat="49.09779" lon="2.10146">
        <ele>98.4</ele>
        <time>2017-10-15T10:42:50Z</time>
      </trkpt>
      <trkpt lat="49.09775" lon="2.10137">
        <ele>98.2</ele>
        <time>2017-10-15T10:42:56Z</time>
      </trkpt>
      <trkpt lat="49.09771" lon="2.10127">
        <ele>99.5</ele>
        <time>2017-10-15T10:43:02Z</time>
      </trkpt>
      <trkpt lat="49.09767" lon="2.10117">
        <ele>99.8</ele>
        <time>2017-10-15T10:43:08Z</time>
      </trkpt>
      <trkpt lat="49.09763" lon="2.10106">
        <ele>99.9</ele>
        <time>2017-10-15T10:43:15Z</time>
      </trkpt>
      <trkpt lat="49.0976" lon="2.10094">
        <ele>100.2</ele>
        <time>2017-10-15T10:43:22Z</time>
      </trkpt>
      <trkpt lat="49.09756" lon="2.10084">
        <ele>100.7</ele>
        <time>2017-10-15T10:43:28Z</time>
      </trkpt>
      <trkpt lat="49.09753" lon="2.10074">
        <ele>101.1</ele>
        <time>2017-10-15T10:43:34Z</time>
      </trkpt>
      <trkpt lat="49.09749" lon="2.10063">
        <ele>99.5</ele>
        <time>2017-10-15T10:43:41Z</time>
      </trkpt>
      <trkpt lat="49.09744" lon="2.10054">
        <ele>98.7</ele>
        <time>2017-10-15T10:43:47Z</time>
      </trkpt>
      <trkpt lat="49.0974" lon="2.10044">
        <ele>98.3</ele>
        <time>2017-10-15T10:43:53Z</time>
      </trkpt>
      <trkpt lat="49.09735" lon="2.10034">
        <ele>98.8</ele>
        <time>2017-10-15T10:43:59Z</time>
      </trkpt>
      <trkpt lat="49.09731" lon="2.10023">
        <ele>98.9</ele>
        <time>2017-10-15T10:44:06Z</time>
      </trkpt>
      <trkpt lat="49.09727" lon="2.10013">
        <ele>99</ele>
        <time>2017-10-15T10:44:12Z</time>
      </trkpt>
      <trkpt lat="49.09723" lon="2.10002">
        <ele>99</ele>
        <time>2017-10-15T10:44:18Z</time>
      </trkpt>
      <trkpt lat="49.09718" lon="2.09991">
        <ele>98.2</ele>
        <time>2017-10-15T10:44:24Z</time>
      </trkpt>
      <trkpt lat="49.09715" lon="2.09981">
        <ele>99.1</ele>
        <time>2017-10-15T10:44:30Z</time>
      </trkpt>
      <trkpt lat="49.0971" lon="2.0997">
        <ele>99</ele>
        <time>2017-10-15T10:44:36Z</time>
      </trkpt>
      <trkpt lat="49.09706" lon="2.09959">
        <ele>99.2</ele>
        <time>2017-10-15T10:44:42Z</time>
      </trkpt>
      <trkpt lat="49.09703" lon="2.0995">
        <ele>100</ele>
        <time>2017-10-15T10:44:48Z</time>
      </trkpt>
      <trkpt lat="49.09698" lon="2.09939">
        <ele>99.7</ele>
        <time>2017-10-15T10:44:55Z</time>
      </trkpt>
      <trkpt lat="49.09693" lon="2.0993">
        <ele>98.9</ele>
        <time>2017-10-15T10:45:00Z</time>
      </trkpt>
      <trkpt lat="49.09689" lon="2.09919">
        <ele>99</ele>
        <time>2017-10-15T10:45:06Z</time>
      </trkpt>
      <trkpt lat="49.09685" lon="2.09909">
        <ele>99.3</ele>
        <time>2017-10-15T10:45:11Z</time>
      </trkpt>
      <trkpt lat="49.0968" lon="2.09898">
        <ele>99</ele>
        <time>2017-10-15T10:45:17Z</time>
      </trkpt>
      <trkpt lat="49.09675" lon="2.09889">
        <ele>99.6</ele>
        <time>2017-10-15T10:45:24Z</time>
      </trkpt>
      <trkpt lat="49.09672" lon="2.09879">
        <ele>100.4</ele>
        <time>2017-10-15T10:45:30Z</time>
      </trkpt>
      <trkpt lat="49.09667" lon="2.09869">
        <ele>99.8</ele>
        <time>2017-10-15T10:45:37Z</time>
      </trkpt>
      <trkpt lat="49.09663" lon="2.0986">
        <ele>100.3</ele>
        <time>2017-10-15T10:45:43Z</time>
      </trkpt>
      <trkpt lat="49.09658" lon="2.0985">
        <ele>100.2</ele>
        <time>2017-10-15T10:45:50Z</time>
      </trkpt>
      <trkpt lat="49.09655" lon="2.0984">
        <ele>99.7</ele>
        <time>2017-10-15T10:45:56Z</time>
      </trkpt>
      <trkpt lat="49.0965" lon="2.09832">
        <ele>100.2</ele>
        <time>2017-10-15T10:46:02Z</time>
      </trkpt>
      <trkpt lat="49.09646" lon="2.09821">
        <ele>98.9</ele>
        <time>2017-10-15T10:46:08Z</time>
      </trkpt>
      <trkpt lat="49.09642" lon="2.09811">
        <ele>100.1</ele>
        <time>2017-10-15T10:46:15Z</time>
      </trkpt>
      <trkpt lat="49.0964" lon="2.09801">
        <ele>99.3</ele>
        <time>2017-10-15T10:46:22Z</time>
      </trkpt>
      <trkpt lat="49.09637" lon="2.09791">
        <ele>101.2</ele>
        <time>2017-10-15T10:46:29Z</time>
      </trkpt>
      <trkpt lat="49.09634" lon="2.09779">
        <ele>102.2</ele>
        <time>2017-10-15T10:46:36Z</time>
      </trkpt>
      <trkpt lat="49.09631" lon="2.0977">
        <ele>103.6</ele>
        <time>2017-10-15T10:46:43Z</time>
      </trkpt>
      <trkpt lat="49.09627" lon="2.0976">
        <ele>102.9</ele>
        <time>2017-10-15T10:46:49Z</time>
      </trkpt>
      <trkpt lat="49.09623" lon="2.0975">
        <ele>102.9</ele>
        <time>2017-10-15T10:46:55Z</time>
      </trkpt>
      <trkpt lat="49.0962" lon="2.0974">
        <ele>103.9</ele>
        <time>2017-10-15T10:47:01Z</time>
      </trkpt>
      <trkpt lat="49.09617" lon="2.09729">
        <ele>104</ele>
        <time>2017-10-15T10:47:07Z</time>
      </trkpt>
      <trkpt lat="49.09613" lon="2.09717">
        <ele>103.2</ele>
        <time>2017-10-15T10:47:13Z</time>
      </trkpt>
      <trkpt lat="49.0961" lon="2.09706">
        <ele>102.4</ele>
        <time>2017-10-15T10:47:20Z</time>
      </trkpt>
      <trkpt lat="49.09606" lon="2.09695">
        <ele>101.4</ele>
        <time>2017-10-15T10:47:26Z</time>
      </trkpt>
      <trkpt lat="49.09603" lon="2.09684">
        <ele>100.2</ele>
        <time>2017-10-15T10:47:33Z</time>
      </trkpt>
      <trkpt lat="49.09601" lon="2.09672">
        <ele>97.1</ele>
        <time>2017-10-15T10:47:40Z</time>
      </trkpt>
      <trkpt lat="49.09601" lon="2.0966">
        <ele>97.2</ele>
        <time>2017-10-15T10:47:47Z</time>
      </trkpt>
      <trkpt lat="49.096" lon="2.09648">
        <ele>95.1</ele>
        <time>2017-10-15T10:47:53Z</time>
      </trkpt>
      <trkpt lat="49.09599" lon="2.09636">
        <ele>95.7</ele>
        <time>2017-10-15T10:48:00Z</time>
      </trkpt>
      <trkpt lat="49.09598" lon="2.09624">
        <ele>95.7</ele>
        <time>2017-10-15T10:48:06Z</time>
      </trkpt>
      <trkpt lat="49.09599" lon="2.09612">
        <ele>95</ele>
        <time>2017-10-15T10:48:13Z</time>
      </trkpt>
      <trkpt lat="49.096" lon="2.09601">
        <ele>94.3</ele>
        <time>2017-10-15T10:48:19Z</time>
      </trkpt>
      <trkpt lat="49.09601" lon="2.0959">
        <ele>95.9</ele>
        <time>2017-10-15T10:48:26Z</time>
      </trkpt>
      <trkpt lat="49.09602" lon="2.09577">
        <ele>94.9</ele>
        <time>2017-10-15T10:48:33Z</time>
      </trkpt>
      <trkpt lat="49.09602" lon="2.09566">
        <ele>95.9</ele>
        <time>2017-10-15T10:48:39Z</time>
      </trkpt>
      <trkpt lat="49.09602" lon="2.09555">
        <ele>98.9</ele>
        <time>2017-10-15T10:48:45Z</time>
      </trkpt>
      <trkpt lat="49.09602" lon="2.09542">
        <ele>100.9</ele>
        <time>2017-10-15T10:48:52Z</time>
      </trkpt>
      <trkpt lat="49.09593" lon="2.09539">
        <ele>98.8</ele>
        <time>2017-10-15T10:48:58Z</time>
      </trkpt>
      <trkpt lat="49.09585" lon="2.09536">
        <ele>98</ele>
        <time>2017-10-15T10:49:03Z</time>
      </trkpt>
      <trkpt lat="49.09578" lon="2.09534">
        <ele>97.5</ele>
        <time>2017-10-15T10:49:08Z</time>
      </trkpt>
      <trkpt lat="49.09569" lon="2.09534">
        <ele>97.3</ele>
        <time>2017-10-15T10:49:15Z</time>
      </trkpt>
      <trkpt lat="49.09562" lon="2.09533">
        <ele>98.1</ele>
        <time>2017-10-15T10:49:21Z</time>
      </trkpt>
      <trkpt lat="49.09554" lon="2.09528">
        <ele>96.9</ele>
        <time>2017-10-15T10:49:27Z</time>
      </trkpt>
      <trkpt lat="49.09547" lon="2.09527">
        <ele>97.7</ele>
        <time>2017-10-15T10:49:33Z</time>
      </trkpt>
      <trkpt lat="49.09542" lon="2.09535">
        <ele>97.8</ele>
        <time>2017-10-15T10:49:39Z</time>
      </trkpt>
      <trkpt lat="49.09541" lon="2.09541">
        <ele>95.8</ele>
        <time>2017-10-15T10:49:46Z</time>
      </trkpt>
      <trkpt lat="49.09541" lon="2.09545">
        <ele>94.6</ele>
        <time>2017-10-15T10:49:53Z</time>
      </trkpt>
      <trkpt lat="49.09539" lon="2.09555">
        <ele>93.5</ele>
        <time>2017-10-15T10:50:00Z</time>
      </trkpt>
      <trkpt lat="49.09536" lon="2.09565">
        <ele>92.8</ele>
        <time>2017-10-15T10:50:07Z</time>
      </trkpt>
      <trkpt lat="49.09535" lon="2.09572">
        <ele>93.6</ele>
        <time>2017-10-15T10:50:14Z</time>
      </trkpt>
      <trkpt lat="49.09534" lon="2.09579">
        <ele>94.7</ele>
        <time>2017-10-15T10:50:21Z</time>
      </trkpt>
      <trkpt lat="49.09534" lon="2.09583">
        <ele>96.1</ele>
        <time>2017-10-15T10:50:28Z</time>
      </trkpt>
      <trkpt lat="49.09536" lon="2.09587">
        <ele>96.3</ele>
        <time>2017-10-15T10:50:35Z</time>
      </trkpt>
      <trkpt lat="49.09537" lon="2.09596">
        <ele>94.9</ele>
        <time>2017-10-15T10:50:42Z</time>
      </trkpt>
      <trkpt lat="49.09535" lon="2.09606">
        <ele>95.2</ele>
        <time>2017-10-15T10:50:49Z</time>
      </trkpt>
      <trkpt lat="49.09529" lon="2.09607">
        <ele>94</ele>
        <time>2017-10-15T10:51:11Z</time>
      </trkpt>
      <trkpt lat="49.09521" lon="2.09603">
        <ele>97.6</ele>
        <time>2017-10-15T10:51:17Z</time>
      </trkpt>
      <trkpt lat="49.09514" lon="2.09604">
        <ele>97.2</ele>
        <time>2017-10-15T10:51:23Z</time>
      </trkpt>
      <trkpt lat="49.09506" lon="2.09603">
        <ele>97.7</ele>
        <time>2017-10-15T10:51:29Z</time>
      </trkpt>
      <trkpt lat="49.09503" lon="2.09602">
        <ele>98</ele>
        <time>2017-10-15T10:51:36Z</time>
      </trkpt>
      <trkpt lat="49.095" lon="2.096">
        <ele>99</ele>
        <time>2017-10-15T10:55:49Z</time>
      </trkpt>
      <trkpt lat="49.09502" lon="2.09604">
        <ele>98.9</ele>
        <time>2017-10-15T10:57:15Z</time>
      </trkpt>
      <trkpt lat="49.09502" lon="2.09598">
        <ele>99.2</ele>
        <time>2017-10-15T10:58:09Z</time>
      </trkpt>
      <trkpt lat="49.09502" lon="2.09604">
        <ele>99.4</ele>
        <time>2017-10-15T10:58:34Z</time>
      </trkpt>
      <trkpt lat="49.095" lon="2.09598">
        <ele>96.1</ele>
        <time>2017-10-15T11:17:39Z</time>
      </trkpt>
      <trkpt lat="49.09502" lon="2.09601">
        <ele>96.8</ele>
        <time>2017-10-15T11:18:21Z</time>
      </trkpt>
      <trkpt lat="49.09504" lon="2.09606">
        <ele>97.2</ele>
        <time>2017-10-15T11:18:28Z</time>
      </trkpt>
      <trkpt lat="49.09506" lon="2.09598">
        <ele>97.5</ele>
        <time>2017-10-15T11:22:34Z</time>
      </trkpt>
      <trkpt lat="49.09506" lon="2.09597">
        <ele>97.6</ele>
        <time>2017-10-15T11:22:41Z</time>
      </trkpt>
      <trkpt lat="49.09505" lon="2.09605">
        <ele>97.4</ele>
        <time>2017-10-15T11:22:52Z</time>
      </trkpt>
      <trkpt lat="49.09508" lon="2.09599">
        <ele>101.2</ele>
        <time>2017-10-15T11:30:49Z</time>
      </trkpt>
      <trkpt lat="49.09509" lon="2.09598">
        <ele>101.4</ele>
        <time>2017-10-15T11:30:56Z</time>
      </trkpt>
      <trkpt lat="49.09504" lon="2.09603">
        <ele>101.1</ele>
        <time>2017-10-15T11:31:19Z</time>
      </trkpt>
      <trkpt lat="49.09503" lon="2.09603">
        <ele>101.4</ele>
        <time>2017-10-15T11:31:26Z</time>
      </trkpt>
      <trkpt lat="49.09502" lon="2.09596">
        <ele>101.2</ele>
        <time>2017-10-15T11:33:21Z</time>
      </trkpt>
      <trkpt lat="49.09499" lon="2.09592">
        <ele>101.5</ele>
        <time>2017-10-15T11:33:28Z</time>
      </trkpt>
      <trkpt lat="49.09498" lon="2.09599">
        <ele>101.5</ele>
        <time>2017-10-15T11:34:33Z</time>
      </trkpt>
      <trkpt lat="49.09497" lon="2.09601">
        <ele>101</ele>
        <time>2017-10-15T11:34:40Z</time>
      </trkpt>
      <trkpt lat="49.09495" lon="2.09604">
        <ele>100.3</ele>
        <time>2017-10-15T11:34:58Z</time>
      </trkpt>
      <trkpt lat="49.09495" lon="2.09613">
        <ele>99.9</ele>
        <time>2017-10-15T11:35:24Z</time>
      </trkpt>
      <trkpt lat="49.09495" lon="2.0962">
        <ele>99.3</ele>
        <time>2017-10-15T11:35:31Z</time>
      </trkpt>
      <trkpt lat="49.09494" lon="2.09628">
        <ele>99.2</ele>
        <time>2017-10-15T11:35:38Z</time>
      </trkpt>
      <trkpt lat="49.09494" lon="2.09636">
        <ele>99.1</ele>
        <time>2017-10-15T11:35:45Z</time>
      </trkpt>
      <trkpt lat="49.09492" lon="2.09644">
        <ele>99.2</ele>
        <time>2017-10-15T11:35:52Z</time>
      </trkpt>
      <trkpt lat="49.09492" lon="2.09654">
        <ele>99.8</ele>
        <time>2017-10-15T11:35:59Z</time>
      </trkpt>
      <trkpt lat="49.09492" lon="2.09663">
        <ele>101.6</ele>
        <time>2017-10-15T11:36:06Z</time>
      </trkpt>
      <trkpt lat="49.09492" lon="2.09672">
        <ele>101.7</ele>
        <time>2017-10-15T11:36:13Z</time>
      </trkpt>
      <trkpt lat="49.09492" lon="2.09678">
        <ele>104.1</ele>
        <time>2017-10-15T11:36:20Z</time>
      </trkpt>
      <trkpt lat="49.09492" lon="2.09689">
        <ele>104.2</ele>
        <time>2017-10-15T11:36:27Z</time>
      </trkpt>
      <trkpt lat="49.09495" lon="2.09701">
        <ele>106.2</ele>
        <time>2017-10-15T11:36:33Z</time>
      </trkpt>
      <trkpt lat="49.09497" lon="2.09712">
        <ele>107</ele>
        <time>2017-10-15T11:36:40Z</time>
      </trkpt>
      <trkpt lat="49.09499" lon="2.09722">
        <ele>106</ele>
        <time>2017-10-15T11:36:47Z</time>
      </trkpt>
      <trkpt lat="49.09503" lon="2.09733">
        <ele>105.4</ele>
        <time>2017-10-15T11:36:54Z</time>
      </trkpt>
      <trkpt lat="49.09506" lon="2.09744">
        <ele>105.6</ele>
        <time>2017-10-15T11:37:01Z</time>
      </trkpt>
      <trkpt lat="49.09509" lon="2.09753">
        <ele>106.7</ele>
        <time>2017-10-15T11:37:08Z</time>
      </trkpt>
      <trkpt lat="49.09512" lon="2.09763">
        <ele>105.5</ele>
        <time>2017-10-15T11:37:32Z</time>
      </trkpt>
      <trkpt lat="49.09518" lon="2.09772">
        <ele>104.8</ele>
        <time>2017-10-15T11:37:39Z</time>
      </trkpt>
      <trkpt lat="49.09516" lon="2.09782">
        <ele>103.7</ele>
        <time>2017-10-15T11:37:46Z</time>
      </trkpt>
      <trkpt lat="49.09509" lon="2.09786">
        <ele>103.5</ele>
        <time>2017-10-15T11:37:52Z</time>
      </trkpt>
      <trkpt lat="49.09501" lon="2.09788">
        <ele>102.8</ele>
        <time>2017-10-15T11:37:59Z</time>
      </trkpt>
      <trkpt lat="49.09494" lon="2.09792">
        <ele>102.7</ele>
        <time>2017-10-15T11:38:05Z</time>
      </trkpt>
      <trkpt lat="49.09486" lon="2.09797">
        <ele>101.9</ele>
        <time>2017-10-15T11:38:11Z</time>
      </trkpt>
      <trkpt lat="49.09478" lon="2.09801">
        <ele>101.5</ele>
        <time>2017-10-15T11:38:17Z</time>
      </trkpt>
      <trkpt lat="49.09472" lon="2.09805">
        <ele>102.3</ele>
        <time>2017-10-15T11:38:23Z</time>
      </trkpt>
      <trkpt lat="49.09465" lon="2.09809">
        <ele>102.3</ele>
        <time>2017-10-15T11:38:30Z</time>
      </trkpt>
      <trkpt lat="49.09458" lon="2.09814">
        <ele>101.3</ele>
        <time>2017-10-15T11:38:37Z</time>
      </trkpt>
      <trkpt lat="49.09451" lon="2.09818">
        <ele>101.4</ele>
        <time>2017-10-15T11:38:43Z</time>
      </trkpt>
      <trkpt lat="49.09444" lon="2.09822">
        <ele>101</ele>
        <time>2017-10-15T11:38:49Z</time>
      </trkpt>
      <trkpt lat="49.09437" lon="2.09826">
        <ele>101</ele>
        <time>2017-10-15T11:38:55Z</time>
      </trkpt>
      <trkpt lat="49.09429" lon="2.0983">
        <ele>101.4</ele>
        <time>2017-10-15T11:39:01Z</time>
      </trkpt>
      <trkpt lat="49.09422" lon="2.09833">
        <ele>101.1</ele>
        <time>2017-10-15T11:39:07Z</time>
      </trkpt>
      <trkpt lat="49.09415" lon="2.09838">
        <ele>101.1</ele>
        <time>2017-10-15T11:39:12Z</time>
      </trkpt>
      <trkpt lat="49.09408" lon="2.09842">
        <ele>101</ele>
        <time>2017-10-15T11:39:17Z</time>
      </trkpt>
      <trkpt lat="49.094" lon="2.09844">
        <ele>100.6</ele>
        <time>2017-10-15T11:39:23Z</time>
      </trkpt>
      <trkpt lat="49.09392" lon="2.09848">
        <ele>100.8</ele>
        <time>2017-10-15T11:39:29Z</time>
      </trkpt>
      <trkpt lat="49.09384" lon="2.09851">
        <ele>100.5</ele>
        <time>2017-10-15T11:39:35Z</time>
      </trkpt>
      <trkpt lat="49.09376" lon="2.09853">
        <ele>99.3</ele>
        <time>2017-10-15T11:39:41Z</time>
      </trkpt>
      <trkpt lat="49.09369" lon="2.09856">
        <ele>98.8</ele>
        <time>2017-10-15T11:39:46Z</time>
      </trkpt>
      <trkpt lat="49.0936" lon="2.09858">
        <ele>99</ele>
        <time>2017-10-15T11:39:52Z</time>
      </trkpt>
      <trkpt lat="49.09352" lon="2.09862">
        <ele>98.3</ele>
        <time>2017-10-15T11:39:59Z</time>
      </trkpt>
      <trkpt lat="49.09345" lon="2.09864">
        <ele>98.8</ele>
        <time>2017-10-15T11:40:05Z</time>
      </trkpt>
      <trkpt lat="49.09337" lon="2.09865">
        <ele>98.9</ele>
        <time>2017-10-15T11:40:11Z</time>
      </trkpt>
      <trkpt lat="49.09329" lon="2.09867">
        <ele>98.3</ele>
        <time>2017-10-15T11:40:17Z</time>
      </trkpt>
      <trkpt lat="49.09321" lon="2.09868">
        <ele>98.1</ele>
        <time>2017-10-15T11:40:23Z</time>
      </trkpt>
      <trkpt lat="49.09314" lon="2.0987">
        <ele>98.2</ele>
        <time>2017-10-15T11:40:29Z</time>
      </trkpt>
      <trkpt lat="49.09306" lon="2.09872">
        <ele>98.9</ele>
        <time>2017-10-15T11:40:35Z</time>
      </trkpt>
      <trkpt lat="49.09298" lon="2.09874">
        <ele>98.2</ele>
        <time>2017-10-15T11:40:42Z</time>
      </trkpt>
      <trkpt lat="49.09291" lon="2.09877">
        <ele>97.5</ele>
        <time>2017-10-15T11:40:49Z</time>
      </trkpt>
      <trkpt lat="49.09282" lon="2.0988">
        <ele>96.8</ele>
        <time>2017-10-15T11:40:55Z</time>
      </trkpt>
      <trkpt lat="49.09274" lon="2.09882">
        <ele>96.5</ele>
        <time>2017-10-15T11:41:01Z</time>
      </trkpt>
      <trkpt lat="49.09267" lon="2.09886">
        <ele>97.2</ele>
        <time>2017-10-15T11:41:07Z</time>
      </trkpt>
      <trkpt lat="49.09259" lon="2.09887">
        <ele>97.6</ele>
        <time>2017-10-15T11:41:12Z</time>
      </trkpt>
      <trkpt lat="49.09252" lon="2.09889">
        <ele>96.7</ele>
        <time>2017-10-15T11:41:18Z</time>
      </trkpt>
      <trkpt lat="49.09244" lon="2.09892">
        <ele>96.7</ele>
        <time>2017-10-15T11:41:25Z</time>
      </trkpt>
      <trkpt lat="49.09241" lon="2.09894">
        <ele>96.5</ele>
        <time>2017-10-15T11:41:32Z</time>
      </trkpt>
      <trkpt lat="49.09235" lon="2.09895">
        <ele>98.3</ele>
        <time>2017-10-15T11:41:39Z</time>
      </trkpt>
      <trkpt lat="49.09226" lon="2.09897">
        <ele>98.9</ele>
        <time>2017-10-15T11:41:46Z</time>
      </trkpt>
      <trkpt lat="49.09219" lon="2.099">
        <ele>99.7</ele>
        <time>2017-10-15T11:41:52Z</time>
      </trkpt>
      <trkpt lat="49.09212" lon="2.09902">
        <ele>100</ele>
        <time>2017-10-15T11:41:58Z</time>
      </trkpt>
      <trkpt lat="49.09205" lon="2.09903">
        <ele>99.7</ele>
        <time>2017-10-15T11:42:04Z</time>
      </trkpt>
      <trkpt lat="49.09198" lon="2.09905">
        <ele>99.1</ele>
        <time>2017-10-15T11:42:10Z</time>
      </trkpt>
      <trkpt lat="49.0919" lon="2.09907">
        <ele>98.8</ele>
        <time>2017-10-15T11:42:16Z</time>
      </trkpt>
      <trkpt lat="49.09181" lon="2.09909">
        <ele>98.7</ele>
        <time>2017-10-15T11:42:23Z</time>
      </trkpt>
      <trkpt lat="49.09174" lon="2.09905">
        <ele>97.8</ele>
        <time>2017-10-15T11:42:30Z</time>
      </trkpt>
      <trkpt lat="49.09166" lon="2.09905">
        <ele>98.8</ele>
        <time>2017-10-15T11:42:37Z</time>
      </trkpt>
      <trkpt lat="49.09158" lon="2.09909">
        <ele>99.1</ele>
        <time>2017-10-15T11:42:44Z</time>
      </trkpt>
      <trkpt lat="49.0915" lon="2.09912">
        <ele>99.1</ele>
        <time>2017-10-15T11:42:51Z</time>
      </trkpt>
      <trkpt lat="49.09142" lon="2.09914">
        <ele>98.1</ele>
        <time>2017-10-15T11:42:58Z</time>
      </trkpt>
      <trkpt lat="49.09135" lon="2.09916">
        <ele>95.8</ele>
        <time>2017-10-15T11:43:05Z</time>
      </trkpt>
      <trkpt lat="49.09127" lon="2.0992">
        <ele>96</ele>
        <time>2017-10-15T11:43:11Z</time>
      </trkpt>
      <trkpt lat="49.0912" lon="2.09922">
        <ele>95.6</ele>
        <time>2017-10-15T11:43:17Z</time>
      </trkpt>
      <trkpt lat="49.09117" lon="2.09922">
        <ele>95.6</ele>
        <time>2017-10-15T11:43:24Z</time>
      </trkpt>
      <trkpt lat="49.09116" lon="2.09923">
        <ele>95.2</ele>
        <time>2017-10-15T11:43:31Z</time>
      </trkpt>
      <trkpt lat="49.0911" lon="2.09927">
        <ele>94.8</ele>
        <time>2017-10-15T11:43:38Z</time>
      </trkpt>
      <trkpt lat="49.09102" lon="2.09932">
        <ele>95</ele>
        <time>2017-10-15T11:43:44Z</time>
      </trkpt>
      <trkpt lat="49.09095" lon="2.09936">
        <ele>95.7</ele>
        <time>2017-10-15T11:43:50Z</time>
      </trkpt>
      <trkpt lat="49.09087" lon="2.09941">
        <ele>96.3</ele>
        <time>2017-10-15T11:43:56Z</time>
      </trkpt>
      <trkpt lat="49.0908" lon="2.09947">
        <ele>96.3</ele>
        <time>2017-10-15T11:44:02Z</time>
      </trkpt>
      <trkpt lat="49.09073" lon="2.09951">
        <ele>96.5</ele>
        <time>2017-10-15T11:44:08Z</time>
      </trkpt>
      <trkpt lat="49.09066" lon="2.09957">
        <ele>96</ele>
        <time>2017-10-15T11:44:14Z</time>
      </trkpt>
      <trkpt lat="49.09059" lon="2.09963">
        <ele>96.3</ele>
        <time>2017-10-15T11:44:21Z</time>
      </trkpt>
      <trkpt lat="49.09053" lon="2.09968">
        <ele>97.3</ele>
        <time>2017-10-15T11:44:28Z</time>
      </trkpt>
      <trkpt lat="49.09048" lon="2.09973">
        <ele>96.8</ele>
        <time>2017-10-15T11:44:35Z</time>
      </trkpt>
      <trkpt lat="49.09041" lon="2.0998">
        <ele>97</ele>
        <time>2017-10-15T11:44:41Z</time>
      </trkpt>
      <trkpt lat="49.09034" lon="2.09985">
        <ele>97.1</ele>
        <time>2017-10-15T11:44:47Z</time>
      </trkpt>
      <trkpt lat="49.09028" lon="2.09992">
        <ele>98.4</ele>
        <time>2017-10-15T11:44:54Z</time>
      </trkpt>
      <trkpt lat="49.09021" lon="2.09998">
        <ele>98.4</ele>
        <time>2017-10-15T11:45:00Z</time>
      </trkpt>
      <trkpt lat="49.09015" lon="2.10004">
        <ele>96.7</ele>
        <time>2017-10-15T11:45:07Z</time>
      </trkpt>
      <trkpt lat="49.09008" lon="2.10012">
        <ele>96.9</ele>
        <time>2017-10-15T11:45:14Z</time>
      </trkpt>
      <trkpt lat="49.09001" lon="2.10017">
        <ele>96.8</ele>
        <time>2017-10-15T11:45:20Z</time>
      </trkpt>
      <trkpt lat="49.08998" lon="2.10021">
        <ele>96.8</ele>
        <time>2017-10-15T11:45:27Z</time>
      </trkpt>
      <trkpt lat="49.08991" lon="2.10028">
        <ele>98.1</ele>
        <time>2017-10-15T11:46:01Z</time>
      </trkpt>
      <trkpt lat="49.08984" lon="2.10034">
        <ele>98</ele>
        <time>2017-10-15T11:46:07Z</time>
      </trkpt>
      <trkpt lat="49.08978" lon="2.10039">
        <ele>97.6</ele>
        <time>2017-10-15T11:46:13Z</time>
      </trkpt>
      <trkpt lat="49.08972" lon="2.10043">
        <ele>97.8</ele>
        <time>2017-10-15T11:46:20Z</time>
      </trkpt>
      <trkpt lat="49.08966" lon="2.10048">
        <ele>96.1</ele>
        <time>2017-10-15T11:46:26Z</time>
      </trkpt>
      <trkpt lat="49.08959" lon="2.10055">
        <ele>95.9</ele>
        <time>2017-10-15T11:46:33Z</time>
      </trkpt>
      <trkpt lat="49.08953" lon="2.10062">
        <ele>95.1</ele>
        <time>2017-10-15T11:46:40Z</time>
      </trkpt>
      <trkpt lat="49.08949" lon="2.10072">
        <ele>94.8</ele>
        <time>2017-10-15T11:46:47Z</time>
      </trkpt>
      <trkpt lat="49.08951" lon="2.10083">
        <ele>95.6</ele>
        <time>2017-10-15T11:46:54Z</time>
      </trkpt>
      <trkpt lat="49.08953" lon="2.10095">
        <ele>96.2</ele>
        <time>2017-10-15T11:47:01Z</time>
      </trkpt>
      <trkpt lat="49.08955" lon="2.10107">
        <ele>96.9</ele>
        <time>2017-10-15T11:47:08Z</time>
      </trkpt>
      <trkpt lat="49.08959" lon="2.10118">
        <ele>97.5</ele>
        <time>2017-10-15T11:47:15Z</time>
      </trkpt>
      <trkpt lat="49.08961" lon="2.10129">
        <ele>97.1</ele>
        <time>2017-10-15T11:47:21Z</time>
      </trkpt>
      <trkpt lat="49.08964" lon="2.1014">
        <ele>97</ele>
        <time>2017-10-15T11:47:28Z</time>
      </trkpt>
      <trkpt lat="49.08967" lon="2.10151">
        <ele>97.7</ele>
        <time>2017-10-15T11:47:35Z</time>
      </trkpt>
      <trkpt lat="49.0897" lon="2.10162">
        <ele>97.2</ele>
        <time>2017-10-15T11:47:42Z</time>
      </trkpt>
      <trkpt lat="49.08974" lon="2.10174">
        <ele>97</ele>
        <time>2017-10-15T11:47:49Z</time>
      </trkpt>
      <trkpt lat="49.08977" lon="2.10186">
        <ele>97.1</ele>
        <time>2017-10-15T11:47:56Z</time>
      </trkpt>
      <trkpt lat="49.0898" lon="2.10195">
        <ele>97.8</ele>
        <time>2017-10-15T11:48:03Z</time>
      </trkpt>
      <trkpt lat="49.08983" lon="2.10207">
        <ele>98.7</ele>
        <time>2017-10-15T11:48:10Z</time>
      </trkpt>
      <trkpt lat="49.08985" lon="2.10216">
        <ele>97.6</ele>
        <time>2017-10-15T11:48:17Z</time>
      </trkpt>
      <trkpt lat="49.08988" lon="2.10226">
        <ele>97.2</ele>
        <time>2017-10-15T11:48:24Z</time>
      </trkpt>
      <trkpt lat="49.0899" lon="2.10237">
        <ele>98.8</ele>
        <time>2017-10-15T11:48:30Z</time>
      </trkpt>
      <trkpt lat="49.08993" lon="2.10248">
        <ele>98.7</ele>
        <time>2017-10-15T11:48:36Z</time>
      </trkpt>
      <trkpt lat="49.08995" lon="2.10259">
        <ele>98.9</ele>
        <time>2017-10-15T11:48:42Z</time>
      </trkpt>
      <trkpt lat="49.08998" lon="2.10271">
        <ele>98.8</ele>
        <time>2017-10-15T11:48:49Z</time>
      </trkpt>
      <trkpt lat="49.09002" lon="2.10281">
        <ele>98.7</ele>
        <time>2017-10-15T11:48:54Z</time>
      </trkpt>
      <trkpt lat="49.09005" lon="2.10294">
        <ele>99.7</ele>
        <time>2017-10-15T11:49:01Z</time>
      </trkpt>
      <trkpt lat="49.09007" lon="2.10305">
        <ele>99.1</ele>
        <time>2017-10-15T11:49:07Z</time>
      </trkpt>
      <trkpt lat="49.0901" lon="2.10316">
        <ele>99.8</ele>
        <time>2017-10-15T11:49:12Z</time>
      </trkpt>
      <trkpt lat="49.09013" lon="2.10326">
        <ele>99.9</ele>
        <time>2017-10-15T11:49:18Z</time>
      </trkpt>
      <trkpt lat="49.09016" lon="2.10338">
        <ele>100.7</ele>
        <time>2017-10-15T11:49:25Z</time>
      </trkpt>
      <trkpt lat="49.09019" lon="2.1035">
        <ele>100</ele>
        <time>2017-10-15T11:49:32Z</time>
      </trkpt>
      <trkpt lat="49.09022" lon="2.10362">
        <ele>99.3</ele>
        <time>2017-10-15T11:49:39Z</time>
      </trkpt>
      <trkpt lat="49.09024" lon="2.10372">
        <ele>100.5</ele>
        <time>2017-10-15T11:49:45Z</time>
      </trkpt>
      <trkpt lat="49.09024" lon="2.10384">
        <ele>98.9</ele>
        <time>2017-10-15T11:49:52Z</time>
      </trkpt>
      <trkpt lat="49.09017" lon="2.10388">
        <ele>96.9</ele>
        <time>2017-10-15T11:49:59Z</time>
      </trkpt>
      <trkpt lat="49.0901" lon="2.10392">
        <ele>95.5</ele>
        <time>2017-10-15T11:50:06Z</time>
      </trkpt>
      <trkpt lat="49.09004" lon="2.10397">
        <ele>95.3</ele>
        <time>2017-10-15T11:50:12Z</time>
      </trkpt>
      <trkpt lat="49.08997" lon="2.10401">
        <ele>94.7</ele>
        <time>2017-10-15T11:50:18Z</time>
      </trkpt>
      <trkpt lat="49.08989" lon="2.10405">
        <ele>94.8</ele>
        <time>2017-10-15T11:50:24Z</time>
      </trkpt>
      <trkpt lat="49.08982" lon="2.1041">
        <ele>94</ele>
        <time>2017-10-15T11:50:30Z</time>
      </trkpt>
      <trkpt lat="49.08975" lon="2.10414">
        <ele>93.6</ele>
        <time>2017-10-15T11:50:36Z</time>
      </trkpt>
      <trkpt lat="49.08968" lon="2.10419">
        <ele>92.7</ele>
        <time>2017-10-15T11:50:43Z</time>
      </trkpt>
      <trkpt lat="49.08961" lon="2.10424">
        <ele>90.6</ele>
        <time>2017-10-15T11:50:49Z</time>
      </trkpt>
      <trkpt lat="49.08953" lon="2.10429">
        <ele>90.3</ele>
        <time>2017-10-15T11:50:55Z</time>
      </trkpt>
      <trkpt lat="49.08946" lon="2.10433">
        <ele>89.6</ele>
        <time>2017-10-15T11:51:01Z</time>
      </trkpt>
      <trkpt lat="49.0894" lon="2.10438">
        <ele>89.6</ele>
        <time>2017-10-15T11:51:07Z</time>
      </trkpt>
      <trkpt lat="49.08932" lon="2.10443">
        <ele>88.4</ele>
        <time>2017-10-15T11:51:14Z</time>
      </trkpt>
      <trkpt lat="49.08925" lon="2.10448">
        <ele>87.6</ele>
        <time>2017-10-15T11:51:20Z</time>
      </trkpt>
      <trkpt lat="49.08918" lon="2.10452">
        <ele>87.4</ele>
        <time>2017-10-15T11:51:26Z</time>
      </trkpt>
      <trkpt lat="49.08912" lon="2.10456">
        <ele>86.7</ele>
        <time>2017-10-15T11:51:32Z</time>
      </trkpt>
      <trkpt lat="49.08904" lon="2.10461">
        <ele>86.7</ele>
        <time>2017-10-15T11:51:39Z</time>
      </trkpt>
      <trkpt lat="49.08897" lon="2.10465">
        <ele>84.8</ele>
        <time>2017-10-15T11:51:46Z</time>
      </trkpt>
      <trkpt lat="49.08889" lon="2.10469">
        <ele>83.2</ele>
        <time>2017-10-15T11:51:53Z</time>
      </trkpt>
      <trkpt lat="49.08882" lon="2.10464">
        <ele>84.2</ele>
        <time>2017-10-15T11:51:59Z</time>
      </trkpt>
      <trkpt lat="49.08877" lon="2.10455">
        <ele>84.3</ele>
        <time>2017-10-15T11:52:05Z</time>
      </trkpt>
      <trkpt lat="49.08873" lon="2.10445">
        <ele>84.3</ele>
        <time>2017-10-15T11:52:11Z</time>
      </trkpt>
      <trkpt lat="49.0887" lon="2.10442">
        <ele>84.9</ele>
        <time>2017-10-15T11:52:18Z</time>
      </trkpt>
      <trkpt lat="49.08868" lon="2.10432">
        <ele>84.4</ele>
        <time>2017-10-15T11:52:29Z</time>
      </trkpt>
      <trkpt lat="49.08863" lon="2.10421">
        <ele>84</ele>
        <time>2017-10-15T11:52:36Z</time>
      </trkpt>
      <trkpt lat="49.08861" lon="2.10411">
        <ele>83.2</ele>
        <time>2017-10-15T11:52:42Z</time>
      </trkpt>
      <trkpt lat="49.08856" lon="2.10399">
        <ele>83.7</ele>
        <time>2017-10-15T11:52:48Z</time>
      </trkpt>
      <trkpt lat="49.08853" lon="2.10389">
        <ele>83.3</ele>
        <time>2017-10-15T11:52:54Z</time>
      </trkpt>
      <trkpt lat="49.08849" lon="2.10378">
        <ele>83.4</ele>
        <time>2017-10-15T11:53:00Z</time>
      </trkpt>
      <trkpt lat="49.08846" lon="2.10368">
        <ele>84.1</ele>
        <time>2017-10-15T11:53:06Z</time>
      </trkpt>
      <trkpt lat="49.08843" lon="2.10357">
        <ele>84.4</ele>
        <time>2017-10-15T11:53:12Z</time>
      </trkpt>
      <trkpt lat="49.08839" lon="2.10347">
        <ele>84.3</ele>
        <time>2017-10-15T11:53:17Z</time>
      </trkpt>
      <trkpt lat="49.08837" lon="2.10335">
        <ele>82.5</ele>
        <time>2017-10-15T11:53:23Z</time>
      </trkpt>
      <trkpt lat="49.08832" lon="2.10324">
        <ele>82.4</ele>
        <time>2017-10-15T11:53:29Z</time>
      </trkpt>
      <trkpt lat="49.08828" lon="2.10313">
        <ele>83.2</ele>
        <time>2017-10-15T11:53:35Z</time>
      </trkpt>
      <trkpt lat="49.08825" lon="2.10303">
        <ele>83.8</ele>
        <time>2017-10-15T11:53:40Z</time>
      </trkpt>
      <trkpt lat="49.08821" lon="2.10292">
        <ele>84</ele>
        <time>2017-10-15T11:53:46Z</time>
      </trkpt>
      <trkpt lat="49.08818" lon="2.10282">
        <ele>84.8</ele>
        <time>2017-10-15T11:53:52Z</time>
      </trkpt>
      <trkpt lat="49.08815" lon="2.10272">
        <ele>86.6</ele>
        <time>2017-10-15T11:53:59Z</time>
      </trkpt>
      <trkpt lat="49.08811" lon="2.10262">
        <ele>87.5</ele>
        <time>2017-10-15T11:54:05Z</time>
      </trkpt>
      <trkpt lat="49.08808" lon="2.10251">
        <ele>87.5</ele>
        <time>2017-10-15T11:54:11Z</time>
      </trkpt>
      <trkpt lat="49.08804" lon="2.1024">
        <ele>86.6</ele>
        <time>2017-10-15T11:54:17Z</time>
      </trkpt>
      <trkpt lat="49.08801" lon="2.1023">
        <ele>86.4</ele>
        <time>2017-10-15T11:54:23Z</time>
      </trkpt>
      <trkpt lat="49.08797" lon="2.10219">
        <ele>85.8</ele>
        <time>2017-10-15T11:54:30Z</time>
      </trkpt>
      <trkpt lat="49.08794" lon="2.10209">
        <ele>85.5</ele>
        <time>2017-10-15T11:54:36Z</time>
      </trkpt>
      <trkpt lat="49.0879" lon="2.10199">
        <ele>84.8</ele>
        <time>2017-10-15T11:54:42Z</time>
      </trkpt>
      <trkpt lat="49.08786" lon="2.10188">
        <ele>84.8</ele>
        <time>2017-10-15T11:54:48Z</time>
      </trkpt>
      <trkpt lat="49.08782" lon="2.10178">
        <ele>84</ele>
        <time>2017-10-15T11:54:54Z</time>
      </trkpt>
      <trkpt lat="49.08779" lon="2.10168">
        <ele>83.7</ele>
        <time>2017-10-15T11:55:00Z</time>
      </trkpt>
      <trkpt lat="49.08775" lon="2.10157">
        <ele>83.1</ele>
        <time>2017-10-15T11:55:07Z</time>
      </trkpt>
      <trkpt lat="49.08771" lon="2.10148">
        <ele>82.5</ele>
        <time>2017-10-15T11:55:13Z</time>
      </trkpt>
      <trkpt lat="49.08767" lon="2.10138">
        <ele>82.1</ele>
        <time>2017-10-15T11:55:19Z</time>
      </trkpt>
      <trkpt lat="49.08764" lon="2.10138">
        <ele>83.4</ele>
        <time>2017-10-15T11:55:26Z</time>
      </trkpt>
      <trkpt lat="49.08757" lon="2.10142">
        <ele>82.9</ele>
        <time>2017-10-15T11:55:36Z</time>
      </trkpt>
      <trkpt lat="49.08749" lon="2.10146">
        <ele>82.6</ele>
        <time>2017-10-15T11:55:42Z</time>
      </trkpt>
      <trkpt lat="49.08742" lon="2.10148">
        <ele>82.1</ele>
        <time>2017-10-15T11:55:47Z</time>
      </trkpt>
      <trkpt lat="49.08733" lon="2.1015">
        <ele>82.8</ele>
        <time>2017-10-15T11:55:53Z</time>
      </trkpt>
      <trkpt lat="49.08726" lon="2.10153">
        <ele>83.5</ele>
        <time>2017-10-15T11:55:59Z</time>
      </trkpt>
      <trkpt lat="49.08717" lon="2.10156">
        <ele>84.3</ele>
        <time>2017-10-15T11:56:06Z</time>
      </trkpt>
      <trkpt lat="49.0871" lon="2.10159">
        <ele>85.4</ele>
        <time>2017-10-15T11:56:13Z</time>
      </trkpt>
      <trkpt lat="49.08702" lon="2.10163">
        <ele>84.6</ele>
        <time>2017-10-15T11:56:19Z</time>
      </trkpt>
      <trkpt lat="49.08695" lon="2.10168">
        <ele>83.9</ele>
        <time>2017-10-15T11:56:25Z</time>
      </trkpt>
      <trkpt lat="49.08688" lon="2.10171">
        <ele>84.1</ele>
        <time>2017-10-15T11:56:31Z</time>
      </trkpt>
      <trkpt lat="49.08681" lon="2.10173">
        <ele>84.9</ele>
        <time>2017-10-15T11:56:38Z</time>
      </trkpt>
      <trkpt lat="49.08673" lon="2.10175">
        <ele>85.2</ele>
        <time>2017-10-15T11:56:45Z</time>
      </trkpt>
      <trkpt lat="49.08666" lon="2.10178">
        <ele>85</ele>
        <time>2017-10-15T11:56:51Z</time>
      </trkpt>
      <trkpt lat="49.08659" lon="2.10182">
        <ele>84.7</ele>
        <time>2017-10-15T11:56:57Z</time>
      </trkpt>
      <trkpt lat="49.08652" lon="2.10186">
        <ele>84.3</ele>
        <time>2017-10-15T11:57:03Z</time>
      </trkpt>
      <trkpt lat="49.08645" lon="2.10191">
        <ele>83.5</ele>
        <time>2017-10-15T11:57:09Z</time>
      </trkpt>
      <trkpt lat="49.08638" lon="2.10195">
        <ele>82.3</ele>
        <time>2017-10-15T11:57:15Z</time>
      </trkpt>
      <trkpt lat="49.08631" lon="2.10201">
        <ele>81</ele>
        <time>2017-10-15T11:57:21Z</time>
      </trkpt>
      <trkpt lat="49.08624" lon="2.10208">
        <ele>79.1</ele>
        <time>2017-10-15T11:57:27Z</time>
      </trkpt>
      <trkpt lat="49.08618" lon="2.10214">
        <ele>77.3</ele>
        <time>2017-10-15T11:57:33Z</time>
      </trkpt>
      <trkpt lat="49.08611" lon="2.10221">
        <ele>76.8</ele>
        <time>2017-10-15T11:57:40Z</time>
      </trkpt>
      <trkpt lat="49.08604" lon="2.10227">
        <ele>76.2</ele>
        <time>2017-10-15T11:57:46Z</time>
      </trkpt>
      <trkpt lat="49.08597" lon="2.10232">
        <ele>76.1</ele>
        <time>2017-10-15T11:57:53Z</time>
      </trkpt>
      <trkpt lat="49.0859" lon="2.10237">
        <ele>76.4</ele>
        <time>2017-10-15T11:58:00Z</time>
      </trkpt>
      <trkpt lat="49.08584" lon="2.10244">
        <ele>76.4</ele>
        <time>2017-10-15T11:58:07Z</time>
      </trkpt>
      <trkpt lat="49.08576" lon="2.10248">
        <ele>76.2</ele>
        <time>2017-10-15T11:58:14Z</time>
      </trkpt>
      <trkpt lat="49.0857" lon="2.10252">
        <ele>76.6</ele>
        <time>2017-10-15T11:58:20Z</time>
      </trkpt>
      <trkpt lat="49.08562" lon="2.10257">
        <ele>76.3</ele>
        <time>2017-10-15T11:58:27Z</time>
      </trkpt>
      <trkpt lat="49.08556" lon="2.10264">
        <ele>74.8</ele>
        <time>2017-10-15T11:58:34Z</time>
      </trkpt>
      <trkpt lat="49.08552" lon="2.10268">
        <ele>74.6</ele>
        <time>2017-10-15T11:58:41Z</time>
      </trkpt>
      <trkpt lat="49.08546" lon="2.10277">
        <ele>75.6</ele>
        <time>2017-10-15T11:59:28Z</time>
      </trkpt>
      <trkpt lat="49.08542" lon="2.10281">
        <ele>77.6</ele>
        <time>2017-10-15T11:59:35Z</time>
      </trkpt>
      <trkpt lat="49.08539" lon="2.10282">
        <ele>77.4</ele>
        <time>2017-10-15T11:59:42Z</time>
      </trkpt>
      <trkpt lat="49.08536" lon="2.10284">
        <ele>76.9</ele>
        <time>2017-10-15T12:00:02Z</time>
      </trkpt>
      <trkpt lat="49.08531" lon="2.10281">
        <ele>75.8</ele>
        <time>2017-10-15T12:00:24Z</time>
      </trkpt>
      <trkpt lat="49.08524" lon="2.10287">
        <ele>76.6</ele>
        <time>2017-10-15T12:00:41Z</time>
      </trkpt>
      <trkpt lat="49.08517" lon="2.10292">
        <ele>78.5</ele>
        <time>2017-10-15T12:00:48Z</time>
      </trkpt>
      <trkpt lat="49.0851" lon="2.10298">
        <ele>78.3</ele>
        <time>2017-10-15T12:00:54Z</time>
      </trkpt>
      <trkpt lat="49.08503" lon="2.10304">
        <ele>77.2</ele>
        <time>2017-10-15T12:01:00Z</time>
      </trkpt>
      <trkpt lat="49.08496" lon="2.1031">
        <ele>78.7</ele>
        <time>2017-10-15T12:01:06Z</time>
      </trkpt>
      <trkpt lat="49.0849" lon="2.10315">
        <ele>78.8</ele>
        <time>2017-10-15T12:01:12Z</time>
      </trkpt>
      <trkpt lat="49.08483" lon="2.10322">
        <ele>78.3</ele>
        <time>2017-10-15T12:01:19Z</time>
      </trkpt>
      <trkpt lat="49.08477" lon="2.10329">
        <ele>75.7</ele>
        <time>2017-10-15T12:01:26Z</time>
      </trkpt>
      <trkpt lat="49.08471" lon="2.10336">
        <ele>76.2</ele>
        <time>2017-10-15T12:01:32Z</time>
      </trkpt>
      <trkpt lat="49.08465" lon="2.10343">
        <ele>76.4</ele>
        <time>2017-10-15T12:01:38Z</time>
      </trkpt>
      <trkpt lat="49.08459" lon="2.1035">
        <ele>76.2</ele>
        <time>2017-10-15T12:01:45Z</time>
      </trkpt>
      <trkpt lat="49.08452" lon="2.10356">
        <ele>75.5</ele>
        <time>2017-10-15T12:01:52Z</time>
      </trkpt>
      <trkpt lat="49.08446" lon="2.10362">
        <ele>77.9</ele>
        <time>2017-10-15T12:01:59Z</time>
      </trkpt>
      <trkpt lat="49.0844" lon="2.10368">
        <ele>79.1</ele>
        <time>2017-10-15T12:02:05Z</time>
      </trkpt>
      <trkpt lat="49.08434" lon="2.10376">
        <ele>80.2</ele>
        <time>2017-10-15T12:02:11Z</time>
      </trkpt>
      <trkpt lat="49.08428" lon="2.10381">
        <ele>81</ele>
        <time>2017-10-15T12:02:18Z</time>
      </trkpt>
      <trkpt lat="49.08421" lon="2.10388">
        <ele>81.8</ele>
        <time>2017-10-15T12:02:24Z</time>
      </trkpt>
      <trkpt lat="49.08414" lon="2.10393">
        <ele>79.2</ele>
        <time>2017-10-15T12:02:31Z</time>
      </trkpt>
      <trkpt lat="49.08407" lon="2.10398">
        <ele>79.6</ele>
        <time>2017-10-15T12:02:38Z</time>
      </trkpt>
      <trkpt lat="49.084" lon="2.10405">
        <ele>78.7</ele>
        <time>2017-10-15T12:02:43Z</time>
      </trkpt>
      <trkpt lat="49.08392" lon="2.1041">
        <ele>77.8</ele>
        <time>2017-10-15T12:02:50Z</time>
      </trkpt>
      <trkpt lat="49.08386" lon="2.10416">
        <ele>78</ele>
        <time>2017-10-15T12:02:55Z</time>
      </trkpt>
      <trkpt lat="49.08379" lon="2.10423">
        <ele>77.4</ele>
        <time>2017-10-15T12:03:02Z</time>
      </trkpt>
      <trkpt lat="49.08373" lon="2.10429">
        <ele>77.4</ele>
        <time>2017-10-15T12:03:06Z</time>
      </trkpt>
      <trkpt lat="49.08366" lon="2.10435">
        <ele>75.8</ele>
        <time>2017-10-15T12:03:12Z</time>
      </trkpt>
      <trkpt lat="49.08359" lon="2.10442">
        <ele>76.8</ele>
        <time>2017-10-15T12:03:17Z</time>
      </trkpt>
      <trkpt lat="49.08354" lon="2.10449">
        <ele>76</ele>
        <time>2017-10-15T12:03:24Z</time>
      </trkpt>
      <trkpt lat="49.08346" lon="2.10454">
        <ele>75.1</ele>
        <time>2017-10-15T12:03:29Z</time>
      </trkpt>
      <trkpt lat="49.0834" lon="2.1046">
        <ele>73.8</ele>
        <time>2017-10-15T12:03:35Z</time>
      </trkpt>
      <trkpt lat="49.08332" lon="2.10466">
        <ele>73.7</ele>
        <time>2017-10-15T12:03:42Z</time>
      </trkpt>
      <trkpt lat="49.08326" lon="2.10473">
        <ele>73.7</ele>
        <time>2017-10-15T12:03:49Z</time>
      </trkpt>
      <trkpt lat="49.0832" lon="2.1048">
        <ele>76.1</ele>
        <time>2017-10-15T12:03:54Z</time>
      </trkpt>
      <trkpt lat="49.08313" lon="2.10488">
        <ele>76.4</ele>
        <time>2017-10-15T12:04:01Z</time>
      </trkpt>
      <trkpt lat="49.08307" lon="2.10495">
        <ele>76.6</ele>
        <time>2017-10-15T12:04:08Z</time>
      </trkpt>
      <trkpt lat="49.08303" lon="2.10503">
        <ele>78</ele>
        <time>2017-10-15T12:04:15Z</time>
      </trkpt>
      <trkpt lat="49.08296" lon="2.10508">
        <ele>79.5</ele>
        <time>2017-10-15T12:04:22Z</time>
      </trkpt>
      <trkpt lat="49.08291" lon="2.10515">
        <ele>79.6</ele>
        <time>2017-10-15T12:04:27Z</time>
      </trkpt>
      <trkpt lat="49.08284" lon="2.10521">
        <ele>80.5</ele>
        <time>2017-10-15T12:04:32Z</time>
      </trkpt>
      <trkpt lat="49.08278" lon="2.10526">
        <ele>80.1</ele>
        <time>2017-10-15T12:04:38Z</time>
      </trkpt>
      <trkpt lat="49.08272" lon="2.10533">
        <ele>80.6</ele>
        <time>2017-10-15T12:04:44Z</time>
      </trkpt>
      <trkpt lat="49.08265" lon="2.10539">
        <ele>81</ele>
        <time>2017-10-15T12:04:51Z</time>
      </trkpt>
      <trkpt lat="49.08258" lon="2.10545">
        <ele>80.6</ele>
        <time>2017-10-15T12:04:57Z</time>
      </trkpt>
      <trkpt lat="49.08251" lon="2.10552">
        <ele>80.2</ele>
        <time>2017-10-15T12:05:04Z</time>
      </trkpt>
      <trkpt lat="49.08245" lon="2.10558">
        <ele>79.1</ele>
        <time>2017-10-15T12:05:10Z</time>
      </trkpt>
      <trkpt lat="49.08239" lon="2.10564">
        <ele>78.8</ele>
        <time>2017-10-15T12:05:16Z</time>
      </trkpt>
      <trkpt lat="49.08231" lon="2.1057">
        <ele>78.1</ele>
        <time>2017-10-15T12:05:22Z</time>
      </trkpt>
      <trkpt lat="49.08225" lon="2.10578">
        <ele>80.4</ele>
        <time>2017-10-15T12:05:29Z</time>
      </trkpt>
      <trkpt lat="49.08219" lon="2.10587">
        <ele>82</ele>
        <time>2017-10-15T12:05:35Z</time>
      </trkpt>
      <trkpt lat="49.08214" lon="2.10596">
        <ele>84.1</ele>
        <time>2017-10-15T12:05:40Z</time>
      </trkpt>
      <trkpt lat="49.08208" lon="2.10604">
        <ele>86.8</ele>
        <time>2017-10-15T12:05:46Z</time>
      </trkpt>
      <trkpt lat="49.08201" lon="2.10609">
        <ele>87.8</ele>
        <time>2017-10-15T12:05:52Z</time>
      </trkpt>
      <trkpt lat="49.08195" lon="2.10616">
        <ele>88.8</ele>
        <time>2017-10-15T12:05:58Z</time>
      </trkpt>
      <trkpt lat="49.08189" lon="2.10622">
        <ele>91.5</ele>
        <time>2017-10-15T12:06:05Z</time>
      </trkpt>
      <trkpt lat="49.08184" lon="2.10628">
        <ele>92</ele>
        <time>2017-10-15T12:06:12Z</time>
      </trkpt>
      <trkpt lat="49.08178" lon="2.10633">
        <ele>92</ele>
        <time>2017-10-15T12:06:19Z</time>
      </trkpt>
      <trkpt lat="49.0817" lon="2.10639">
        <ele>92.1</ele>
        <time>2017-10-15T12:06:26Z</time>
      </trkpt>
      <trkpt lat="49.08163" lon="2.10643">
        <ele>92.5</ele>
        <time>2017-10-15T12:06:32Z</time>
      </trkpt>
      <trkpt lat="49.08162" lon="2.10647">
        <ele>94.5</ele>
        <time>2017-10-15T12:06:39Z</time>
      </trkpt>
      <trkpt lat="49.08159" lon="2.10649">
        <ele>93</ele>
        <time>2017-10-15T12:06:46Z</time>
      </trkpt>
      <trkpt lat="49.08153" lon="2.10658">
        <ele>92</ele>
        <time>2017-10-15T12:06:53Z</time>
      </trkpt>
      <trkpt lat="49.08146" lon="2.10664">
        <ele>91.5</ele>
        <time>2017-10-15T12:06:58Z</time>
      </trkpt>
      <trkpt lat="49.0814" lon="2.10671">
        <ele>93.2</ele>
        <time>2017-10-15T12:07:05Z</time>
      </trkpt>
      <trkpt lat="49.08134" lon="2.10677">
        <ele>94.7</ele>
        <time>2017-10-15T12:07:12Z</time>
      </trkpt>
      <trkpt lat="49.08127" lon="2.10684">
        <ele>95</ele>
        <time>2017-10-15T12:07:19Z</time>
      </trkpt>
      <trkpt lat="49.0812" lon="2.10691">
        <ele>96.8</ele>
        <time>2017-10-15T12:07:25Z</time>
      </trkpt>
      <trkpt lat="49.08115" lon="2.10696">
        <ele>99.9</ele>
        <time>2017-10-15T12:07:32Z</time>
      </trkpt>
      <trkpt lat="49.08107" lon="2.107">
        <ele>99.3</ele>
        <time>2017-10-15T12:07:38Z</time>
      </trkpt>
      <trkpt lat="49.081" lon="2.10705">
        <ele>98.8</ele>
        <time>2017-10-15T12:07:45Z</time>
      </trkpt>
      <trkpt lat="49.08093" lon="2.1071">
        <ele>98.3</ele>
        <time>2017-10-15T12:07:52Z</time>
      </trkpt>
      <trkpt lat="49.08086" lon="2.10716">
        <ele>98.5</ele>
        <time>2017-10-15T12:07:59Z</time>
      </trkpt>
      <trkpt lat="49.08079" lon="2.10721">
        <ele>99.3</ele>
        <time>2017-10-15T12:08:06Z</time>
      </trkpt>
      <trkpt lat="49.08072" lon="2.10726">
        <ele>99.5</ele>
        <time>2017-10-15T12:08:13Z</time>
      </trkpt>
      <trkpt lat="49.08065" lon="2.10731">
        <ele>100.9</ele>
        <time>2017-10-15T12:08:20Z</time>
      </trkpt>
      <trkpt lat="49.08058" lon="2.10739">
        <ele>102</ele>
        <time>2017-10-15T12:08:27Z</time>
      </trkpt>
      <trkpt lat="49.08052" lon="2.10743">
        <ele>103.3</ele>
        <time>2017-10-15T12:08:34Z</time>
      </trkpt>
      <trkpt lat="49.08044" lon="2.10749">
        <ele>104.1</ele>
        <time>2017-10-15T12:08:41Z</time>
      </trkpt>
      <trkpt lat="49.08037" lon="2.10754">
        <ele>103.6</ele>
        <time>2017-10-15T12:08:46Z</time>
      </trkpt>
      <trkpt lat="49.0803" lon="2.10758">
        <ele>102.9</ele>
        <time>2017-10-15T12:08:51Z</time>
      </trkpt>
      <trkpt lat="49.08023" lon="2.10763">
        <ele>101.4</ele>
        <time>2017-10-15T12:08:56Z</time>
      </trkpt>
      <trkpt lat="49.08016" lon="2.10767">
        <ele>100</ele>
        <time>2017-10-15T12:09:01Z</time>
      </trkpt>
      <trkpt lat="49.08009" lon="2.10773">
        <ele>98.5</ele>
        <time>2017-10-15T12:09:06Z</time>
      </trkpt>
      <trkpt lat="49.08002" lon="2.10779">
        <ele>99</ele>
        <time>2017-10-15T12:09:11Z</time>
      </trkpt>
      <trkpt lat="49.07995" lon="2.10783">
        <ele>99.4</ele>
        <time>2017-10-15T12:09:17Z</time>
      </trkpt>
      <trkpt lat="49.07988" lon="2.10789">
        <ele>100.1</ele>
        <time>2017-10-15T12:09:23Z</time>
      </trkpt>
      <trkpt lat="49.07981" lon="2.10794">
        <ele>98.5</ele>
        <time>2017-10-15T12:09:30Z</time>
      </trkpt>
      <trkpt lat="49.07974" lon="2.108">
        <ele>96.7</ele>
        <time>2017-10-15T12:09:37Z</time>
      </trkpt>
      <trkpt lat="49.07966" lon="2.10805">
        <ele>96.5</ele>
        <time>2017-10-15T12:09:44Z</time>
      </trkpt>
      <trkpt lat="49.0796" lon="2.1081">
        <ele>96.7</ele>
        <time>2017-10-15T12:09:51Z</time>
      </trkpt>
      <trkpt lat="49.07954" lon="2.10818">
        <ele>97.1</ele>
        <time>2017-10-15T12:09:58Z</time>
      </trkpt>
      <trkpt lat="49.07951" lon="2.10829">
        <ele>97.9</ele>
        <time>2017-10-15T12:10:05Z</time>
      </trkpt>
      <trkpt lat="49.07945" lon="2.10838">
        <ele>99.8</ele>
        <time>2017-10-15T12:10:12Z</time>
      </trkpt>
      <trkpt lat="49.0794" lon="2.10847">
        <ele>97.8</ele>
        <time>2017-10-15T12:10:18Z</time>
      </trkpt>
      <trkpt lat="49.07935" lon="2.10856">
        <ele>97.8</ele>
        <time>2017-10-15T12:10:25Z</time>
      </trkpt>
      <trkpt lat="49.0793" lon="2.10865">
        <ele>97.6</ele>
        <time>2017-10-15T12:10:32Z</time>
      </trkpt>
      <trkpt lat="49.07923" lon="2.10873">
        <ele>98</ele>
        <time>2017-10-15T12:10:39Z</time>
      </trkpt>
      <trkpt lat="49.0792" lon="2.10883">
        <ele>97.8</ele>
        <time>2017-10-15T12:10:46Z</time>
      </trkpt>
      <trkpt lat="49.07916" lon="2.10894">
        <ele>99.4</ele>
        <time>2017-10-15T12:10:53Z</time>
      </trkpt>
      <trkpt lat="49.0791" lon="2.10904">
        <ele>97.8</ele>
        <time>2017-10-15T12:11:00Z</time>
      </trkpt>
      <trkpt lat="49.07905" lon="2.10912">
        <ele>96.6</ele>
        <time>2017-10-15T12:11:06Z</time>
      </trkpt>
      <trkpt lat="49.079" lon="2.10921">
        <ele>95.2</ele>
        <time>2017-10-15T12:11:13Z</time>
      </trkpt>
      <trkpt lat="49.07895" lon="2.10931">
        <ele>94.5</ele>
        <time>2017-10-15T12:11:20Z</time>
      </trkpt>
      <trkpt lat="49.07891" lon="2.1094">
        <ele>94.8</ele>
        <time>2017-10-15T12:11:27Z</time>
      </trkpt>
      <trkpt lat="49.07885" lon="2.1095">
        <ele>94.1</ele>
        <time>2017-10-15T12:11:34Z</time>
      </trkpt>
      <trkpt lat="49.0788" lon="2.1096">
        <ele>93.7</ele>
        <time>2017-10-15T12:11:40Z</time>
      </trkpt>
      <trkpt lat="49.07875" lon="2.10969">
        <ele>93.4</ele>
        <time>2017-10-15T12:11:46Z</time>
      </trkpt>
      <trkpt lat="49.0787" lon="2.10979">
        <ele>93.1</ele>
        <time>2017-10-15T12:11:52Z</time>
      </trkpt>
      <trkpt lat="49.07864" lon="2.10989">
        <ele>92.6</ele>
        <time>2017-10-15T12:11:58Z</time>
      </trkpt>
      <trkpt lat="49.0786" lon="2.10998">
        <ele>92.4</ele>
        <time>2017-10-15T12:12:04Z</time>
      </trkpt>
      <trkpt lat="49.07855" lon="2.11006">
        <ele>91.6</ele>
        <time>2017-10-15T12:12:10Z</time>
      </trkpt>
      <trkpt lat="49.0785" lon="2.11015">
        <ele>92.1</ele>
        <time>2017-10-15T12:12:17Z</time>
      </trkpt>
      <trkpt lat="49.07845" lon="2.11024">
        <ele>92.3</ele>
        <time>2017-10-15T12:12:24Z</time>
      </trkpt>
      <trkpt lat="49.0784" lon="2.11033">
        <ele>92.9</ele>
        <time>2017-10-15T12:12:30Z</time>
      </trkpt>
      <trkpt lat="49.07835" lon="2.11042">
        <ele>94.2</ele>
        <time>2017-10-15T12:12:36Z</time>
      </trkpt>
      <trkpt lat="49.07831" lon="2.11052">
        <ele>94.8</ele>
        <time>2017-10-15T12:12:42Z</time>
      </trkpt>
      <trkpt lat="49.07826" lon="2.11062">
        <ele>93.9</ele>
        <time>2017-10-15T12:12:48Z</time>
      </trkpt>
      <trkpt lat="49.07821" lon="2.11071">
        <ele>93</ele>
        <time>2017-10-15T12:12:53Z</time>
      </trkpt>
      <trkpt lat="49.07816" lon="2.11082">
        <ele>93.7</ele>
        <time>2017-10-15T12:13:00Z</time>
      </trkpt>
      <trkpt lat="49.07812" lon="2.11091">
        <ele>93.6</ele>
        <time>2017-10-15T12:13:06Z</time>
      </trkpt>
      <trkpt lat="49.07805" lon="2.11098">
        <ele>91.6</ele>
        <time>2017-10-15T12:13:13Z</time>
      </trkpt>
      <trkpt lat="49.07801" lon="2.11107">
        <ele>92</ele>
        <time>2017-10-15T12:13:19Z</time>
      </trkpt>
      <trkpt lat="49.07795" lon="2.11117">
        <ele>91</ele>
        <time>2017-10-15T12:13:26Z</time>
      </trkpt>
      <trkpt lat="49.07791" lon="2.11125">
        <ele>89.9</ele>
        <time>2017-10-15T12:13:32Z</time>
      </trkpt>
      <trkpt lat="49.07788" lon="2.11134">
        <ele>90.8</ele>
        <time>2017-10-15T12:13:39Z</time>
      </trkpt>
      <trkpt lat="49.07783" lon="2.11142">
        <ele>90.2</ele>
        <time>2017-10-15T12:13:45Z</time>
      </trkpt>
      <trkpt lat="49.07778" lon="2.11149">
        <ele>89.7</ele>
        <time>2017-10-15T12:13:51Z</time>
      </trkpt>
      <trkpt lat="49.07771" lon="2.11157">
        <ele>90.1</ele>
        <time>2017-10-15T12:13:58Z</time>
      </trkpt>
      <trkpt lat="49.07766" lon="2.11164">
        <ele>91.1</ele>
        <time>2017-10-15T12:14:04Z</time>
      </trkpt>
      <trkpt lat="49.0776" lon="2.11172">
        <ele>91.3</ele>
        <time>2017-10-15T12:14:10Z</time>
      </trkpt>
      <trkpt lat="49.07754" lon="2.11181">
        <ele>91.8</ele>
        <time>2017-10-15T12:14:16Z</time>
      </trkpt>
      <trkpt lat="49.07748" lon="2.11189">
        <ele>91.9</ele>
        <time>2017-10-15T12:14:23Z</time>
      </trkpt>
      <trkpt lat="49.07742" lon="2.11196">
        <ele>93.9</ele>
        <time>2017-10-15T12:14:30Z</time>
      </trkpt>
      <trkpt lat="49.07736" lon="2.11205">
        <ele>95</ele>
        <time>2017-10-15T12:14:37Z</time>
      </trkpt>
      <trkpt lat="49.07731" lon="2.11214">
        <ele>96.4</ele>
        <time>2017-10-15T12:14:44Z</time>
      </trkpt>
      <trkpt lat="49.07728" lon="2.11217">
        <ele>94.9</ele>
        <time>2017-10-15T12:14:51Z</time>
      </trkpt>
      <trkpt lat="49.07722" lon="2.11225">
        <ele>93.9</ele>
        <time>2017-10-15T12:14:56Z</time>
      </trkpt>
      <trkpt lat="49.07717" lon="2.11232">
        <ele>92.9</ele>
        <time>2017-10-15T12:15:02Z</time>
      </trkpt>
      <trkpt lat="49.0771" lon="2.1124">
        <ele>93.4</ele>
        <time>2017-10-15T12:15:09Z</time>
      </trkpt>
      <trkpt lat="49.07704" lon="2.11247">
        <ele>92.2</ele>
        <time>2017-10-15T12:15:15Z</time>
      </trkpt>
      <trkpt lat="49.07701" lon="2.1125">
        <ele>89.9</ele>
        <time>2017-10-15T12:15:22Z</time>
      </trkpt>
      <trkpt lat="49.07699" lon="2.1125">
        <ele>88.6</ele>
        <time>2017-10-15T12:15:29Z</time>
      </trkpt>
      <trkpt lat="49.07697" lon="2.11251">
        <ele>88</ele>
        <time>2017-10-15T12:15:43Z</time>
      </trkpt>
      <trkpt lat="49.07695" lon="2.1125">
        <ele>88.1</ele>
        <time>2017-10-15T12:16:05Z</time>
      </trkpt>
      <trkpt lat="49.07694" lon="2.11259">
        <ele>87.9</ele>
        <time>2017-10-15T12:15:57Z</time>
      </trkpt>
      <trkpt lat="49.07696" lon="2.11268">
        <ele>89.8</ele>
        <time>2017-10-15T12:18:36Z</time>
      </trkpt>
      <trkpt lat="49.07698" lon="2.11279">
        <ele>90.4</ele>
        <time>2017-10-15T12:18:43Z</time>
      </trkpt>
      <trkpt lat="49.077" lon="2.11291">
        <ele>92.1</ele>
        <time>2017-10-15T12:18:50Z</time>
      </trkpt>
      <trkpt lat="49.07699" lon="2.11301">
        <ele>91.8</ele>
        <time>2017-10-15T12:18:57Z</time>
      </trkpt>
      <trkpt lat="49.07696" lon="2.11313">
        <ele>90.3</ele>
        <time>2017-10-15T12:19:04Z</time>
      </trkpt>
      <trkpt lat="49.07693" lon="2.11322">
        <ele>89.2</ele>
        <time>2017-10-15T12:19:11Z</time>
      </trkpt>
      <trkpt lat="49.07691" lon="2.1133">
        <ele>90.6</ele>
        <time>2017-10-15T12:19:18Z</time>
      </trkpt>
      <trkpt lat="49.07686" lon="2.11338">
        <ele>91.5</ele>
        <time>2017-10-15T12:19:25Z</time>
      </trkpt>
      <trkpt lat="49.07681" lon="2.11347">
        <ele>90.5</ele>
        <time>2017-10-15T12:19:32Z</time>
      </trkpt>
      <trkpt lat="49.07676" lon="2.11353">
        <ele>91.7</ele>
        <time>2017-10-15T12:19:39Z</time>
      </trkpt>
      <trkpt lat="49.07671" lon="2.11364">
        <ele>92.5</ele>
        <time>2017-10-15T12:19:46Z</time>
      </trkpt>
      <trkpt lat="49.07667" lon="2.11374">
        <ele>94.6</ele>
        <time>2017-10-15T12:19:53Z</time>
      </trkpt>
      <trkpt lat="49.07661" lon="2.11382">
        <ele>94.6</ele>
        <time>2017-10-15T12:20:00Z</time>
      </trkpt>
      <trkpt lat="49.07657" lon="2.11391">
        <ele>95.4</ele>
        <time>2017-10-15T12:20:06Z</time>
      </trkpt>
      <trkpt lat="49.07652" lon="2.114">
        <ele>95.1</ele>
        <time>2017-10-15T12:20:12Z</time>
      </trkpt>
      <trkpt lat="49.07647" lon="2.11409">
        <ele>94</ele>
        <time>2017-10-15T12:20:19Z</time>
      </trkpt>
      <trkpt lat="49.07641" lon="2.11418">
        <ele>94</ele>
        <time>2017-10-15T12:20:26Z</time>
      </trkpt>
      <trkpt lat="49.07636" lon="2.11427">
        <ele>93</ele>
        <time>2017-10-15T12:20:33Z</time>
      </trkpt>
      <trkpt lat="49.07631" lon="2.11435">
        <ele>92.9</ele>
        <time>2017-10-15T12:20:39Z</time>
      </trkpt>
      <trkpt lat="49.07626" lon="2.11443">
        <ele>91</ele>
        <time>2017-10-15T12:20:46Z</time>
      </trkpt>
      <trkpt lat="49.0762" lon="2.11453">
        <ele>91.3</ele>
        <time>2017-10-15T12:20:52Z</time>
      </trkpt>
      <trkpt lat="49.07615" lon="2.11461">
        <ele>91.3</ele>
        <time>2017-10-15T12:20:58Z</time>
      </trkpt>
      <trkpt lat="49.0761" lon="2.11472">
        <ele>90.1</ele>
        <time>2017-10-15T12:21:04Z</time>
      </trkpt>
      <trkpt lat="49.07605" lon="2.11481">
        <ele>89.5</ele>
        <time>2017-10-15T12:21:09Z</time>
      </trkpt>
      <trkpt lat="49.07602" lon="2.1149">
        <ele>87</ele>
        <time>2017-10-15T12:21:14Z</time>
      </trkpt>
      <trkpt lat="49.07597" lon="2.11499">
        <ele>86.3</ele>
        <time>2017-10-15T12:21:20Z</time>
      </trkpt>
      <trkpt lat="49.07592" lon="2.11509">
        <ele>86.1</ele>
        <time>2017-10-15T12:21:26Z</time>
      </trkpt>
      <trkpt lat="49.07587" lon="2.11519">
        <ele>84.7</ele>
        <time>2017-10-15T12:21:32Z</time>
      </trkpt>
      <trkpt lat="49.07582" lon="2.11527">
        <ele>84.4</ele>
        <time>2017-10-15T12:21:37Z</time>
      </trkpt>
      <trkpt lat="49.07578" lon="2.11536">
        <ele>85.1</ele>
        <time>2017-10-15T12:21:43Z</time>
      </trkpt>
      <trkpt lat="49.07573" lon="2.11544">
        <ele>84.8</ele>
        <time>2017-10-15T12:21:49Z</time>
      </trkpt>
      <trkpt lat="49.07567" lon="2.11553">
        <ele>84.3</ele>
        <time>2017-10-15T12:21:55Z</time>
      </trkpt>
      <trkpt lat="49.07563" lon="2.11562">
        <ele>83.9</ele>
        <time>2017-10-15T12:22:00Z</time>
      </trkpt>
      <trkpt lat="49.07558" lon="2.1157">
        <ele>84.4</ele>
        <time>2017-10-15T12:22:06Z</time>
      </trkpt>
      <trkpt lat="49.07553" lon="2.11579">
        <ele>84.2</ele>
        <time>2017-10-15T12:22:12Z</time>
      </trkpt>
      <trkpt lat="49.07548" lon="2.11588">
        <ele>83.9</ele>
        <time>2017-10-15T12:22:18Z</time>
      </trkpt>
      <trkpt lat="49.07543" lon="2.11596">
        <ele>83.4</ele>
        <time>2017-10-15T12:22:23Z</time>
      </trkpt>
      <trkpt lat="49.07538" lon="2.11604">
        <ele>83.5</ele>
        <time>2017-10-15T12:22:29Z</time>
      </trkpt>
      <trkpt lat="49.07533" lon="2.11612">
        <ele>84.2</ele>
        <time>2017-10-15T12:22:35Z</time>
      </trkpt>
      <trkpt lat="49.07528" lon="2.11623">
        <ele>84.4</ele>
        <time>2017-10-15T12:22:41Z</time>
      </trkpt>
      <trkpt lat="49.07522" lon="2.11633">
        <ele>84.6</ele>
        <time>2017-10-15T12:22:48Z</time>
      </trkpt>
      <trkpt lat="49.07517" lon="2.11642">
        <ele>84.8</ele>
        <time>2017-10-15T12:22:54Z</time>
      </trkpt>
      <trkpt lat="49.07512" lon="2.11653">
        <ele>84.7</ele>
        <time>2017-10-15T12:23:01Z</time>
      </trkpt>
      <trkpt lat="49.07508" lon="2.11662">
        <ele>85.2</ele>
        <time>2017-10-15T12:23:07Z</time>
      </trkpt>
      <trkpt lat="49.07503" lon="2.1167">
        <ele>85.6</ele>
        <time>2017-10-15T12:23:13Z</time>
      </trkpt>
      <trkpt lat="49.07496" lon="2.11678">
        <ele>85.5</ele>
        <time>2017-10-15T12:23:20Z</time>
      </trkpt>
      <trkpt lat="49.07491" lon="2.11687">
        <ele>85.2</ele>
        <time>2017-10-15T12:23:27Z</time>
      </trkpt>
      <trkpt lat="49.07486" lon="2.11696">
        <ele>85.4</ele>
        <time>2017-10-15T12:23:33Z</time>
      </trkpt>
      <trkpt lat="49.07481" lon="2.11705">
        <ele>83.7</ele>
        <time>2017-10-15T12:23:39Z</time>
      </trkpt>
      <trkpt lat="49.07476" lon="2.11714">
        <ele>83.3</ele>
        <time>2017-10-15T12:23:45Z</time>
      </trkpt>
      <trkpt lat="49.07471" lon="2.11723">
        <ele>83.1</ele>
        <time>2017-10-15T12:23:51Z</time>
      </trkpt>
      <trkpt lat="49.07468" lon="2.11735">
        <ele>81.2</ele>
        <time>2017-10-15T12:23:57Z</time>
      </trkpt>
      <trkpt lat="49.07463" lon="2.11743">
        <ele>81.2</ele>
        <time>2017-10-15T12:24:04Z</time>
      </trkpt>
      <trkpt lat="49.07458" lon="2.11753">
        <ele>81.5</ele>
        <time>2017-10-15T12:24:11Z</time>
      </trkpt>
      <trkpt lat="49.07452" lon="2.11762">
        <ele>81.1</ele>
        <time>2017-10-15T12:24:18Z</time>
      </trkpt>
      <trkpt lat="49.07448" lon="2.11773">
        <ele>80.2</ele>
        <time>2017-10-15T12:24:25Z</time>
      </trkpt>
      <trkpt lat="49.07446" lon="2.11777">
        <ele>79.9</ele>
        <time>2017-10-15T12:24:32Z</time>
      </trkpt>
      <trkpt lat="49.0744" lon="2.11782">
        <ele>78.6</ele>
        <time>2017-10-15T12:24:44Z</time>
      </trkpt>
      <trkpt lat="49.07435" lon="2.11789">
        <ele>78.2</ele>
        <time>2017-10-15T12:24:51Z</time>
      </trkpt>
      <trkpt lat="49.07432" lon="2.11795">
        <ele>77.2</ele>
        <time>2017-10-15T12:24:58Z</time>
      </trkpt>
      <trkpt lat="49.0743" lon="2.11803">
        <ele>76.8</ele>
        <time>2017-10-15T12:25:05Z</time>
      </trkpt>
      <trkpt lat="49.07427" lon="2.11811">
        <ele>76.9</ele>
        <time>2017-10-15T12:25:12Z</time>
      </trkpt>
      <trkpt lat="49.07423" lon="2.11821">
        <ele>76.3</ele>
        <time>2017-10-15T12:25:19Z</time>
      </trkpt>
      <trkpt lat="49.07421" lon="2.11832">
        <ele>75</ele>
        <time>2017-10-15T12:25:26Z</time>
      </trkpt>
      <trkpt lat="49.07419" lon="2.1184">
        <ele>74</ele>
        <time>2017-10-15T12:25:33Z</time>
      </trkpt>
      <trkpt lat="49.07415" lon="2.11851">
        <ele>74.8</ele>
        <time>2017-10-15T12:25:40Z</time>
      </trkpt>
      <trkpt lat="49.07412" lon="2.11862">
        <ele>73.9</ele>
        <time>2017-10-15T12:25:47Z</time>
      </trkpt>
      <trkpt lat="49.0741" lon="2.11874">
        <ele>72.2</ele>
        <time>2017-10-15T12:25:54Z</time>
      </trkpt>
      <trkpt lat="49.07407" lon="2.11885">
        <ele>71.3</ele>
        <time>2017-10-15T12:26:01Z</time>
      </trkpt>
      <trkpt lat="49.07405" lon="2.11897">
        <ele>70.3</ele>
        <time>2017-10-15T12:26:07Z</time>
      </trkpt>
      <trkpt lat="49.07403" lon="2.11909">
        <ele>69.5</ele>
        <time>2017-10-15T12:26:13Z</time>
      </trkpt>
      <trkpt lat="49.07403" lon="2.11916">
        <ele>68.4</ele>
        <time>2017-10-15T12:26:20Z</time>
      </trkpt>
      <trkpt lat="49.07406" lon="2.11923">
        <ele>68.5</ele>
        <time>2017-10-15T12:26:34Z</time>
      </trkpt>
      <trkpt lat="49.07405" lon="2.1192">
        <ele>69.7</ele>
        <time>2017-10-15T12:27:44Z</time>
      </trkpt>
      <trkpt lat="49.07406" lon="2.11917">
        <ele>69.9</ele>
        <time>2017-10-15T12:27:51Z</time>
      </trkpt>
      <trkpt lat="49.07404" lon="2.11925">
        <ele>70.3</ele>
        <time>2017-10-15T12:28:06Z</time>
      </trkpt>
      <trkpt lat="49.07401" lon="2.11927">
        <ele>70.7</ele>
        <time>2017-10-15T12:28:13Z</time>
      </trkpt>
      <trkpt lat="49.07403" lon="2.11935">
        <ele>71.5</ele>
        <time>2017-10-15T12:28:55Z</time>
      </trkpt>
      <trkpt lat="49.07401" lon="2.11946">
        <ele>71.2</ele>
        <time>2017-10-15T12:29:02Z</time>
      </trkpt>
      <trkpt lat="49.07401" lon="2.11958">
        <ele>70.1</ele>
        <time>2017-10-15T12:29:09Z</time>
      </trkpt>
      <trkpt lat="49.07399" lon="2.1197">
        <ele>69.9</ele>
        <time>2017-10-15T12:29:15Z</time>
      </trkpt>
      <trkpt lat="49.07398" lon="2.11981">
        <ele>68.7</ele>
        <time>2017-10-15T12:29:21Z</time>
      </trkpt>
      <trkpt lat="49.07396" lon="2.11993">
        <ele>67.4</ele>
        <time>2017-10-15T12:29:28Z</time>
      </trkpt>
      <trkpt lat="49.07396" lon="2.12005">
        <ele>67.1</ele>
        <time>2017-10-15T12:29:35Z</time>
      </trkpt>
      <trkpt lat="49.07394" lon="2.12017">
        <ele>66.5</ele>
        <time>2017-10-15T12:29:42Z</time>
      </trkpt>
      <trkpt lat="49.07392" lon="2.12028">
        <ele>65</ele>
        <time>2017-10-15T12:29:49Z</time>
      </trkpt>
      <trkpt lat="49.07389" lon="2.12038">
        <ele>65.2</ele>
        <time>2017-10-15T12:29:56Z</time>
      </trkpt>
      <trkpt lat="49.07385" lon="2.12048">
        <ele>64.8</ele>
        <time>2017-10-15T12:30:02Z</time>
      </trkpt>
      <trkpt lat="49.07381" lon="2.12058">
        <ele>65.3</ele>
        <time>2017-10-15T12:30:08Z</time>
      </trkpt>
      <trkpt lat="49.07376" lon="2.12067">
        <ele>64.4</ele>
        <time>2017-10-15T12:30:14Z</time>
      </trkpt>
      <trkpt lat="49.07371" lon="2.12076">
        <ele>64.2</ele>
        <time>2017-10-15T12:30:20Z</time>
      </trkpt>
      <trkpt lat="49.07366" lon="2.12085">
        <ele>63.5</ele>
        <time>2017-10-15T12:30:27Z</time>
      </trkpt>
      <trkpt lat="49.07361" lon="2.12095">
        <ele>62.9</ele>
        <time>2017-10-15T12:30:33Z</time>
      </trkpt>
      <trkpt lat="49.07356" lon="2.12103">
        <ele>62.1</ele>
        <time>2017-10-15T12:30:39Z</time>
      </trkpt>
      <trkpt lat="49.0735" lon="2.12111">
        <ele>60.6</ele>
        <time>2017-10-15T12:30:45Z</time>
      </trkpt>
      <trkpt lat="49.07344" lon="2.1212">
        <ele>59.1</ele>
        <time>2017-10-15T12:30:52Z</time>
      </trkpt>
      <trkpt lat="49.07343" lon="2.12121">
        <ele>58.7</ele>
        <time>2017-10-15T12:30:59Z</time>
      </trkpt>
      <trkpt lat="49.0734" lon="2.12132">
        <ele>57.9</ele>
        <time>2017-10-15T12:31:09Z</time>
      </trkpt>
      <trkpt lat="49.07338" lon="2.12136">
        <ele>58.6</ele>
        <time>2017-10-15T12:31:16Z</time>
      </trkpt>
      <trkpt lat="49.07337" lon="2.12141">
        <ele>58.1</ele>
        <time>2017-10-15T12:31:23Z</time>
      </trkpt>
      <trkpt lat="49.07337" lon="2.12144">
        <ele>57.6</ele>
        <time>2017-10-15T12:31:30Z</time>
      </trkpt>
      <trkpt lat="49.07341" lon="2.12154">
        <ele>55.4</ele>
        <time>2017-10-15T12:31:45Z</time>
      </trkpt>
      <trkpt lat="49.07342" lon="2.1216">
        <ele>55.3</ele>
        <time>2017-10-15T12:31:52Z</time>
      </trkpt>
      <trkpt lat="49.07341" lon="2.12164">
        <ele>54.8</ele>
        <time>2017-10-15T12:31:59Z</time>
      </trkpt>
      <trkpt lat="49.07341" lon="2.12168">
        <ele>54.3</ele>
        <time>2017-10-15T12:32:06Z</time>
      </trkpt>
      <trkpt lat="49.07342" lon="2.12178">
        <ele>52.6</ele>
        <time>2017-10-15T12:32:16Z</time>
      </trkpt>
      <trkpt lat="49.07343" lon="2.12183">
        <ele>51</ele>
        <time>2017-10-15T12:32:23Z</time>
      </trkpt>
      <trkpt lat="49.07344" lon="2.12189">
        <ele>50.2</ele>
        <time>2017-10-15T12:32:30Z</time>
      </trkpt>
      <trkpt lat="49.07342" lon="2.12198">
        <ele>48.7</ele>
        <time>2017-10-15T12:32:37Z</time>
      </trkpt>
      <trkpt lat="49.07342" lon="2.12208">
        <ele>47.6</ele>
        <time>2017-10-15T12:32:44Z</time>
      </trkpt>
      <trkpt lat="49.07343" lon="2.12219">
        <ele>46.7</ele>
        <time>2017-10-15T12:32:51Z</time>
      </trkpt>
      <trkpt lat="49.07344" lon="2.12228">
        <ele>46.2</ele>
        <time>2017-10-15T12:32:58Z</time>
      </trkpt>
      <trkpt lat="49.07345" lon="2.12238">
        <ele>46</ele>
        <time>2017-10-15T12:33:05Z</time>
      </trkpt>
      <trkpt lat="49.07344" lon="2.12249">
        <ele>46.4</ele>
        <time>2017-10-15T12:33:12Z</time>
      </trkpt>
      <trkpt lat="49.07345" lon="2.1226">
        <ele>46.1</ele>
        <time>2017-10-15T12:33:19Z</time>
      </trkpt>
      <trkpt lat="49.07345" lon="2.12268">
        <ele>45</ele>
        <time>2017-10-15T12:33:26Z</time>
      </trkpt>
      <trkpt lat="49.07344" lon="2.12276">
        <ele>45.4</ele>
        <time>2017-10-15T12:33:33Z</time>
      </trkpt>
      <trkpt lat="49.07341" lon="2.12285">
        <ele>45.9</ele>
        <time>2017-10-15T12:33:40Z</time>
      </trkpt>
      <trkpt lat="49.07339" lon="2.12294">
        <ele>46.6</ele>
        <time>2017-10-15T12:33:47Z</time>
      </trkpt>
      <trkpt lat="49.07337" lon="2.12303">
        <ele>46.3</ele>
        <time>2017-10-15T12:33:54Z</time>
      </trkpt>
      <trkpt lat="49.07336" lon="2.12314">
        <ele>46.1</ele>
        <time>2017-10-15T12:34:01Z</time>
      </trkpt>
      <trkpt lat="49.07336" lon="2.12325">
        <ele>45</ele>
        <time>2017-10-15T12:34:08Z</time>
      </trkpt>
      <trkpt lat="49.07334" lon="2.12333">
        <ele>46.1</ele>
        <time>2017-10-15T12:34:15Z</time>
      </trkpt>
      <trkpt lat="49.07331" lon="2.12344">
        <ele>46.1</ele>
        <time>2017-10-15T12:34:22Z</time>
      </trkpt>
      <trkpt lat="49.07331" lon="2.12353">
        <ele>46</ele>
        <time>2017-10-15T12:34:29Z</time>
      </trkpt>
      <trkpt lat="49.07329" lon="2.12361">
        <ele>46.8</ele>
        <time>2017-10-15T12:34:36Z</time>
      </trkpt>
      <trkpt lat="49.07327" lon="2.12366">
        <ele>48.6</ele>
        <time>2017-10-15T12:34:43Z</time>
      </trkpt>
      <trkpt lat="49.07326" lon="2.12373">
        <ele>49.4</ele>
        <time>2017-10-15T12:34:50Z</time>
      </trkpt>
      <trkpt lat="49.07326" lon="2.12381">
        <ele>50.3</ele>
        <time>2017-10-15T12:34:57Z</time>
      </trkpt>
      <trkpt lat="49.07325" lon="2.12386">
        <ele>51</ele>
        <time>2017-10-15T12:35:04Z</time>
      </trkpt>
      <trkpt lat="49.07324" lon="2.12391">
        <ele>51.7</ele>
        <time>2017-10-15T12:35:11Z</time>
      </trkpt>
      <trkpt lat="49.07325" lon="2.124">
        <ele>51</ele>
        <time>2017-10-15T12:35:18Z</time>
      </trkpt>
      <trkpt lat="49.07325" lon="2.1241">
        <ele>52.7</ele>
        <time>2017-10-15T12:35:25Z</time>
      </trkpt>
      <trkpt lat="49.07322" lon="2.12421">
        <ele>50.8</ele>
        <time>2017-10-15T12:35:32Z</time>
      </trkpt>
      <trkpt lat="49.07321" lon="2.12426">
        <ele>51.7</ele>
        <time>2017-10-15T12:35:39Z</time>
      </trkpt>
      <trkpt lat="49.07319" lon="2.12433">
        <ele>53.2</ele>
        <time>2017-10-15T12:35:46Z</time>
      </trkpt>
      <trkpt lat="49.0732" lon="2.12441">
        <ele>54.4</ele>
        <time>2017-10-15T12:35:53Z</time>
      </trkpt>
      <trkpt lat="49.0732" lon="2.12449">
        <ele>54.9</ele>
        <time>2017-10-15T12:36:00Z</time>
      </trkpt>
      <trkpt lat="49.07318" lon="2.1246">
        <ele>53.1</ele>
        <time>2017-10-15T12:36:07Z</time>
      </trkpt>
      <trkpt lat="49.07318" lon="2.12471">
        <ele>52.4</ele>
        <time>2017-10-15T12:36:14Z</time>
      </trkpt>
      <trkpt lat="49.07319" lon="2.12478">
        <ele>52.1</ele>
        <time>2017-10-15T12:36:21Z</time>
      </trkpt>
      <trkpt lat="49.07318" lon="2.1248">
        <ele>51.3</ele>
        <time>2017-10-15T12:36:28Z</time>
      </trkpt>
      <trkpt lat="49.07317" lon="2.12492">
        <ele>50.1</ele>
        <time>2017-10-15T12:36:35Z</time>
      </trkpt>
      <trkpt lat="49.07318" lon="2.12502">
        <ele>48.7</ele>
        <time>2017-10-15T12:36:42Z</time>
      </trkpt>
      <trkpt lat="49.07318" lon="2.12507">
        <ele>48.1</ele>
        <time>2017-10-15T12:36:49Z</time>
      </trkpt>
      <trkpt lat="49.07316" lon="2.12516">
        <ele>50.7</ele>
        <time>2017-10-15T12:36:56Z</time>
      </trkpt>
      <trkpt lat="49.07313" lon="2.12524">
        <ele>53.2</ele>
        <time>2017-10-15T12:37:03Z</time>
      </trkpt>
      <trkpt lat="49.07312" lon="2.12529">
        <ele>54</ele>
        <time>2017-10-15T12:37:10Z</time>
      </trkpt>
      <trkpt lat="49.0731" lon="2.12538">
        <ele>55.4</ele>
        <time>2017-10-15T12:37:17Z</time>
      </trkpt>
      <trkpt lat="49.07309" lon="2.12547">
        <ele>56.9</ele>
        <time>2017-10-15T12:37:24Z</time>
      </trkpt>
      <trkpt lat="49.07309" lon="2.12553">
        <ele>59.2</ele>
        <time>2017-10-15T12:37:31Z</time>
      </trkpt>
      <trkpt lat="49.07305" lon="2.12557">
        <ele>56.9</ele>
        <time>2017-10-15T12:37:38Z</time>
      </trkpt>
      <trkpt lat="49.07301" lon="2.12568">
        <ele>54.6</ele>
        <time>2017-10-15T12:37:43Z</time>
      </trkpt>
      <trkpt lat="49.07298" lon="2.12573">
        <ele>51.1</ele>
        <time>2017-10-15T12:37:50Z</time>
      </trkpt>
      <trkpt lat="49.07294" lon="2.12575">
        <ele>48.8</ele>
        <time>2017-10-15T12:37:57Z</time>
      </trkpt>
      <trkpt lat="49.07292" lon="2.12576">
        <ele>47.8</ele>
        <time>2017-10-15T12:38:04Z</time>
      </trkpt>
      <trkpt lat="49.07287" lon="2.12583">
        <ele>47.8</ele>
        <time>2017-10-15T12:38:23Z</time>
      </trkpt>
      <trkpt lat="49.07282" lon="2.12586">
        <ele>46.7</ele>
        <time>2017-10-15T12:38:30Z</time>
      </trkpt>
      <trkpt lat="49.07277" lon="2.12589">
        <ele>47.4</ele>
        <time>2017-10-15T12:38:37Z</time>
      </trkpt>
      <trkpt lat="49.07271" lon="2.12597">
        <ele>47</ele>
        <time>2017-10-15T12:38:43Z</time>
      </trkpt>
      <trkpt lat="49.07264" lon="2.12604">
        <ele>46.1</ele>
        <time>2017-10-15T12:38:50Z</time>
      </trkpt>
      <trkpt lat="49.0726" lon="2.1261">
        <ele>43.6</ele>
        <time>2017-10-15T12:38:57Z</time>
      </trkpt>
      <trkpt lat="49.07254" lon="2.12618">
        <ele>40.8</ele>
        <time>2017-10-15T12:39:04Z</time>
      </trkpt>
      <trkpt lat="49.0725" lon="2.12626">
        <ele>37.7</ele>
        <time>2017-10-15T12:39:11Z</time>
      </trkpt>
      <trkpt lat="49.07245" lon="2.12634">
        <ele>36.3</ele>
        <time>2017-10-15T12:39:18Z</time>
      </trkpt>
      <trkpt lat="49.0724" lon="2.12642">
        <ele>32.6</ele>
        <time>2017-10-15T12:39:25Z</time>
      </trkpt>
      <trkpt lat="49.07235" lon="2.12649">
        <ele>30.8</ele>
        <time>2017-10-15T12:39:32Z</time>
      </trkpt>
      <trkpt lat="49.07229" lon="2.12651">
        <ele>31</ele>
        <time>2017-10-15T12:39:39Z</time>
      </trkpt>
      <trkpt lat="49.07223" lon="2.12654">
        <ele>30</ele>
        <time>2017-10-15T12:39:46Z</time>
      </trkpt>
      <trkpt lat="49.07217" lon="2.12658">
        <ele>30.9</ele>
        <time>2017-10-15T12:39:53Z</time>
      </trkpt>
      <trkpt lat="49.07211" lon="2.12662">
        <ele>30.3</ele>
        <time>2017-10-15T12:40:00Z</time>
      </trkpt>
      <trkpt lat="49.07208" lon="2.12667">
        <ele>29.9</ele>
        <time>2017-10-15T12:40:07Z</time>
      </trkpt>
      <trkpt lat="49.07204" lon="2.12674">
        <ele>28.9</ele>
        <time>2017-10-15T12:40:14Z</time>
      </trkpt>
      <trkpt lat="49.07201" lon="2.12677">
        <ele>29.4</ele>
        <time>2017-10-15T12:40:21Z</time>
      </trkpt>
      <trkpt lat="49.07196" lon="2.12686">
        <ele>28.7</ele>
        <time>2017-10-15T12:40:28Z</time>
      </trkpt>
      <trkpt lat="49.07189" lon="2.12694">
        <ele>28.1</ele>
        <time>2017-10-15T12:40:35Z</time>
      </trkpt>
      <trkpt lat="49.07184" lon="2.127">
        <ele>27.8</ele>
        <time>2017-10-15T12:40:42Z</time>
      </trkpt>
      <trkpt lat="49.07178" lon="2.12706">
        <ele>27.8</ele>
        <time>2017-10-15T12:40:49Z</time>
      </trkpt>
      <trkpt lat="49.0717" lon="2.12712">
        <ele>28.5</ele>
        <time>2017-10-15T12:40:56Z</time>
      </trkpt>
      <trkpt lat="49.07163" lon="2.12712">
        <ele>30.2</ele>
        <time>2017-10-15T12:41:03Z</time>
      </trkpt>
      <trkpt lat="49.07156" lon="2.12715">
        <ele>30.7</ele>
        <time>2017-10-15T12:41:09Z</time>
      </trkpt>
      <trkpt lat="49.07148" lon="2.12715">
        <ele>30.8</ele>
        <time>2017-10-15T12:41:15Z</time>
      </trkpt>
      <trkpt lat="49.0714" lon="2.12714">
        <ele>29.6</ele>
        <time>2017-10-15T12:41:22Z</time>
      </trkpt>
      <trkpt lat="49.07132" lon="2.12715">
        <ele>30.5</ele>
        <time>2017-10-15T12:41:27Z</time>
      </trkpt>
      <trkpt lat="49.07124" lon="2.12716">
        <ele>30.1</ele>
        <time>2017-10-15T12:41:33Z</time>
      </trkpt>
      <trkpt lat="49.07116" lon="2.12714">
        <ele>30.2</ele>
        <time>2017-10-15T12:41:40Z</time>
      </trkpt>
      <trkpt lat="49.07109" lon="2.12715">
        <ele>28.8</ele>
        <time>2017-10-15T12:41:46Z</time>
      </trkpt>
      <trkpt lat="49.07102" lon="2.12716">
        <ele>28.9</ele>
        <time>2017-10-15T12:41:53Z</time>
      </trkpt>
      <trkpt lat="49.07094" lon="2.12715">
        <ele>28.3</ele>
        <time>2017-10-15T12:42:00Z</time>
      </trkpt>
      <trkpt lat="49.07086" lon="2.12712">
        <ele>30.2</ele>
        <time>2017-10-15T12:42:07Z</time>
      </trkpt>
      <trkpt lat="49.07079" lon="2.12712">
        <ele>31.4</ele>
        <time>2017-10-15T12:42:14Z</time>
      </trkpt>
      <trkpt lat="49.07074" lon="2.12708">
        <ele>30.8</ele>
        <time>2017-10-15T12:42:21Z</time>
      </trkpt>
      <trkpt lat="49.07074" lon="2.12707">
        <ele>30.6</ele>
        <time>2017-10-15T12:42:28Z</time>
      </trkpt>
      <trkpt lat="49.07065" lon="2.12702">
        <ele>33.4</ele>
        <time>2017-10-15T12:42:47Z</time>
      </trkpt>
      <trkpt lat="49.07065" lon="2.12701">
        <ele>32.5</ele>
        <time>2017-10-15T12:42:54Z</time>
      </trkpt>
      <trkpt lat="49.07054" lon="2.12698">
        <ele>24.6</ele>
        <time>2017-10-15T12:45:17Z</time>
      </trkpt>
      <trkpt lat="49.07051" lon="2.127">
        <ele>24</ele>
        <time>2017-10-15T12:45:24Z</time>
      </trkpt>
      <trkpt lat="49.07048" lon="2.127">
        <ele>21.2</ele>
        <time>2017-10-15T12:46:12Z</time>
      </trkpt>
      <trkpt lat="49.07046" lon="2.12701">
        <ele>19.6</ele>
        <time>2017-10-15T12:45:44Z</time>
      </trkpt>
      <trkpt lat="49.07042" lon="2.12694">
        <ele>26.4</ele>
        <time>2017-10-15T12:45:32Z</time>
      </trkpt>
      <trkpt lat="49.07039" lon="2.12694">
        <ele>34</ele>
        <time>2017-10-15T12:48:51Z</time>
      </trkpt>
      <trkpt lat="49.07039" lon="2.12697">
        <ele>34.3</ele>
        <time>2017-10-15T12:48:58Z</time>
      </trkpt>
      <trkpt lat="49.07023" lon="2.12688">
        <ele>33.9</ele>
        <time>2017-10-15T12:50:16Z</time>
      </trkpt>
      <trkpt lat="49.07019" lon="2.12683">
        <ele>36</ele>
        <time>2017-10-15T12:50:23Z</time>
      </trkpt>
      <trkpt lat="49.07013" lon="2.12681">
        <ele>34.5</ele>
        <time>2017-10-15T12:50:30Z</time>
      </trkpt>
      <trkpt lat="49.07006" lon="2.12677">
        <ele>31.5</ele>
        <time>2017-10-15T12:50:36Z</time>
      </trkpt>
      <trkpt lat="49.06997" lon="2.12676">
        <ele>26.8</ele>
        <time>2017-10-15T12:50:43Z</time>
      </trkpt>
      <trkpt lat="49.0699" lon="2.12676">
        <ele>24.7</ele>
        <time>2017-10-15T12:50:49Z</time>
      </trkpt>
      <trkpt lat="49.06983" lon="2.12676">
        <ele>23.5</ele>
        <time>2017-10-15T12:50:56Z</time>
      </trkpt>
      <trkpt lat="49.06976" lon="2.12675">
        <ele>21.1</ele>
        <time>2017-10-15T12:51:03Z</time>
      </trkpt>
      <trkpt lat="49.06971" lon="2.12674">
        <ele>21.3</ele>
        <time>2017-10-15T12:51:10Z</time>
      </trkpt>
      <trkpt lat="49.06963" lon="2.12674">
        <ele>24.6</ele>
        <time>2017-10-15T12:51:29Z</time>
      </trkpt>
      <trkpt lat="49.06956" lon="2.12675">
        <ele>23.5</ele>
        <time>2017-10-15T12:51:36Z</time>
      </trkpt>
      <trkpt lat="49.06948" lon="2.12675">
        <ele>21.8</ele>
        <time>2017-10-15T12:51:42Z</time>
      </trkpt>
      <trkpt lat="49.06941" lon="2.12674">
        <ele>23.3</ele>
        <time>2017-10-15T12:51:49Z</time>
      </trkpt>
      <trkpt lat="49.06935" lon="2.12674">
        <ele>25.4</ele>
        <time>2017-10-15T12:51:56Z</time>
      </trkpt>
      <trkpt lat="49.06927" lon="2.12672">
        <ele>28.8</ele>
        <time>2017-10-15T12:52:03Z</time>
      </trkpt>
      <trkpt lat="49.06924" lon="2.12672">
        <ele>29.7</ele>
        <time>2017-10-15T12:52:10Z</time>
      </trkpt>
      <trkpt lat="49.06924" lon="2.12671">
        <ele>30.7</ele>
        <time>2017-10-15T12:52:17Z</time>
      </trkpt>
      <trkpt lat="49.06916" lon="2.12673">
        <ele>26.1</ele>
        <time>2017-10-15T12:53:01Z</time>
      </trkpt>
      <trkpt lat="49.06909" lon="2.12671">
        <ele>29.3</ele>
        <time>2017-10-15T12:53:07Z</time>
      </trkpt>
      <trkpt lat="49.069" lon="2.12675">
        <ele>27</ele>
        <time>2017-10-15T12:53:14Z</time>
      </trkpt>
      <trkpt lat="49.06894" lon="2.1268">
        <ele>26.7</ele>
        <time>2017-10-15T12:53:21Z</time>
      </trkpt>
      <trkpt lat="49.06892" lon="2.12682">
        <ele>28.7</ele>
        <time>2017-10-15T12:53:28Z</time>
      </trkpt>
      <trkpt lat="49.06888" lon="2.12693">
        <ele>28.7</ele>
        <time>2017-10-15T12:53:52Z</time>
      </trkpt>
      <trkpt lat="49.06885" lon="2.127">
        <ele>28</ele>
        <time>2017-10-15T12:53:59Z</time>
      </trkpt>
      <trkpt lat="49.06884" lon="2.12702">
        <ele>27.6</ele>
        <time>2017-10-15T12:54:06Z</time>
      </trkpt>
      <trkpt lat="49.06878" lon="2.12707">
        <ele>28.7</ele>
        <time>2017-10-15T12:54:16Z</time>
      </trkpt>
      <trkpt lat="49.06877" lon="2.12709">
        <ele>26.7</ele>
        <time>2017-10-15T12:54:23Z</time>
      </trkpt>
      <trkpt lat="49.06874" lon="2.1272">
        <ele>25.2</ele>
        <time>2017-10-15T12:54:47Z</time>
      </trkpt>
      <trkpt lat="49.0687" lon="2.12727">
        <ele>27.4</ele>
        <time>2017-10-15T12:55:03Z</time>
      </trkpt>
      <trkpt lat="49.0687" lon="2.12735">
        <ele>28.4</ele>
        <time>2017-10-15T12:55:10Z</time>
      </trkpt>
      <trkpt lat="49.0687" lon="2.12743">
        <ele>28.9</ele>
        <time>2017-10-15T12:55:17Z</time>
      </trkpt>
      <trkpt lat="49.06869" lon="2.12749">
        <ele>31.2</ele>
        <time>2017-10-15T12:55:24Z</time>
      </trkpt>
      <trkpt lat="49.06867" lon="2.12756">
        <ele>33.3</ele>
        <time>2017-10-15T12:55:31Z</time>
      </trkpt>
      <trkpt lat="49.06869" lon="2.12761">
        <ele>35.8</ele>
        <time>2017-10-15T12:55:38Z</time>
      </trkpt>
      <trkpt lat="49.06873" lon="2.12758">
        <ele>37.8</ele>
        <time>2017-10-15T12:55:45Z</time>
      </trkpt>
      <trkpt lat="49.06877" lon="2.12757">
        <ele>42.4</ele>
        <time>2017-10-15T12:56:02Z</time>
      </trkpt>
      <trkpt lat="49.06879" lon="2.12761">
        <ele>42.9</ele>
        <time>2017-10-15T12:56:09Z</time>
      </trkpt>
      <trkpt lat="49.06881" lon="2.12766">
        <ele>46</ele>
        <time>2017-10-15T12:56:16Z</time>
      </trkpt>
      <trkpt lat="49.06883" lon="2.1277">
        <ele>48.6</ele>
        <time>2017-10-15T12:56:23Z</time>
      </trkpt>
      <trkpt lat="49.06886" lon="2.12776">
        <ele>51.7</ele>
        <time>2017-10-15T12:56:30Z</time>
      </trkpt>
      <trkpt lat="49.06889" lon="2.12783">
        <ele>55.3</ele>
        <time>2017-10-15T12:56:37Z</time>
      </trkpt>
      <trkpt lat="49.06893" lon="2.12793">
        <ele>58.2</ele>
        <time>2017-10-15T12:56:44Z</time>
      </trkpt>
      <trkpt lat="49.06896" lon="2.12802">
        <ele>59.2</ele>
        <time>2017-10-15T12:56:51Z</time>
      </trkpt>
      <trkpt lat="49.06899" lon="2.1281">
        <ele>61.2</ele>
        <time>2017-10-15T12:56:58Z</time>
      </trkpt>
      <trkpt lat="49.06902" lon="2.1282">
        <ele>60.3</ele>
        <time>2017-10-15T12:57:04Z</time>
      </trkpt>
      <trkpt lat="49.06906" lon="2.12831">
        <ele>60.8</ele>
        <time>2017-10-15T12:57:11Z</time>
      </trkpt>
      <trkpt lat="49.06909" lon="2.12839">
        <ele>62.8</ele>
        <time>2017-10-15T12:57:18Z</time>
      </trkpt>
      <trkpt lat="49.06911" lon="2.12852">
        <ele>63</ele>
        <time>2017-10-15T12:57:25Z</time>
      </trkpt>
      <trkpt lat="49.06912" lon="2.12862">
        <ele>64.4</ele>
        <time>2017-10-15T12:57:32Z</time>
      </trkpt>
      <trkpt lat="49.06914" lon="2.12874">
        <ele>65.3</ele>
        <time>2017-10-15T12:57:39Z</time>
      </trkpt>
      <trkpt lat="49.06916" lon="2.12885">
        <ele>65.1</ele>
        <time>2017-10-15T12:57:45Z</time>
      </trkpt>
      <trkpt lat="49.0692" lon="2.12896">
        <ele>64.5</ele>
        <time>2017-10-15T12:57:52Z</time>
      </trkpt>
      <trkpt lat="49.06924" lon="2.12907">
        <ele>65.2</ele>
        <time>2017-10-15T12:57:58Z</time>
      </trkpt>
      <trkpt lat="49.06928" lon="2.12917">
        <ele>65.8</ele>
        <time>2017-10-15T12:58:04Z</time>
      </trkpt>
      <trkpt lat="49.06933" lon="2.12927">
        <ele>64.6</ele>
        <time>2017-10-15T12:58:11Z</time>
      </trkpt>
      <trkpt lat="49.06937" lon="2.12937">
        <ele>63.2</ele>
        <time>2017-10-15T12:58:18Z</time>
      </trkpt>
      <trkpt lat="49.06942" lon="2.12947">
        <ele>61.5</ele>
        <time>2017-10-15T12:58:24Z</time>
      </trkpt>
      <trkpt lat="49.06945" lon="2.12955">
        <ele>61</ele>
        <time>2017-10-15T12:58:31Z</time>
      </trkpt>
      <trkpt lat="49.0695" lon="2.12963">
        <ele>60.8</ele>
        <time>2017-10-15T12:58:38Z</time>
      </trkpt>
      <trkpt lat="49.06953" lon="2.12967">
        <ele>61.1</ele>
        <time>2017-10-15T12:58:45Z</time>
      </trkpt>
      <trkpt lat="49.0695" lon="2.12969">
        <ele>60.8</ele>
        <time>2017-10-15T12:59:10Z</time>
      </trkpt>
      <trkpt lat="49.06956" lon="2.12977">
        <ele>61.5</ele>
        <time>2017-10-15T12:59:46Z</time>
      </trkpt>
      <trkpt lat="49.06961" lon="2.12983">
        <ele>65.9</ele>
        <time>2017-10-15T12:59:53Z</time>
      </trkpt>
      <trkpt lat="49.06967" lon="2.12989">
        <ele>69.1</ele>
        <time>2017-10-15T13:00:00Z</time>
      </trkpt>
      <trkpt lat="49.06971" lon="2.12994">
        <ele>72.4</ele>
        <time>2017-10-15T13:00:07Z</time>
      </trkpt>
      <trkpt lat="49.06975" lon="2.13001">
        <ele>74.1</ele>
        <time>2017-10-15T13:00:14Z</time>
      </trkpt>
      <trkpt lat="49.06976" lon="2.13009">
        <ele>77</ele>
        <time>2017-10-15T13:00:21Z</time>
      </trkpt>
      <trkpt lat="49.06979" lon="2.13019">
        <ele>79.3</ele>
        <time>2017-10-15T13:00:28Z</time>
      </trkpt>
      <trkpt lat="49.06982" lon="2.13027">
        <ele>80.5</ele>
        <time>2017-10-15T13:00:35Z</time>
      </trkpt>
      <trkpt lat="49.06984" lon="2.13036">
        <ele>82.3</ele>
        <time>2017-10-15T13:00:42Z</time>
      </trkpt>
      <trkpt lat="49.06988" lon="2.13048">
        <ele>81.7</ele>
        <time>2017-10-15T13:00:48Z</time>
      </trkpt>
      <trkpt lat="49.06993" lon="2.13061">
        <ele>80.3</ele>
        <time>2017-10-15T13:00:54Z</time>
      </trkpt>
      <trkpt lat="49.06997" lon="2.13071">
        <ele>75.1</ele>
        <time>2017-10-15T13:00:58Z</time>
      </trkpt>
      <trkpt lat="49.07" lon="2.13083">
        <ele>75.8</ele>
        <time>2017-10-15T13:01:04Z</time>
      </trkpt>
      <trkpt lat="49.07004" lon="2.13093">
        <ele>75.5</ele>
        <time>2017-10-15T13:01:10Z</time>
      </trkpt>
      <trkpt lat="49.07007" lon="2.13104">
        <ele>75.4</ele>
        <time>2017-10-15T13:01:17Z</time>
      </trkpt>
      <trkpt lat="49.07011" lon="2.13114">
        <ele>74.2</ele>
        <time>2017-10-15T13:01:23Z</time>
      </trkpt>
      <trkpt lat="49.07014" lon="2.13125">
        <ele>75</ele>
        <time>2017-10-15T13:01:29Z</time>
      </trkpt>
      <trkpt lat="49.07017" lon="2.13137">
        <ele>76.1</ele>
        <time>2017-10-15T13:01:36Z</time>
      </trkpt>
      <trkpt lat="49.0702" lon="2.13147">
        <ele>78.5</ele>
        <time>2017-10-15T13:01:43Z</time>
      </trkpt>
      <trkpt lat="49.07024" lon="2.13158">
        <ele>79.8</ele>
        <time>2017-10-15T13:01:49Z</time>
      </trkpt>
      <trkpt lat="49.07027" lon="2.13169">
        <ele>80.6</ele>
        <time>2017-10-15T13:01:55Z</time>
      </trkpt>
      <trkpt lat="49.07031" lon="2.13179">
        <ele>79.9</ele>
        <time>2017-10-15T13:02:01Z</time>
      </trkpt>
      <trkpt lat="49.07035" lon="2.13189">
        <ele>78.1</ele>
        <time>2017-10-15T13:02:07Z</time>
      </trkpt>
      <trkpt lat="49.07038" lon="2.132">
        <ele>78.4</ele>
        <time>2017-10-15T13:02:13Z</time>
      </trkpt>
      <trkpt lat="49.07041" lon="2.13212">
        <ele>78.7</ele>
        <time>2017-10-15T13:02:19Z</time>
      </trkpt>
      <trkpt lat="49.07045" lon="2.13223">
        <ele>79.1</ele>
        <time>2017-10-15T13:02:25Z</time>
      </trkpt>
      <trkpt lat="49.07048" lon="2.13233">
        <ele>82</ele>
        <time>2017-10-15T13:02:32Z</time>
      </trkpt>
      <trkpt lat="49.07051" lon="2.13244">
        <ele>84.6</ele>
        <time>2017-10-15T13:02:39Z</time>
      </trkpt>
      <trkpt lat="49.07053" lon="2.13256">
        <ele>85.4</ele>
        <time>2017-10-15T13:02:46Z</time>
      </trkpt>
      <trkpt lat="49.07056" lon="2.13268">
        <ele>82.1</ele>
        <time>2017-10-15T13:02:51Z</time>
      </trkpt>
      <trkpt lat="49.07059" lon="2.13279">
        <ele>78.3</ele>
        <time>2017-10-15T13:02:55Z</time>
      </trkpt>
      <trkpt lat="49.07062" lon="2.13291">
        <ele>73.4</ele>
        <time>2017-10-15T13:03:01Z</time>
      </trkpt>
      <trkpt lat="49.07063" lon="2.13302">
        <ele>73.4</ele>
        <time>2017-10-15T13:03:08Z</time>
      </trkpt>
      <trkpt lat="49.07065" lon="2.13315">
        <ele>72.5</ele>
        <time>2017-10-15T13:03:14Z</time>
      </trkpt>
      <trkpt lat="49.07066" lon="2.13326">
        <ele>71.1</ele>
        <time>2017-10-15T13:03:19Z</time>
      </trkpt>
      <trkpt lat="49.07067" lon="2.13339">
        <ele>72.2</ele>
        <time>2017-10-15T13:03:25Z</time>
      </trkpt>
      <trkpt lat="49.07069" lon="2.13343">
        <ele>71.6</ele>
        <time>2017-10-15T13:03:32Z</time>
      </trkpt>
      <trkpt lat="49.0707" lon="2.13347">
        <ele>69.4</ele>
        <time>2017-10-15T13:03:39Z</time>
      </trkpt>
      <trkpt lat="49.0707" lon="2.13358">
        <ele>68.2</ele>
        <time>2017-10-15T13:04:01Z</time>
      </trkpt>
      <trkpt lat="49.07073" lon="2.13368">
        <ele>68.9</ele>
        <time>2017-10-15T13:04:08Z</time>
      </trkpt>
      <trkpt lat="49.07076" lon="2.13379">
        <ele>71.8</ele>
        <time>2017-10-15T13:04:14Z</time>
      </trkpt>
      <trkpt lat="49.0708" lon="2.13388">
        <ele>75.7</ele>
        <time>2017-10-15T13:04:20Z</time>
      </trkpt>
      <trkpt lat="49.07083" lon="2.13399">
        <ele>76.7</ele>
        <time>2017-10-15T13:04:26Z</time>
      </trkpt>
      <trkpt lat="49.07088" lon="2.13409">
        <ele>74.7</ele>
        <time>2017-10-15T13:04:32Z</time>
      </trkpt>
      <trkpt lat="49.07091" lon="2.13421">
        <ele>74.3</ele>
        <time>2017-10-15T13:04:39Z</time>
      </trkpt>
      <trkpt lat="49.07095" lon="2.13432">
        <ele>72.9</ele>
        <time>2017-10-15T13:04:45Z</time>
      </trkpt>
      <trkpt lat="49.07097" lon="2.13444">
        <ele>73.5</ele>
        <time>2017-10-15T13:04:51Z</time>
      </trkpt>
      <trkpt lat="49.07102" lon="2.13455">
        <ele>73.7</ele>
        <time>2017-10-15T13:04:57Z</time>
      </trkpt>
      <trkpt lat="49.07104" lon="2.13466">
        <ele>72.5</ele>
        <time>2017-10-15T13:05:03Z</time>
      </trkpt>
      <trkpt lat="49.07107" lon="2.13477">
        <ele>71.5</ele>
        <time>2017-10-15T13:05:09Z</time>
      </trkpt>
      <trkpt lat="49.07112" lon="2.13487">
        <ele>71.6</ele>
        <time>2017-10-15T13:05:15Z</time>
      </trkpt>
      <trkpt lat="49.07118" lon="2.13495">
        <ele>71.8</ele>
        <time>2017-10-15T13:05:22Z</time>
      </trkpt>
      <trkpt lat="49.0712" lon="2.13504">
        <ele>69.9</ele>
        <time>2017-10-15T13:05:29Z</time>
      </trkpt>
      <trkpt lat="49.07123" lon="2.13515">
        <ele>69.6</ele>
        <time>2017-10-15T13:05:35Z</time>
      </trkpt>
      <trkpt lat="49.07128" lon="2.13526">
        <ele>70.8</ele>
        <time>2017-10-15T13:05:42Z</time>
      </trkpt>
      <trkpt lat="49.07132" lon="2.13534">
        <ele>69.2</ele>
        <time>2017-10-15T13:05:49Z</time>
      </trkpt>
      <trkpt lat="49.07137" lon="2.13545">
        <ele>68.8</ele>
        <time>2017-10-15T13:05:55Z</time>
      </trkpt>
      <trkpt lat="49.07142" lon="2.13555">
        <ele>70.1</ele>
        <time>2017-10-15T13:06:02Z</time>
      </trkpt>
      <trkpt lat="49.07146" lon="2.13564">
        <ele>70</ele>
        <time>2017-10-15T13:06:08Z</time>
      </trkpt>
      <trkpt lat="49.07151" lon="2.13573">
        <ele>72.1</ele>
        <time>2017-10-15T13:06:14Z</time>
      </trkpt>
      <trkpt lat="49.07155" lon="2.13582">
        <ele>72.4</ele>
        <time>2017-10-15T13:06:20Z</time>
      </trkpt>
      <trkpt lat="49.07157" lon="2.13592">
        <ele>73.8</ele>
        <time>2017-10-15T13:06:26Z</time>
      </trkpt>
      <trkpt lat="49.07159" lon="2.13603">
        <ele>74.1</ele>
        <time>2017-10-15T13:06:33Z</time>
      </trkpt>
      <trkpt lat="49.07162" lon="2.13614">
        <ele>73.9</ele>
        <time>2017-10-15T13:06:40Z</time>
      </trkpt>
      <trkpt lat="49.07166" lon="2.13625">
        <ele>74.9</ele>
        <time>2017-10-15T13:06:47Z</time>
      </trkpt>
      <trkpt lat="49.07168" lon="2.13636">
        <ele>75.4</ele>
        <time>2017-10-15T13:06:54Z</time>
      </trkpt>
      <trkpt lat="49.0717" lon="2.13647">
        <ele>74.1</ele>
        <time>2017-10-15T13:07:01Z</time>
      </trkpt>
      <trkpt lat="49.07172" lon="2.13658">
        <ele>73.5</ele>
        <time>2017-10-15T13:07:07Z</time>
      </trkpt>
      <trkpt lat="49.07173" lon="2.13671">
        <ele>72.8</ele>
        <time>2017-10-15T13:07:14Z</time>
      </trkpt>
      <trkpt lat="49.07175" lon="2.13681">
        <ele>72.6</ele>
        <time>2017-10-15T13:07:19Z</time>
      </trkpt>
      <trkpt lat="49.07176" lon="2.13693">
        <ele>72.1</ele>
        <time>2017-10-15T13:07:24Z</time>
      </trkpt>
      <trkpt lat="49.07177" lon="2.13705">
        <ele>71.8</ele>
        <time>2017-10-15T13:07:30Z</time>
      </trkpt>
      <trkpt lat="49.07177" lon="2.13717">
        <ele>69.9</ele>
        <time>2017-10-15T13:07:37Z</time>
      </trkpt>
      <trkpt lat="49.07176" lon="2.1373">
        <ele>70.6</ele>
        <time>2017-10-15T13:07:43Z</time>
      </trkpt>
      <trkpt lat="49.07175" lon="2.13742">
        <ele>70.7</ele>
        <time>2017-10-15T13:07:49Z</time>
      </trkpt>
      <trkpt lat="49.07173" lon="2.13753">
        <ele>70.7</ele>
        <time>2017-10-15T13:07:56Z</time>
      </trkpt>
      <trkpt lat="49.07171" lon="2.13764">
        <ele>69.9</ele>
        <time>2017-10-15T13:08:02Z</time>
      </trkpt>
      <trkpt lat="49.07168" lon="2.13774">
        <ele>71.2</ele>
        <time>2017-10-15T13:08:08Z</time>
      </trkpt>
      <trkpt lat="49.07166" lon="2.13786">
        <ele>72.5</ele>
        <time>2017-10-15T13:08:14Z</time>
      </trkpt>
      <trkpt lat="49.07165" lon="2.13798">
        <ele>73.8</ele>
        <time>2017-10-15T13:08:21Z</time>
      </trkpt>
      <trkpt lat="49.07164" lon="2.13809">
        <ele>73.6</ele>
        <time>2017-10-15T13:08:27Z</time>
      </trkpt>
      <trkpt lat="49.07163" lon="2.13821">
        <ele>72.6</ele>
        <time>2017-10-15T13:08:33Z</time>
      </trkpt>
      <trkpt lat="49.07161" lon="2.13832">
        <ele>71.8</ele>
        <time>2017-10-15T13:08:39Z</time>
      </trkpt>
      <trkpt lat="49.07161" lon="2.13844">
        <ele>70.6</ele>
        <time>2017-10-15T13:08:45Z</time>
      </trkpt>
      <trkpt lat="49.07161" lon="2.13855">
        <ele>71</ele>
        <time>2017-10-15T13:08:51Z</time>
      </trkpt>
      <trkpt lat="49.07161" lon="2.13867">
        <ele>69.6</ele>
        <time>2017-10-15T13:08:57Z</time>
      </trkpt>
      <trkpt lat="49.07161" lon="2.13879">
        <ele>67.8</ele>
        <time>2017-10-15T13:09:04Z</time>
      </trkpt>
      <trkpt lat="49.07161" lon="2.13891">
        <ele>66.6</ele>
        <time>2017-10-15T13:09:11Z</time>
      </trkpt>
      <trkpt lat="49.0716" lon="2.13903">
        <ele>65.6</ele>
        <time>2017-10-15T13:09:18Z</time>
      </trkpt>
      <trkpt lat="49.07161" lon="2.13914">
        <ele>63.6</ele>
        <time>2017-10-15T13:09:24Z</time>
      </trkpt>
      <trkpt lat="49.07162" lon="2.13927">
        <ele>62.9</ele>
        <time>2017-10-15T13:09:31Z</time>
      </trkpt>
      <trkpt lat="49.07163" lon="2.13938">
        <ele>65.2</ele>
        <time>2017-10-15T13:09:37Z</time>
      </trkpt>
      <trkpt lat="49.07167" lon="2.13949">
        <ele>65.2</ele>
        <time>2017-10-15T13:09:43Z</time>
      </trkpt>
      <trkpt lat="49.0717" lon="2.13959">
        <ele>65</ele>
        <time>2017-10-15T13:09:50Z</time>
      </trkpt>
      <trkpt lat="49.07172" lon="2.13971">
        <ele>65.1</ele>
        <time>2017-10-15T13:09:57Z</time>
      </trkpt>
      <trkpt lat="49.07172" lon="2.13983">
        <ele>65.7</ele>
        <time>2017-10-15T13:10:04Z</time>
      </trkpt>
      <trkpt lat="49.07172" lon="2.13995">
        <ele>67.1</ele>
        <time>2017-10-15T13:10:11Z</time>
      </trkpt>
      <trkpt lat="49.07172" lon="2.14006">
        <ele>67.3</ele>
        <time>2017-10-15T13:10:18Z</time>
      </trkpt>
      <trkpt lat="49.07173" lon="2.14017">
        <ele>67.3</ele>
        <time>2017-10-15T13:10:24Z</time>
      </trkpt>
      <trkpt lat="49.07173" lon="2.1403">
        <ele>67.3</ele>
        <time>2017-10-15T13:10:30Z</time>
      </trkpt>
      <trkpt lat="49.07176" lon="2.14041">
        <ele>66.5</ele>
        <time>2017-10-15T13:10:37Z</time>
      </trkpt>
      <trkpt lat="49.07178" lon="2.1405">
        <ele>66.6</ele>
        <time>2017-10-15T13:10:44Z</time>
      </trkpt>
      <trkpt lat="49.0718" lon="2.14062">
        <ele>65.7</ele>
        <time>2017-10-15T13:10:51Z</time>
      </trkpt>
      <trkpt lat="49.07183" lon="2.14074">
        <ele>65.7</ele>
        <time>2017-10-15T13:10:58Z</time>
      </trkpt>
      <trkpt lat="49.07184" lon="2.14085">
        <ele>66.8</ele>
        <time>2017-10-15T13:11:05Z</time>
      </trkpt>
      <trkpt lat="49.07183" lon="2.14094">
        <ele>66.6</ele>
        <time>2017-10-15T13:11:12Z</time>
      </trkpt>
      <trkpt lat="49.07178" lon="2.14103">
        <ele>66.4</ele>
        <time>2017-10-15T13:11:18Z</time>
      </trkpt>
      <trkpt lat="49.07172" lon="2.14109">
        <ele>64.7</ele>
        <time>2017-10-15T13:11:24Z</time>
      </trkpt>
      <trkpt lat="49.07165" lon="2.14116">
        <ele>63.1</ele>
        <time>2017-10-15T13:11:31Z</time>
      </trkpt>
      <trkpt lat="49.07158" lon="2.1412">
        <ele>63.6</ele>
        <time>2017-10-15T13:11:38Z</time>
      </trkpt>
      <trkpt lat="49.07152" lon="2.14128">
        <ele>63.5</ele>
        <time>2017-10-15T13:11:45Z</time>
      </trkpt>
      <trkpt lat="49.07145" lon="2.14132">
        <ele>63.6</ele>
        <time>2017-10-15T13:11:51Z</time>
      </trkpt>
      <trkpt lat="49.07138" lon="2.14138">
        <ele>62.7</ele>
        <time>2017-10-15T13:11:58Z</time>
      </trkpt>
      <trkpt lat="49.07133" lon="2.14146">
        <ele>62.3</ele>
        <time>2017-10-15T13:12:04Z</time>
      </trkpt>
      <trkpt lat="49.07134" lon="2.14156">
        <ele>60.9</ele>
        <time>2017-10-15T13:12:11Z</time>
      </trkpt>
      <trkpt lat="49.07136" lon="2.14167">
        <ele>63.1</ele>
        <time>2017-10-15T13:12:18Z</time>
      </trkpt>
      <trkpt lat="49.0714" lon="2.14179">
        <ele>66.6</ele>
        <time>2017-10-15T13:12:24Z</time>
      </trkpt>
      <trkpt lat="49.07142" lon="2.14191">
        <ele>71.1</ele>
        <time>2017-10-15T13:12:31Z</time>
      </trkpt>
      <trkpt lat="49.07142" lon="2.14202">
        <ele>73.7</ele>
        <time>2017-10-15T13:12:38Z</time>
      </trkpt>
      <trkpt lat="49.07143" lon="2.14213">
        <ele>74</ele>
        <time>2017-10-15T13:12:45Z</time>
      </trkpt>
      <trkpt lat="49.07145" lon="2.14225">
        <ele>74.7</ele>
        <time>2017-10-15T13:12:52Z</time>
      </trkpt>
      <trkpt lat="49.07148" lon="2.14236">
        <ele>73.7</ele>
        <time>2017-10-15T13:12:58Z</time>
      </trkpt>
      <trkpt lat="49.07153" lon="2.14246">
        <ele>70.9</ele>
        <time>2017-10-15T13:13:03Z</time>
      </trkpt>
      <trkpt lat="49.07157" lon="2.14255">
        <ele>70.3</ele>
        <time>2017-10-15T13:13:08Z</time>
      </trkpt>
      <trkpt lat="49.07162" lon="2.14265">
        <ele>66.6</ele>
        <time>2017-10-15T13:13:13Z</time>
      </trkpt>
      <trkpt lat="49.07166" lon="2.14275">
        <ele>67.3</ele>
        <time>2017-10-15T13:13:19Z</time>
      </trkpt>
      <trkpt lat="49.07171" lon="2.14284">
        <ele>69.2</ele>
        <time>2017-10-15T13:13:24Z</time>
      </trkpt>
      <trkpt lat="49.07173" lon="2.1429">
        <ele>67.2</ele>
        <time>2017-10-15T13:13:31Z</time>
      </trkpt>
      <trkpt lat="49.07177" lon="2.14298">
        <ele>66.3</ele>
        <time>2017-10-15T13:13:38Z</time>
      </trkpt>
      <trkpt lat="49.07178" lon="2.143">
        <ele>65.7</ele>
        <time>2017-10-15T13:13:45Z</time>
      </trkpt>
      <trkpt lat="49.07183" lon="2.1431">
        <ele>66.1</ele>
        <time>2017-10-15T13:13:52Z</time>
      </trkpt>
      <trkpt lat="49.07187" lon="2.14321">
        <ele>65.4</ele>
        <time>2017-10-15T13:13:59Z</time>
      </trkpt>
      <trkpt lat="49.0719" lon="2.14332">
        <ele>63.8</ele>
        <time>2017-10-15T13:14:05Z</time>
      </trkpt>
      <trkpt lat="49.07193" lon="2.14343">
        <ele>64.5</ele>
        <time>2017-10-15T13:14:11Z</time>
      </trkpt>
      <trkpt lat="49.07196" lon="2.14354">
        <ele>63.4</ele>
        <time>2017-10-15T13:14:18Z</time>
      </trkpt>
      <trkpt lat="49.07201" lon="2.14363">
        <ele>64.1</ele>
        <time>2017-10-15T13:14:24Z</time>
      </trkpt>
      <trkpt lat="49.07205" lon="2.14372">
        <ele>65.4</ele>
        <time>2017-10-15T13:14:30Z</time>
      </trkpt>
      <trkpt lat="49.0721" lon="2.14382">
        <ele>67.7</ele>
        <time>2017-10-15T13:14:36Z</time>
      </trkpt>
      <trkpt lat="49.07213" lon="2.14391">
        <ele>66.6</ele>
        <time>2017-10-15T13:14:42Z</time>
      </trkpt>
      <trkpt lat="49.07217" lon="2.14401">
        <ele>65</ele>
        <time>2017-10-15T13:14:48Z</time>
      </trkpt>
      <trkpt lat="49.07222" lon="2.1441">
        <ele>64.1</ele>
        <time>2017-10-15T13:14:54Z</time>
      </trkpt>
      <trkpt lat="49.07227" lon="2.14419">
        <ele>64.2</ele>
        <time>2017-10-15T13:15:00Z</time>
      </trkpt>
      <trkpt lat="49.07233" lon="2.14428">
        <ele>64</ele>
        <time>2017-10-15T13:15:06Z</time>
      </trkpt>
      <trkpt lat="49.07238" lon="2.14436">
        <ele>63.3</ele>
        <time>2017-10-15T13:15:12Z</time>
      </trkpt>
      <trkpt lat="49.07244" lon="2.14445">
        <ele>62.9</ele>
        <time>2017-10-15T13:15:19Z</time>
      </trkpt>
      <trkpt lat="49.07248" lon="2.14456">
        <ele>62.4</ele>
        <time>2017-10-15T13:15:26Z</time>
      </trkpt>
      <trkpt lat="49.07253" lon="2.14464">
        <ele>62.6</ele>
        <time>2017-10-15T13:15:32Z</time>
      </trkpt>
      <trkpt lat="49.07259" lon="2.14471">
        <ele>65</ele>
        <time>2017-10-15T13:15:39Z</time>
      </trkpt>
      <trkpt lat="49.07266" lon="2.14477">
        <ele>66.6</ele>
        <time>2017-10-15T13:15:46Z</time>
      </trkpt>
      <trkpt lat="49.07273" lon="2.14481">
        <ele>67.3</ele>
        <time>2017-10-15T13:15:53Z</time>
      </trkpt>
      <trkpt lat="49.07279" lon="2.14488">
        <ele>66.4</ele>
        <time>2017-10-15T13:16:00Z</time>
      </trkpt>
      <trkpt lat="49.07284" lon="2.14495">
        <ele>64.9</ele>
        <time>2017-10-15T13:16:07Z</time>
      </trkpt>
      <trkpt lat="49.07287" lon="2.14503">
        <ele>64.5</ele>
        <time>2017-10-15T13:16:14Z</time>
      </trkpt>
      <trkpt lat="49.07289" lon="2.14513">
        <ele>64.5</ele>
        <time>2017-10-15T13:16:21Z</time>
      </trkpt>
      <trkpt lat="49.0729" lon="2.14524">
        <ele>65.3</ele>
        <time>2017-10-15T13:16:28Z</time>
      </trkpt>
      <trkpt lat="49.07289" lon="2.14534">
        <ele>67.3</ele>
        <time>2017-10-15T13:16:34Z</time>
      </trkpt>
      <trkpt lat="49.07287" lon="2.14545">
        <ele>69.3</ele>
        <time>2017-10-15T13:16:41Z</time>
      </trkpt>
      <trkpt lat="49.07286" lon="2.14556">
        <ele>70.1</ele>
        <time>2017-10-15T13:16:48Z</time>
      </trkpt>
      <trkpt lat="49.07283" lon="2.14567">
        <ele>70.2</ele>
        <time>2017-10-15T13:16:55Z</time>
      </trkpt>
      <trkpt lat="49.0728" lon="2.14577">
        <ele>72.2</ele>
        <time>2017-10-15T13:17:02Z</time>
      </trkpt>
      <trkpt lat="49.07273" lon="2.14584">
        <ele>72.7</ele>
        <time>2017-10-15T13:17:09Z</time>
      </trkpt>
      <trkpt lat="49.07266" lon="2.14589">
        <ele>70.1</ele>
        <time>2017-10-15T13:17:16Z</time>
      </trkpt>
      <trkpt lat="49.07266" lon="2.14591">
        <ele>69.6</ele>
        <time>2017-10-15T13:17:23Z</time>
      </trkpt>
      <trkpt lat="49.07273" lon="2.14587">
        <ele>68.6</ele>
        <time>2017-10-15T13:17:32Z</time>
      </trkpt>
      <trkpt lat="49.0728" lon="2.14583">
        <ele>68.6</ele>
        <time>2017-10-15T13:17:39Z</time>
      </trkpt>
      <trkpt lat="49.07286" lon="2.14575">
        <ele>67.3</ele>
        <time>2017-10-15T13:17:45Z</time>
      </trkpt>
      <trkpt lat="49.07291" lon="2.14572">
        <ele>66.7</ele>
        <time>2017-10-15T13:17:52Z</time>
      </trkpt>
      <trkpt lat="49.07294" lon="2.14573">
        <ele>68</ele>
        <time>2017-10-15T13:17:59Z</time>
      </trkpt>
      <trkpt lat="49.07299" lon="2.14575">
        <ele>70.1</ele>
        <time>2017-10-15T13:18:06Z</time>
      </trkpt>
      <trkpt lat="49.07303" lon="2.14576">
        <ele>70.4</ele>
        <time>2017-10-15T13:18:13Z</time>
      </trkpt>
      <trkpt lat="49.07308" lon="2.14572">
        <ele>70.9</ele>
        <time>2017-10-15T13:18:20Z</time>
      </trkpt>
      <trkpt lat="49.07313" lon="2.1457">
        <ele>72.7</ele>
        <time>2017-10-15T13:18:27Z</time>
      </trkpt>
      <trkpt lat="49.07317" lon="2.14568">
        <ele>74</ele>
        <time>2017-10-15T13:18:34Z</time>
      </trkpt>
      <trkpt lat="49.07322" lon="2.14566">
        <ele>75.7</ele>
        <time>2017-10-15T13:18:41Z</time>
      </trkpt>
      <trkpt lat="49.07326" lon="2.14561">
        <ele>79</ele>
        <time>2017-10-15T13:18:48Z</time>
      </trkpt>
      <trkpt lat="49.0733" lon="2.14558">
        <ele>81.8</ele>
        <time>2017-10-15T13:18:55Z</time>
      </trkpt>
      <trkpt lat="49.07334" lon="2.14555">
        <ele>83.9</ele>
        <time>2017-10-15T13:19:02Z</time>
      </trkpt>
      <trkpt lat="49.07338" lon="2.14553">
        <ele>82.7</ele>
        <time>2017-10-15T13:19:09Z</time>
      </trkpt>
      <trkpt lat="49.07344" lon="2.14551">
        <ele>78.4</ele>
        <time>2017-10-15T13:20:30Z</time>
      </trkpt>
      <trkpt lat="49.0735" lon="2.14553">
        <ele>76.7</ele>
        <time>2017-10-15T13:20:37Z</time>
      </trkpt>
      <trkpt lat="49.07353" lon="2.14555">
        <ele>76</ele>
        <time>2017-10-15T13:20:44Z</time>
      </trkpt>
      <trkpt lat="49.07358" lon="2.14561">
        <ele>75.3</ele>
        <time>2017-10-15T13:20:51Z</time>
      </trkpt>
      <trkpt lat="49.07363" lon="2.14569">
        <ele>74.7</ele>
        <time>2017-10-15T13:20:58Z</time>
      </trkpt>
      <trkpt lat="49.07367" lon="2.14575">
        <ele>75</ele>
        <time>2017-10-15T13:21:05Z</time>
      </trkpt>
      <trkpt lat="49.0737" lon="2.14585">
        <ele>76</ele>
        <time>2017-10-15T13:21:12Z</time>
      </trkpt>
      <trkpt lat="49.07374" lon="2.14589">
        <ele>74.8</ele>
        <time>2017-10-15T13:21:19Z</time>
      </trkpt>
      <trkpt lat="49.07376" lon="2.14593">
        <ele>76.1</ele>
        <time>2017-10-15T13:21:26Z</time>
      </trkpt>
      <trkpt lat="49.07381" lon="2.14602">
        <ele>75.1</ele>
        <time>2017-10-15T13:21:33Z</time>
      </trkpt>
      <trkpt lat="49.07382" lon="2.14605">
        <ele>74.9</ele>
        <time>2017-10-15T13:21:40Z</time>
      </trkpt>
      <trkpt lat="49.07384" lon="2.14615">
        <ele>74.7</ele>
        <time>2017-10-15T13:21:45Z</time>
      </trkpt>
      <trkpt lat="49.07389" lon="2.14625">
        <ele>71.8</ele>
        <time>2017-10-15T13:21:50Z</time>
      </trkpt>
      <trkpt lat="49.07392" lon="2.14635">
        <ele>72.2</ele>
        <time>2017-10-15T13:21:56Z</time>
      </trkpt>
      <trkpt lat="49.07395" lon="2.14645">
        <ele>71.9</ele>
        <time>2017-10-15T13:22:03Z</time>
      </trkpt>
      <trkpt lat="49.074" lon="2.14656">
        <ele>71.2</ele>
        <time>2017-10-15T13:22:10Z</time>
      </trkpt>
      <trkpt lat="49.07403" lon="2.14666">
        <ele>71.2</ele>
        <time>2017-10-15T13:22:15Z</time>
      </trkpt>
      <trkpt lat="49.07406" lon="2.14675">
        <ele>69.4</ele>
        <time>2017-10-15T13:22:22Z</time>
      </trkpt>
      <trkpt lat="49.0741" lon="2.14685">
        <ele>69.9</ele>
        <time>2017-10-15T13:22:28Z</time>
      </trkpt>
      <trkpt lat="49.07413" lon="2.14691">
        <ele>69.4</ele>
        <time>2017-10-15T13:22:35Z</time>
      </trkpt>
      <trkpt lat="49.07414" lon="2.14693">
        <ele>69.5</ele>
        <time>2017-10-15T13:22:42Z</time>
      </trkpt>
      <trkpt lat="49.07417" lon="2.14704">
        <ele>69.1</ele>
        <time>2017-10-15T13:22:48Z</time>
      </trkpt>
      <trkpt lat="49.0742" lon="2.14715">
        <ele>68.7</ele>
        <time>2017-10-15T13:22:54Z</time>
      </trkpt>
      <trkpt lat="49.07423" lon="2.14726">
        <ele>69.1</ele>
        <time>2017-10-15T13:23:01Z</time>
      </trkpt>
      <trkpt lat="49.07427" lon="2.14736">
        <ele>69</ele>
        <time>2017-10-15T13:23:07Z</time>
      </trkpt>
      <trkpt lat="49.07429" lon="2.14747">
        <ele>69</ele>
        <time>2017-10-15T13:23:13Z</time>
      </trkpt>
      <trkpt lat="49.07432" lon="2.14757">
        <ele>69.6</ele>
        <time>2017-10-15T13:23:18Z</time>
      </trkpt>
      <trkpt lat="49.07435" lon="2.14769">
        <ele>69.9</ele>
        <time>2017-10-15T13:23:24Z</time>
      </trkpt>
      <trkpt lat="49.07438" lon="2.1478">
        <ele>69.7</ele>
        <time>2017-10-15T13:23:30Z</time>
      </trkpt>
      <trkpt lat="49.07441" lon="2.14792">
        <ele>69.8</ele>
        <time>2017-10-15T13:23:36Z</time>
      </trkpt>
      <trkpt lat="49.07444" lon="2.14803">
        <ele>69.8</ele>
        <time>2017-10-15T13:23:42Z</time>
      </trkpt>
      <trkpt lat="49.07446" lon="2.14813">
        <ele>69.7</ele>
        <time>2017-10-15T13:23:48Z</time>
      </trkpt>
      <trkpt lat="49.07449" lon="2.14826">
        <ele>69.4</ele>
        <time>2017-10-15T13:23:54Z</time>
      </trkpt>
      <trkpt lat="49.07452" lon="2.14838">
        <ele>69.7</ele>
        <time>2017-10-15T13:24:00Z</time>
      </trkpt>
      <trkpt lat="49.07454" lon="2.14848">
        <ele>69.9</ele>
        <time>2017-10-15T13:24:06Z</time>
      </trkpt>
      <trkpt lat="49.07457" lon="2.1486">
        <ele>70.4</ele>
        <time>2017-10-15T13:24:12Z</time>
      </trkpt>
      <trkpt lat="49.0746" lon="2.14871">
        <ele>70.3</ele>
        <time>2017-10-15T13:24:18Z</time>
      </trkpt>
      <trkpt lat="49.07463" lon="2.14883">
        <ele>70</ele>
        <time>2017-10-15T13:24:24Z</time>
      </trkpt>
      <trkpt lat="49.07465" lon="2.14893">
        <ele>70.3</ele>
        <time>2017-10-15T13:24:30Z</time>
      </trkpt>
      <trkpt lat="49.07468" lon="2.14905">
        <ele>71.3</ele>
        <time>2017-10-15T13:24:36Z</time>
      </trkpt>
      <trkpt lat="49.07471" lon="2.14917">
        <ele>71.6</ele>
        <time>2017-10-15T13:24:42Z</time>
      </trkpt>
      <trkpt lat="49.07474" lon="2.14928">
        <ele>72.5</ele>
        <time>2017-10-15T13:24:48Z</time>
      </trkpt>
      <trkpt lat="49.07477" lon="2.14939">
        <ele>73.2</ele>
        <time>2017-10-15T13:24:54Z</time>
      </trkpt>
      <trkpt lat="49.0748" lon="2.14951">
        <ele>73.8</ele>
        <time>2017-10-15T13:25:00Z</time>
      </trkpt>
      <trkpt lat="49.07483" lon="2.14963">
        <ele>74.1</ele>
        <time>2017-10-15T13:25:06Z</time>
      </trkpt>
      <trkpt lat="49.07486" lon="2.14974">
        <ele>73.9</ele>
        <time>2017-10-15T13:25:12Z</time>
      </trkpt>
      <trkpt lat="49.0749" lon="2.14986">
        <ele>74</ele>
        <time>2017-10-15T13:25:18Z</time>
      </trkpt>
      <trkpt lat="49.07494" lon="2.14996">
        <ele>73.8</ele>
        <time>2017-10-15T13:25:24Z</time>
      </trkpt>
      <trkpt lat="49.07497" lon="2.15007">
        <ele>74</ele>
        <time>2017-10-15T13:25:30Z</time>
      </trkpt>
      <trkpt lat="49.07501" lon="2.15018">
        <ele>74.5</ele>
        <time>2017-10-15T13:25:36Z</time>
      </trkpt>
      <trkpt lat="49.07504" lon="2.15028">
        <ele>75</ele>
        <time>2017-10-15T13:25:42Z</time>
      </trkpt>
      <trkpt lat="49.07506" lon="2.15039">
        <ele>75.1</ele>
        <time>2017-10-15T13:25:47Z</time>
      </trkpt>
      <trkpt lat="49.0751" lon="2.1505">
        <ele>73.5</ele>
        <time>2017-10-15T13:25:53Z</time>
      </trkpt>
      <trkpt lat="49.07513" lon="2.15061">
        <ele>72.5</ele>
        <time>2017-10-15T13:25:59Z</time>
      </trkpt>
      <trkpt lat="49.07518" lon="2.15071">
        <ele>72.4</ele>
        <time>2017-10-15T13:26:04Z</time>
      </trkpt>
      <trkpt lat="49.07521" lon="2.15082">
        <ele>72.8</ele>
        <time>2017-10-15T13:26:10Z</time>
      </trkpt>
      <trkpt lat="49.07525" lon="2.15093">
        <ele>72.3</ele>
        <time>2017-10-15T13:26:16Z</time>
      </trkpt>
      <trkpt lat="49.0753" lon="2.15104">
        <ele>71.9</ele>
        <time>2017-10-15T13:26:22Z</time>
      </trkpt>
      <trkpt lat="49.07535" lon="2.15113">
        <ele>71.4</ele>
        <time>2017-10-15T13:26:27Z</time>
      </trkpt>
      <trkpt lat="49.07539" lon="2.15123">
        <ele>72.4</ele>
        <time>2017-10-15T13:26:33Z</time>
      </trkpt>
      <trkpt lat="49.07543" lon="2.15134">
        <ele>73.2</ele>
        <time>2017-10-15T13:26:39Z</time>
      </trkpt>
      <trkpt lat="49.07548" lon="2.15143">
        <ele>72.5</ele>
        <time>2017-10-15T13:26:45Z</time>
      </trkpt>
      <trkpt lat="49.07553" lon="2.15152">
        <ele>72.5</ele>
        <time>2017-10-15T13:26:50Z</time>
      </trkpt>
      <trkpt lat="49.07557" lon="2.15161">
        <ele>70.5</ele>
        <time>2017-10-15T13:26:56Z</time>
      </trkpt>
      <trkpt lat="49.0756" lon="2.15174">
        <ele>68.7</ele>
        <time>2017-10-15T13:27:03Z</time>
      </trkpt>
      <trkpt lat="49.07563" lon="2.15185">
        <ele>69.4</ele>
        <time>2017-10-15T13:27:09Z</time>
      </trkpt>
      <trkpt lat="49.07566" lon="2.15195">
        <ele>69.8</ele>
        <time>2017-10-15T13:27:15Z</time>
      </trkpt>
      <trkpt lat="49.0757" lon="2.15205">
        <ele>67.2</ele>
        <time>2017-10-15T13:27:21Z</time>
      </trkpt>
      <trkpt lat="49.07573" lon="2.15215">
        <ele>64.3</ele>
        <time>2017-10-15T13:27:28Z</time>
      </trkpt>
      <trkpt lat="49.07576" lon="2.15225">
        <ele>64.4</ele>
        <time>2017-10-15T13:27:34Z</time>
      </trkpt>
      <trkpt lat="49.07581" lon="2.15235">
        <ele>65.8</ele>
        <time>2017-10-15T13:27:40Z</time>
      </trkpt>
      <trkpt lat="49.07586" lon="2.15245">
        <ele>66.1</ele>
        <time>2017-10-15T13:27:47Z</time>
      </trkpt>
      <trkpt lat="49.07588" lon="2.15255">
        <ele>66</ele>
        <time>2017-10-15T13:27:54Z</time>
      </trkpt>
      <trkpt lat="49.07591" lon="2.15267">
        <ele>65.2</ele>
        <time>2017-10-15T13:28:00Z</time>
      </trkpt>
      <trkpt lat="49.07593" lon="2.15271">
        <ele>65</ele>
        <time>2017-10-15T13:28:07Z</time>
      </trkpt>
      <trkpt lat="49.07594" lon="2.1528">
        <ele>66</ele>
        <time>2017-10-15T13:28:14Z</time>
      </trkpt>
      <trkpt lat="49.07597" lon="2.15293">
        <ele>65.2</ele>
        <time>2017-10-15T13:28:20Z</time>
      </trkpt>
      <trkpt lat="49.07601" lon="2.15304">
        <ele>63.7</ele>
        <time>2017-10-15T13:28:25Z</time>
      </trkpt>
      <trkpt lat="49.07605" lon="2.15314">
        <ele>64.3</ele>
        <time>2017-10-15T13:28:31Z</time>
      </trkpt>
      <trkpt lat="49.07608" lon="2.15326">
        <ele>61.5</ele>
        <time>2017-10-15T13:28:37Z</time>
      </trkpt>
      <trkpt lat="49.07612" lon="2.15336">
        <ele>60.1</ele>
        <time>2017-10-15T13:28:43Z</time>
      </trkpt>
      <trkpt lat="49.07617" lon="2.15347">
        <ele>60.3</ele>
        <time>2017-10-15T13:28:49Z</time>
      </trkpt>
      <trkpt lat="49.0762" lon="2.15357">
        <ele>62</ele>
        <time>2017-10-15T13:28:54Z</time>
      </trkpt>
      <trkpt lat="49.07624" lon="2.15367">
        <ele>61.8</ele>
        <time>2017-10-15T13:29:00Z</time>
      </trkpt>
      <trkpt lat="49.07627" lon="2.15379">
        <ele>63.2</ele>
        <time>2017-10-15T13:29:07Z</time>
      </trkpt>
      <trkpt lat="49.07629" lon="2.15391">
        <ele>63.3</ele>
        <time>2017-10-15T13:29:14Z</time>
      </trkpt>
      <trkpt lat="49.07632" lon="2.15403">
        <ele>63.6</ele>
        <time>2017-10-15T13:29:21Z</time>
      </trkpt>
      <trkpt lat="49.07634" lon="2.15413">
        <ele>62.6</ele>
        <time>2017-10-15T13:29:27Z</time>
      </trkpt>
      <trkpt lat="49.07636" lon="2.15425">
        <ele>60.6</ele>
        <time>2017-10-15T13:29:34Z</time>
      </trkpt>
      <trkpt lat="49.07637" lon="2.15436">
        <ele>60</ele>
        <time>2017-10-15T13:29:40Z</time>
      </trkpt>
      <trkpt lat="49.07638" lon="2.15447">
        <ele>59</ele>
        <time>2017-10-15T13:29:47Z</time>
      </trkpt>
      <trkpt lat="49.07639" lon="2.15459">
        <ele>58.8</ele>
        <time>2017-10-15T13:29:54Z</time>
      </trkpt>
      <trkpt lat="49.07641" lon="2.15471">
        <ele>60</ele>
        <time>2017-10-15T13:30:00Z</time>
      </trkpt>
      <trkpt lat="49.07643" lon="2.15481">
        <ele>62.9</ele>
        <time>2017-10-15T13:30:06Z</time>
      </trkpt>
      <trkpt lat="49.07645" lon="2.15492">
        <ele>63.5</ele>
        <time>2017-10-15T13:30:12Z</time>
      </trkpt>
      <trkpt lat="49.07644" lon="2.15504">
        <ele>64.6</ele>
        <time>2017-10-15T13:30:19Z</time>
      </trkpt>
      <trkpt lat="49.0764" lon="2.15515">
        <ele>65.3</ele>
        <time>2017-10-15T13:30:25Z</time>
      </trkpt>
      <trkpt lat="49.07633" lon="2.1552">
        <ele>63.8</ele>
        <time>2017-10-15T13:30:31Z</time>
      </trkpt>
      <trkpt lat="49.07627" lon="2.15524">
        <ele>62.9</ele>
        <time>2017-10-15T13:30:38Z</time>
      </trkpt>
      <trkpt lat="49.0762" lon="2.15529">
        <ele>60.7</ele>
        <time>2017-10-15T13:30:45Z</time>
      </trkpt>
      <trkpt lat="49.07613" lon="2.15534">
        <ele>61.9</ele>
        <time>2017-10-15T13:30:52Z</time>
      </trkpt>
      <trkpt lat="49.07606" lon="2.1554">
        <ele>61.7</ele>
        <time>2017-10-15T13:30:58Z</time>
      </trkpt>
      <trkpt lat="49.07602" lon="2.15544">
        <ele>62.7</ele>
        <time>2017-10-15T13:31:05Z</time>
      </trkpt>
      <trkpt lat="49.076" lon="2.15547">
        <ele>63.6</ele>
        <time>2017-10-15T13:31:39Z</time>
      </trkpt>
      <trkpt lat="49.07603" lon="2.15553">
        <ele>63.7</ele>
        <time>2017-10-15T13:31:18Z</time>
      </trkpt>
      <trkpt lat="49.076" lon="2.15559">
        <ele>61.8</ele>
        <time>2017-10-15T13:34:59Z</time>
      </trkpt>
      <trkpt lat="49.07595" lon="2.15566">
        <ele>61.2</ele>
        <time>2017-10-15T13:35:06Z</time>
      </trkpt>
      <trkpt lat="49.07589" lon="2.15575">
        <ele>61.2</ele>
        <time>2017-10-15T13:35:13Z</time>
      </trkpt>
      <trkpt lat="49.07584" lon="2.15583">
        <ele>64</ele>
        <time>2017-10-15T13:35:19Z</time>
      </trkpt>
      <trkpt lat="49.07578" lon="2.15593">
        <ele>62.4</ele>
        <time>2017-10-15T13:35:26Z</time>
      </trkpt>
      <trkpt lat="49.07574" lon="2.15602">
        <ele>62.8</ele>
        <time>2017-10-15T13:35:32Z</time>
      </trkpt>
      <trkpt lat="49.0757" lon="2.15611">
        <ele>62.5</ele>
        <time>2017-10-15T13:35:39Z</time>
      </trkpt>
      <trkpt lat="49.07565" lon="2.15622">
        <ele>63.9</ele>
        <time>2017-10-15T13:35:46Z</time>
      </trkpt>
      <trkpt lat="49.07559" lon="2.1563">
        <ele>62.6</ele>
        <time>2017-10-15T13:35:52Z</time>
      </trkpt>
      <trkpt lat="49.07554" lon="2.15638">
        <ele>63.2</ele>
        <time>2017-10-15T13:35:58Z</time>
      </trkpt>
      <trkpt lat="49.07549" lon="2.15647">
        <ele>60.9</ele>
        <time>2017-10-15T13:36:04Z</time>
      </trkpt>
      <trkpt lat="49.07543" lon="2.15655">
        <ele>61.2</ele>
        <time>2017-10-15T13:36:10Z</time>
      </trkpt>
      <trkpt lat="49.07538" lon="2.15663">
        <ele>62.9</ele>
        <time>2017-10-15T13:36:16Z</time>
      </trkpt>
      <trkpt lat="49.07532" lon="2.15672">
        <ele>61.8</ele>
        <time>2017-10-15T13:36:23Z</time>
      </trkpt>
      <trkpt lat="49.07526" lon="2.15681">
        <ele>63.6</ele>
        <time>2017-10-15T13:36:29Z</time>
      </trkpt>
      <trkpt lat="49.07521" lon="2.15691">
        <ele>60</ele>
        <time>2017-10-15T13:36:35Z</time>
      </trkpt>
      <trkpt lat="49.07517" lon="2.157">
        <ele>59.7</ele>
        <time>2017-10-15T13:36:40Z</time>
      </trkpt>
      <trkpt lat="49.07512" lon="2.15711">
        <ele>59.8</ele>
        <time>2017-10-15T13:36:46Z</time>
      </trkpt>
      <trkpt lat="49.07508" lon="2.15719">
        <ele>60.4</ele>
        <time>2017-10-15T13:36:51Z</time>
      </trkpt>
      <trkpt lat="49.07503" lon="2.15729">
        <ele>59.1</ele>
        <time>2017-10-15T13:36:57Z</time>
      </trkpt>
      <trkpt lat="49.07497" lon="2.15738">
        <ele>58</ele>
        <time>2017-10-15T13:37:03Z</time>
      </trkpt>
      <trkpt lat="49.07492" lon="2.15747">
        <ele>59.6</ele>
        <time>2017-10-15T13:37:09Z</time>
      </trkpt>
      <trkpt lat="49.07488" lon="2.15757">
        <ele>58.9</ele>
        <time>2017-10-15T13:37:15Z</time>
      </trkpt>
      <trkpt lat="49.07483" lon="2.15766">
        <ele>59.2</ele>
        <time>2017-10-15T13:37:21Z</time>
      </trkpt>
      <trkpt lat="49.07477" lon="2.15776">
        <ele>59.6</ele>
        <time>2017-10-15T13:37:27Z</time>
      </trkpt>
      <trkpt lat="49.07473" lon="2.15787">
        <ele>60.4</ele>
        <time>2017-10-15T13:37:33Z</time>
      </trkpt>
      <trkpt lat="49.07468" lon="2.15795">
        <ele>57.7</ele>
        <time>2017-10-15T13:37:39Z</time>
      </trkpt>
      <trkpt lat="49.07463" lon="2.15804">
        <ele>58.1</ele>
        <time>2017-10-15T13:37:45Z</time>
      </trkpt>
      <trkpt lat="49.07459" lon="2.15814">
        <ele>59.9</ele>
        <time>2017-10-15T13:37:51Z</time>
      </trkpt>
      <trkpt lat="49.07453" lon="2.15824">
        <ele>59.3</ele>
        <time>2017-10-15T13:37:57Z</time>
      </trkpt>
      <trkpt lat="49.07449" lon="2.15832">
        <ele>59.6</ele>
        <time>2017-10-15T13:38:02Z</time>
      </trkpt>
      <trkpt lat="49.07444" lon="2.15841">
        <ele>60.2</ele>
        <time>2017-10-15T13:38:08Z</time>
      </trkpt>
      <trkpt lat="49.07439" lon="2.15851">
        <ele>59.9</ele>
        <time>2017-10-15T13:38:14Z</time>
      </trkpt>
      <trkpt lat="49.07434" lon="2.1586">
        <ele>58.7</ele>
        <time>2017-10-15T13:38:20Z</time>
      </trkpt>
      <trkpt lat="49.07429" lon="2.1587">
        <ele>58.5</ele>
        <time>2017-10-15T13:38:26Z</time>
      </trkpt>
      <trkpt lat="49.07425" lon="2.15879">
        <ele>57.8</ele>
        <time>2017-10-15T13:38:32Z</time>
      </trkpt>
      <trkpt lat="49.07419" lon="2.15888">
        <ele>58.2</ele>
        <time>2017-10-15T13:38:38Z</time>
      </trkpt>
      <trkpt lat="49.07414" lon="2.15897">
        <ele>56.8</ele>
        <time>2017-10-15T13:38:45Z</time>
      </trkpt>
      <trkpt lat="49.07414" lon="2.15902">
        <ele>56.3</ele>
        <time>2017-10-15T13:38:52Z</time>
      </trkpt>
      <trkpt lat="49.07408" lon="2.15919">
        <ele>54.3</ele>
        <time>2017-10-15T13:40:06Z</time>
      </trkpt>
      <trkpt lat="49.07405" lon="2.1593">
        <ele>53.9</ele>
        <time>2017-10-15T13:40:25Z</time>
      </trkpt>
      <trkpt lat="49.07401" lon="2.1594">
        <ele>54</ele>
        <time>2017-10-15T13:40:32Z</time>
      </trkpt>
      <trkpt lat="49.07399" lon="2.1595">
        <ele>53.2</ele>
        <time>2017-10-15T13:40:39Z</time>
      </trkpt>
      <trkpt lat="49.07397" lon="2.15962">
        <ele>52.5</ele>
        <time>2017-10-15T13:40:46Z</time>
      </trkpt>
      <trkpt lat="49.07394" lon="2.15973">
        <ele>51.6</ele>
        <time>2017-10-15T13:40:53Z</time>
      </trkpt>
      <trkpt lat="49.07391" lon="2.15983">
        <ele>50.5</ele>
        <time>2017-10-15T13:40:59Z</time>
      </trkpt>
      <trkpt lat="49.07388" lon="2.15992">
        <ele>52</ele>
        <time>2017-10-15T13:41:05Z</time>
      </trkpt>
      <trkpt lat="49.07383" lon="2.16002">
        <ele>52.2</ele>
        <time>2017-10-15T13:41:11Z</time>
      </trkpt>
      <trkpt lat="49.0738" lon="2.16013">
        <ele>52</ele>
        <time>2017-10-15T13:41:17Z</time>
      </trkpt>
      <trkpt lat="49.07376" lon="2.16023">
        <ele>51.4</ele>
        <time>2017-10-15T13:41:23Z</time>
      </trkpt>
      <trkpt lat="49.07373" lon="2.16032">
        <ele>51.5</ele>
        <time>2017-10-15T13:41:29Z</time>
      </trkpt>
      <trkpt lat="49.07369" lon="2.16044">
        <ele>51.7</ele>
        <time>2017-10-15T13:41:35Z</time>
      </trkpt>
      <trkpt lat="49.07365" lon="2.16054">
        <ele>52.1</ele>
        <time>2017-10-15T13:41:42Z</time>
      </trkpt>
      <trkpt lat="49.07362" lon="2.16064">
        <ele>52</ele>
        <time>2017-10-15T13:41:48Z</time>
      </trkpt>
      <trkpt lat="49.07358" lon="2.16075">
        <ele>51.7</ele>
        <time>2017-10-15T13:41:54Z</time>
      </trkpt>
      <trkpt lat="49.07354" lon="2.16084">
        <ele>51.6</ele>
        <time>2017-10-15T13:42:00Z</time>
      </trkpt>
      <trkpt lat="49.0735" lon="2.16094">
        <ele>51.3</ele>
        <time>2017-10-15T13:42:06Z</time>
      </trkpt>
      <trkpt lat="49.07345" lon="2.16102">
        <ele>50.9</ele>
        <time>2017-10-15T13:42:12Z</time>
      </trkpt>
      <trkpt lat="49.0734" lon="2.16112">
        <ele>49.9</ele>
        <time>2017-10-15T13:42:18Z</time>
      </trkpt>
      <trkpt lat="49.07336" lon="2.1612">
        <ele>48.6</ele>
        <time>2017-10-15T13:42:25Z</time>
      </trkpt>
      <trkpt lat="49.07331" lon="2.16129">
        <ele>48.3</ele>
        <time>2017-10-15T13:42:31Z</time>
      </trkpt>
      <trkpt lat="49.07326" lon="2.16138">
        <ele>49.2</ele>
        <time>2017-10-15T13:42:37Z</time>
      </trkpt>
      <trkpt lat="49.07322" lon="2.16149">
        <ele>50.7</ele>
        <time>2017-10-15T13:42:44Z</time>
      </trkpt>
      <trkpt lat="49.07317" lon="2.16158">
        <ele>51.2</ele>
        <time>2017-10-15T13:42:50Z</time>
      </trkpt>
      <trkpt lat="49.07313" lon="2.16167">
        <ele>51.1</ele>
        <time>2017-10-15T13:42:56Z</time>
      </trkpt>
      <trkpt lat="49.07308" lon="2.16176">
        <ele>50.8</ele>
        <time>2017-10-15T13:43:02Z</time>
      </trkpt>
      <trkpt lat="49.07303" lon="2.16184">
        <ele>49.5</ele>
        <time>2017-10-15T13:43:08Z</time>
      </trkpt>
      <trkpt lat="49.07298" lon="2.16194">
        <ele>48.8</ele>
        <time>2017-10-15T13:43:14Z</time>
      </trkpt>
      <trkpt lat="49.07293" lon="2.16203">
        <ele>47.8</ele>
        <time>2017-10-15T13:43:20Z</time>
      </trkpt>
      <trkpt lat="49.07288" lon="2.16212">
        <ele>47</ele>
        <time>2017-10-15T13:43:26Z</time>
      </trkpt>
      <trkpt lat="49.07283" lon="2.16221">
        <ele>46.5</ele>
        <time>2017-10-15T13:43:32Z</time>
      </trkpt>
      <trkpt lat="49.07279" lon="2.1623">
        <ele>46.4</ele>
        <time>2017-10-15T13:43:38Z</time>
      </trkpt>
      <trkpt lat="49.07275" lon="2.1624">
        <ele>46.5</ele>
        <time>2017-10-15T13:43:44Z</time>
      </trkpt>
      <trkpt lat="49.07271" lon="2.16246">
        <ele>47.4</ele>
        <time>2017-10-15T13:43:51Z</time>
      </trkpt>
      <trkpt lat="49.07268" lon="2.16253">
        <ele>47.6</ele>
        <time>2017-10-15T13:43:58Z</time>
      </trkpt>
      <trkpt lat="49.07268" lon="2.16257">
        <ele>45.8</ele>
        <time>2017-10-15T13:44:05Z</time>
      </trkpt>
      <trkpt lat="49.07264" lon="2.16268">
        <ele>47.7</ele>
        <time>2017-10-15T13:44:11Z</time>
      </trkpt>
      <trkpt lat="49.0726" lon="2.16279">
        <ele>47.8</ele>
        <time>2017-10-15T13:44:17Z</time>
      </trkpt>
      <trkpt lat="49.07256" lon="2.1629">
        <ele>50.5</ele>
        <time>2017-10-15T13:44:23Z</time>
      </trkpt>
      <trkpt lat="49.07254" lon="2.163">
        <ele>52.2</ele>
        <time>2017-10-15T13:44:29Z</time>
      </trkpt>
      <trkpt lat="49.07252" lon="2.16311">
        <ele>53.1</ele>
        <time>2017-10-15T13:44:36Z</time>
      </trkpt>
      <trkpt lat="49.07254" lon="2.16319">
        <ele>50.8</ele>
        <time>2017-10-15T13:44:43Z</time>
      </trkpt>
      <trkpt lat="49.07252" lon="2.16325">
        <ele>47.1</ele>
        <time>2017-10-15T13:45:02Z</time>
      </trkpt>
      <trkpt lat="49.07244" lon="2.16335">
        <ele>43.1</ele>
        <time>2017-10-15T13:46:22Z</time>
      </trkpt>
      <trkpt lat="49.07237" lon="2.16337">
        <ele>41.5</ele>
        <time>2017-10-15T13:46:29Z</time>
      </trkpt>
      <trkpt lat="49.0723" lon="2.16337">
        <ele>38.9</ele>
        <time>2017-10-15T13:46:36Z</time>
      </trkpt>
      <trkpt lat="49.07222" lon="2.16336">
        <ele>37</ele>
        <time>2017-10-15T13:46:43Z</time>
      </trkpt>
      <trkpt lat="49.07214" lon="2.16335">
        <ele>36.1</ele>
        <time>2017-10-15T13:46:49Z</time>
      </trkpt>
      <trkpt lat="49.07207" lon="2.16333">
        <ele>34.3</ele>
        <time>2017-10-15T13:46:55Z</time>
      </trkpt>
      <trkpt lat="49.072" lon="2.16329">
        <ele>33.3</ele>
        <time>2017-10-15T13:47:02Z</time>
      </trkpt>
      <trkpt lat="49.07192" lon="2.16326">
        <ele>32.1</ele>
        <time>2017-10-15T13:47:09Z</time>
      </trkpt>
      <trkpt lat="49.07185" lon="2.16324">
        <ele>31.6</ele>
        <time>2017-10-15T13:47:16Z</time>
      </trkpt>
      <trkpt lat="49.07177" lon="2.16325">
        <ele>32.5</ele>
        <time>2017-10-15T13:47:23Z</time>
      </trkpt>
      <trkpt lat="49.0717" lon="2.16324">
        <ele>33</ele>
        <time>2017-10-15T13:47:29Z</time>
      </trkpt>
      <trkpt lat="49.07162" lon="2.16325">
        <ele>30.9</ele>
        <time>2017-10-15T13:47:36Z</time>
      </trkpt>
      <trkpt lat="49.07154" lon="2.16328">
        <ele>29.6</ele>
        <time>2017-10-15T13:47:43Z</time>
      </trkpt>
      <trkpt lat="49.07147" lon="2.16332">
        <ele>28.6</ele>
        <time>2017-10-15T13:47:50Z</time>
      </trkpt>
      <trkpt lat="49.07142" lon="2.16337">
        <ele>27.4</ele>
        <time>2017-10-15T13:47:57Z</time>
      </trkpt>
      <trkpt lat="49.07141" lon="2.16339">
        <ele>28.6</ele>
        <time>2017-10-15T13:48:04Z</time>
      </trkpt>
      <trkpt lat="49.07135" lon="2.16347">
        <ele>27.1</ele>
        <time>2017-10-15T13:48:11Z</time>
      </trkpt>
      <trkpt lat="49.07131" lon="2.16355">
        <ele>29.7</ele>
        <time>2017-10-15T13:48:18Z</time>
      </trkpt>
      <trkpt lat="49.07126" lon="2.16363">
        <ele>29.9</ele>
        <time>2017-10-15T13:48:24Z</time>
      </trkpt>
      <trkpt lat="49.07124" lon="2.16374">
        <ele>30.3</ele>
        <time>2017-10-15T13:48:31Z</time>
      </trkpt>
      <trkpt lat="49.07124" lon="2.16385">
        <ele>31.3</ele>
        <time>2017-10-15T13:48:38Z</time>
      </trkpt>
      <trkpt lat="49.07124" lon="2.16398">
        <ele>33.4</ele>
        <time>2017-10-15T13:48:45Z</time>
      </trkpt>
      <trkpt lat="49.07124" lon="2.1641">
        <ele>31.9</ele>
        <time>2017-10-15T13:48:52Z</time>
      </trkpt>
      <trkpt lat="49.07124" lon="2.16421">
        <ele>30.7</ele>
        <time>2017-10-15T13:48:58Z</time>
      </trkpt>
      <trkpt lat="49.07123" lon="2.16433">
        <ele>29.3</ele>
        <time>2017-10-15T13:49:05Z</time>
      </trkpt>
      <trkpt lat="49.07123" lon="2.16444">
        <ele>29.2</ele>
        <time>2017-10-15T13:49:11Z</time>
      </trkpt>
      <trkpt lat="49.07124" lon="2.16456">
        <ele>29.4</ele>
        <time>2017-10-15T13:49:17Z</time>
      </trkpt>
      <trkpt lat="49.07126" lon="2.16467">
        <ele>29.7</ele>
        <time>2017-10-15T13:49:23Z</time>
      </trkpt>
      <trkpt lat="49.07128" lon="2.16478">
        <ele>29</ele>
        <time>2017-10-15T13:49:29Z</time>
      </trkpt>
      <trkpt lat="49.07131" lon="2.1649">
        <ele>27.4</ele>
        <time>2017-10-15T13:49:36Z</time>
      </trkpt>
      <trkpt lat="49.07133" lon="2.165">
        <ele>27.3</ele>
        <time>2017-10-15T13:49:43Z</time>
      </trkpt>
      <trkpt lat="49.07135" lon="2.16512">
        <ele>26.2</ele>
        <time>2017-10-15T13:49:50Z</time>
      </trkpt>
      <trkpt lat="49.07137" lon="2.16525">
        <ele>26.6</ele>
        <time>2017-10-15T13:49:57Z</time>
      </trkpt>
      <trkpt lat="49.07138" lon="2.16536">
        <ele>26.4</ele>
        <time>2017-10-15T13:50:04Z</time>
      </trkpt>
      <trkpt lat="49.07142" lon="2.16547">
        <ele>26.1</ele>
        <time>2017-10-15T13:50:10Z</time>
      </trkpt>
      <trkpt lat="49.07145" lon="2.16559">
        <ele>26.3</ele>
        <time>2017-10-15T13:50:16Z</time>
      </trkpt>
      <trkpt lat="49.07143" lon="2.16567">
        <ele>26.8</ele>
        <time>2017-10-15T13:50:23Z</time>
      </trkpt>
      <trkpt lat="49.0714" lon="2.16577">
        <ele>27.2</ele>
        <time>2017-10-15T13:50:30Z</time>
      </trkpt>
      <trkpt lat="49.07142" lon="2.16588">
        <ele>27.1</ele>
        <time>2017-10-15T13:50:36Z</time>
      </trkpt>
      <trkpt lat="49.07144" lon="2.16599">
        <ele>27.6</ele>
        <time>2017-10-15T13:50:43Z</time>
      </trkpt>
      <trkpt lat="49.07145" lon="2.16611">
        <ele>27.7</ele>
        <time>2017-10-15T13:50:50Z</time>
      </trkpt>
      <trkpt lat="49.07147" lon="2.16624">
        <ele>27.1</ele>
        <time>2017-10-15T13:50:57Z</time>
      </trkpt>
      <trkpt lat="49.07148" lon="2.16635">
        <ele>27.9</ele>
        <time>2017-10-15T13:51:03Z</time>
      </trkpt>
      <trkpt lat="49.0715" lon="2.16647">
        <ele>28.5</ele>
        <time>2017-10-15T13:51:09Z</time>
      </trkpt>
      <trkpt lat="49.07153" lon="2.16658">
        <ele>27.9</ele>
        <time>2017-10-15T13:51:15Z</time>
      </trkpt>
      <trkpt lat="49.07155" lon="2.1667">
        <ele>30.5</ele>
        <time>2017-10-15T13:51:22Z</time>
      </trkpt>
      <trkpt lat="49.07155" lon="2.16682">
        <ele>31.3</ele>
        <time>2017-10-15T13:51:29Z</time>
      </trkpt>
      <trkpt lat="49.07157" lon="2.16693">
        <ele>29.4</ele>
        <time>2017-10-15T13:51:35Z</time>
      </trkpt>
      <trkpt lat="49.0716" lon="2.16705">
        <ele>27.3</ele>
        <time>2017-10-15T13:51:41Z</time>
      </trkpt>
      <trkpt lat="49.07164" lon="2.16714">
        <ele>24.9</ele>
        <time>2017-10-15T13:51:47Z</time>
      </trkpt>
      <trkpt lat="49.07169" lon="2.16724">
        <ele>23</ele>
        <time>2017-10-15T13:51:54Z</time>
      </trkpt>
      <trkpt lat="49.07174" lon="2.16733">
        <ele>22.2</ele>
        <time>2017-10-15T13:52:00Z</time>
      </trkpt>
      <trkpt lat="49.0718" lon="2.16741">
        <ele>21.5</ele>
        <time>2017-10-15T13:52:06Z</time>
      </trkpt>
      <trkpt lat="49.07185" lon="2.1675">
        <ele>20</ele>
        <time>2017-10-15T13:52:12Z</time>
      </trkpt>
      <trkpt lat="49.0719" lon="2.1676">
        <ele>20.1</ele>
        <time>2017-10-15T13:52:18Z</time>
      </trkpt>
      <trkpt lat="49.07195" lon="2.16769">
        <ele>20.8</ele>
        <time>2017-10-15T13:52:24Z</time>
      </trkpt>
      <trkpt lat="49.072" lon="2.16778">
        <ele>20.6</ele>
        <time>2017-10-15T13:52:30Z</time>
      </trkpt>
      <trkpt lat="49.07205" lon="2.16786">
        <ele>21.1</ele>
        <time>2017-10-15T13:52:36Z</time>
      </trkpt>
      <trkpt lat="49.0721" lon="2.16795">
        <ele>22.6</ele>
        <time>2017-10-15T13:52:42Z</time>
      </trkpt>
      <trkpt lat="49.07216" lon="2.16803">
        <ele>23.6</ele>
        <time>2017-10-15T13:52:47Z</time>
      </trkpt>
      <trkpt lat="49.07222" lon="2.1681">
        <ele>22.2</ele>
        <time>2017-10-15T13:52:53Z</time>
      </trkpt>
      <trkpt lat="49.07227" lon="2.16819">
        <ele>20.7</ele>
        <time>2017-10-15T13:52:59Z</time>
      </trkpt>
      <trkpt lat="49.0723" lon="2.1683">
        <ele>19.5</ele>
        <time>2017-10-15T13:53:05Z</time>
      </trkpt>
      <trkpt lat="49.07231" lon="2.16842">
        <ele>19.8</ele>
        <time>2017-10-15T13:53:10Z</time>
      </trkpt>
      <trkpt lat="49.07233" lon="2.16854">
        <ele>18</ele>
        <time>2017-10-15T13:53:16Z</time>
      </trkpt>
      <trkpt lat="49.07236" lon="2.16865">
        <ele>18.4</ele>
        <time>2017-10-15T13:53:21Z</time>
      </trkpt>
      <trkpt lat="49.07239" lon="2.16876">
        <ele>18.4</ele>
        <time>2017-10-15T13:53:27Z</time>
      </trkpt>
      <trkpt lat="49.07241" lon="2.16887">
        <ele>18.4</ele>
        <time>2017-10-15T13:53:32Z</time>
      </trkpt>
      <trkpt lat="49.07242" lon="2.16899">
        <ele>17.7</ele>
        <time>2017-10-15T13:53:38Z</time>
      </trkpt>
      <trkpt lat="49.07244" lon="2.1691">
        <ele>18.6</ele>
        <time>2017-10-15T13:53:43Z</time>
      </trkpt>
      <trkpt lat="49.07244" lon="2.16922">
        <ele>19.1</ele>
        <time>2017-10-15T13:53:49Z</time>
      </trkpt>
      <trkpt lat="49.07246" lon="2.16934">
        <ele>19.4</ele>
        <time>2017-10-15T13:53:56Z</time>
      </trkpt>
      <trkpt lat="49.07249" lon="2.16944">
        <ele>19.9</ele>
        <time>2017-10-15T13:54:02Z</time>
      </trkpt>
      <trkpt lat="49.07254" lon="2.16953">
        <ele>22.2</ele>
        <time>2017-10-15T13:54:08Z</time>
      </trkpt>
      <trkpt lat="49.07256" lon="2.16964">
        <ele>22.9</ele>
        <time>2017-10-15T13:54:14Z</time>
      </trkpt>
      <trkpt lat="49.07257" lon="2.16976">
        <ele>24</ele>
        <time>2017-10-15T13:54:20Z</time>
      </trkpt>
      <trkpt lat="49.07258" lon="2.16989">
        <ele>23.2</ele>
        <time>2017-10-15T13:54:26Z</time>
      </trkpt>
      <trkpt lat="49.07261" lon="2.17">
        <ele>24.4</ele>
        <time>2017-10-15T13:54:32Z</time>
      </trkpt>
      <trkpt lat="49.07261" lon="2.17012">
        <ele>29.2</ele>
        <time>2017-10-15T13:54:39Z</time>
      </trkpt>
      <trkpt lat="49.07258" lon="2.17022">
        <ele>31.5</ele>
        <time>2017-10-15T13:54:46Z</time>
      </trkpt>
      <trkpt lat="49.07253" lon="2.17031">
        <ele>35.7</ele>
        <time>2017-10-15T13:54:53Z</time>
      </trkpt>
      <trkpt lat="49.07247" lon="2.17037">
        <ele>36.9</ele>
        <time>2017-10-15T13:55:00Z</time>
      </trkpt>
      <trkpt lat="49.07241" lon="2.17042">
        <ele>37.9</ele>
        <time>2017-10-15T13:55:06Z</time>
      </trkpt>
      <trkpt lat="49.07235" lon="2.1705">
        <ele>36.4</ele>
        <time>2017-10-15T13:55:13Z</time>
      </trkpt>
      <trkpt lat="49.07228" lon="2.17054">
        <ele>39.3</ele>
        <time>2017-10-15T13:55:19Z</time>
      </trkpt>
      <trkpt lat="49.07221" lon="2.17059">
        <ele>41</ele>
        <time>2017-10-15T13:55:25Z</time>
      </trkpt>
      <trkpt lat="49.07213" lon="2.17064">
        <ele>42.3</ele>
        <time>2017-10-15T13:55:31Z</time>
      </trkpt>
      <trkpt lat="49.07206" lon="2.17069">
        <ele>42.9</ele>
        <time>2017-10-15T13:55:38Z</time>
      </trkpt>
      <trkpt lat="49.07199" lon="2.17074">
        <ele>45</ele>
        <time>2017-10-15T13:55:44Z</time>
      </trkpt>
      <trkpt lat="49.07192" lon="2.1708">
        <ele>43.3</ele>
        <time>2017-10-15T13:55:49Z</time>
      </trkpt>
      <trkpt lat="49.07185" lon="2.17086">
        <ele>40.7</ele>
        <time>2017-10-15T13:55:54Z</time>
      </trkpt>
      <trkpt lat="49.07178" lon="2.17093">
        <ele>40.4</ele>
        <time>2017-10-15T13:56:00Z</time>
      </trkpt>
      <trkpt lat="49.07171" lon="2.17101">
        <ele>40.9</ele>
        <time>2017-10-15T13:56:06Z</time>
      </trkpt>
      <trkpt lat="49.07166" lon="2.1711">
        <ele>40.7</ele>
        <time>2017-10-15T13:56:11Z</time>
      </trkpt>
      <trkpt lat="49.07161" lon="2.17118">
        <ele>40.4</ele>
        <time>2017-10-15T13:56:17Z</time>
      </trkpt>
      <trkpt lat="49.07157" lon="2.17128">
        <ele>41</ele>
        <time>2017-10-15T13:56:23Z</time>
      </trkpt>
      <trkpt lat="49.07153" lon="2.17137">
        <ele>42.4</ele>
        <time>2017-10-15T13:56:29Z</time>
      </trkpt>
      <trkpt lat="49.07148" lon="2.17146">
        <ele>44.4</ele>
        <time>2017-10-15T13:56:35Z</time>
      </trkpt>
      <trkpt lat="49.07145" lon="2.17156">
        <ele>42.5</ele>
        <time>2017-10-15T13:56:41Z</time>
      </trkpt>
      <trkpt lat="49.0714" lon="2.17166">
        <ele>43.2</ele>
        <time>2017-10-15T13:56:47Z</time>
      </trkpt>
      <trkpt lat="49.07136" lon="2.17177">
        <ele>37.4</ele>
        <time>2017-10-15T13:56:53Z</time>
      </trkpt>
      <trkpt lat="49.07134" lon="2.17188">
        <ele>35.5</ele>
        <time>2017-10-15T13:56:58Z</time>
      </trkpt>
      <trkpt lat="49.07132" lon="2.17199">
        <ele>39.7</ele>
        <time>2017-10-15T13:57:04Z</time>
      </trkpt>
      <trkpt lat="49.07129" lon="2.1721">
        <ele>41.6</ele>
        <time>2017-10-15T13:57:10Z</time>
      </trkpt>
      <trkpt lat="49.07128" lon="2.17221">
        <ele>41.9</ele>
        <time>2017-10-15T13:57:16Z</time>
      </trkpt>
      <trkpt lat="49.07127" lon="2.17234">
        <ele>42.8</ele>
        <time>2017-10-15T13:57:22Z</time>
      </trkpt>
      <trkpt lat="49.07127" lon="2.17245">
        <ele>40.6</ele>
        <time>2017-10-15T13:57:28Z</time>
      </trkpt>
      <trkpt lat="49.07128" lon="2.17259">
        <ele>37</ele>
        <time>2017-10-15T13:57:34Z</time>
      </trkpt>
      <trkpt lat="49.07129" lon="2.17271">
        <ele>38.3</ele>
        <time>2017-10-15T13:57:40Z</time>
      </trkpt>
      <trkpt lat="49.07129" lon="2.17283">
        <ele>39.3</ele>
        <time>2017-10-15T13:57:46Z</time>
      </trkpt>
      <trkpt lat="49.07129" lon="2.17295">
        <ele>39.2</ele>
        <time>2017-10-15T13:57:53Z</time>
      </trkpt>
      <trkpt lat="49.07129" lon="2.17301">
        <ele>36.6</ele>
        <time>2017-10-15T13:58:00Z</time>
      </trkpt>
      <trkpt lat="49.0713" lon="2.17295">
        <ele>35.9</ele>
        <time>2017-10-15T13:58:07Z</time>
      </trkpt>
      <trkpt lat="49.07131" lon="2.17285">
        <ele>31.2</ele>
        <time>2017-10-15T13:58:14Z</time>
      </trkpt>
      <trkpt lat="49.07131" lon="2.17275">
        <ele>31.3</ele>
        <time>2017-10-15T13:58:21Z</time>
      </trkpt>
      <trkpt lat="49.07132" lon="2.17266">
        <ele>29.9</ele>
        <time>2017-10-15T13:58:28Z</time>
      </trkpt>
      <trkpt lat="49.07132" lon="2.17257">
        <ele>26</ele>
        <time>2017-10-15T13:58:35Z</time>
      </trkpt>
      <trkpt lat="49.07131" lon="2.17251">
        <ele>23.8</ele>
        <time>2017-10-15T13:58:42Z</time>
      </trkpt>
      <trkpt lat="49.07126" lon="2.17251">
        <ele>29</ele>
        <time>2017-10-15T13:58:49Z</time>
      </trkpt>
      <trkpt lat="49.07123" lon="2.17252">
        <ele>31.4</ele>
        <time>2017-10-15T13:58:56Z</time>
      </trkpt>
      <trkpt lat="49.07122" lon="2.17253">
        <ele>32.6</ele>
        <time>2017-10-15T13:59:03Z</time>
      </trkpt>
      <trkpt lat="49.07117" lon="2.17257">
        <ele>37.7</ele>
        <time>2017-10-15T14:02:53Z</time>
      </trkpt>
      <trkpt lat="49.07113" lon="2.17262">
        <ele>38.4</ele>
        <time>2017-10-15T14:03:19Z</time>
      </trkpt>
      <trkpt lat="49.07109" lon="2.17268">
        <ele>38.5</ele>
        <time>2017-10-15T14:03:26Z</time>
      </trkpt>
      <trkpt lat="49.07104" lon="2.17272">
        <ele>34.9</ele>
        <time>2017-10-15T14:03:33Z</time>
      </trkpt>
      <trkpt lat="49.071" lon="2.17275">
        <ele>32.2</ele>
        <time>2017-10-15T14:03:40Z</time>
      </trkpt>
      <trkpt lat="49.07096" lon="2.1728">
        <ele>30.5</ele>
        <time>2017-10-15T14:03:47Z</time>
      </trkpt>
      <trkpt lat="49.07091" lon="2.17283">
        <ele>28.9</ele>
        <time>2017-10-15T14:03:54Z</time>
      </trkpt>
      <trkpt lat="49.07084" lon="2.17287">
        <ele>27.6</ele>
        <time>2017-10-15T14:04:01Z</time>
      </trkpt>
      <trkpt lat="49.07078" lon="2.1729">
        <ele>25.7</ele>
        <time>2017-10-15T14:04:08Z</time>
      </trkpt>
      <trkpt lat="49.07072" lon="2.1729">
        <ele>28</ele>
        <time>2017-10-15T14:04:15Z</time>
      </trkpt>
      <trkpt lat="49.07067" lon="2.17289">
        <ele>29.2</ele>
        <time>2017-10-15T14:04:22Z</time>
      </trkpt>
      <trkpt lat="49.07063" lon="2.17289">
        <ele>28.9</ele>
        <time>2017-10-15T14:04:29Z</time>
      </trkpt>
      <trkpt lat="49.0706" lon="2.17291">
        <ele>29.2</ele>
        <time>2017-10-15T14:04:36Z</time>
      </trkpt>
      <trkpt lat="49.07057" lon="2.17292">
        <ele>29.6</ele>
        <time>2017-10-15T14:04:43Z</time>
      </trkpt>
      <trkpt lat="49.07053" lon="2.17296">
        <ele>29.4</ele>
        <time>2017-10-15T14:04:50Z</time>
      </trkpt>
      <trkpt lat="49.07047" lon="2.17298">
        <ele>29.6</ele>
        <time>2017-10-15T14:04:57Z</time>
      </trkpt>
      <trkpt lat="49.0704" lon="2.173">
        <ele>34.4</ele>
        <time>2017-10-15T14:05:04Z</time>
      </trkpt>
      <trkpt lat="49.07031" lon="2.17301">
        <ele>36</ele>
        <time>2017-10-15T14:05:10Z</time>
      </trkpt>
      <trkpt lat="49.07023" lon="2.17299">
        <ele>33.6</ele>
        <time>2017-10-15T14:05:16Z</time>
      </trkpt>
      <trkpt lat="49.07015" lon="2.17303">
        <ele>32.5</ele>
        <time>2017-10-15T14:05:23Z</time>
      </trkpt>
      <trkpt lat="49.07007" lon="2.17307">
        <ele>30.4</ele>
        <time>2017-10-15T14:05:29Z</time>
      </trkpt>
      <trkpt lat="49.07005" lon="2.17316">
        <ele>28.4</ele>
        <time>2017-10-15T14:05:36Z</time>
      </trkpt>
      <trkpt lat="49.07007" lon="2.1732">
        <ele>26.8</ele>
        <time>2017-10-15T14:05:43Z</time>
      </trkpt>
      <trkpt lat="49.07007" lon="2.17325">
        <ele>23.1</ele>
        <time>2017-10-15T14:05:25Z</time>
      </trkpt>
    </trkseg>
  </trk>
</gpx>